Darstellungsparameter: Aktuell verwendete Einstellungen:
Skalierung der Graphiken ... ?
xyx+y,   Skalierungsfaktor:      Skalierung: Modus: x, Faktor: 1
Darstellungszeitraum ... ?
Vom - - bis: - -   Zeitraum: 19.02.2019 - 11.03.2019
Min/Max/Avg-Anzeige ... ?
Zeige MMA aktuell
Zeige MMA Monat
Zeige MMA alles
Zeige --A aktuell
Zeige --A Monat
Zeige --A alles
Keine MMA-Anzeige
MMA:
Keine MMA-Graphiken
MMA-Basis: 19.02.2019 - 11.03.2019
Quicknavigation für Darstellung... ?
Tage:      1T, 2T, 3T, 5T -1T -2T -3T -5T +1T +2T +3T +5T
Wochen: 1W, 2W, 3W -1W -2W -3W +1W +2W +3W
Monate: 1M, 3M, 6M -1M -3M -6M +1M +3M +6M
Jahre:    1J, 3J, 5J, 10J -1J -3J -5J -10J +1J +3J +5J +10J
Nutze für die Darstellung ... ?
Originaldaten oder Mittelwerte auf ...
Stundenbasis Tagesbasis Wochenbasis
Monatsbasis Jahresbasis      Datenbasis: Original-Daten
Darstellen als:
Statistik (Auto) Statistik J:M      Darstellung:
Zur Graphik,    zurück zur Übersicht aller Sensoren.
 
Tabellarische Datenbersicht: ?
 
Sensor: Nr:Datum:Temp:Feuchte:Taupunkt:
Aussen-T/F 1 19-02-2019 00:00:00 1.8 C 91 % 0.49 C
2 19-02-2019 00:05:00 1.7 C 91 % 0.39 C
3 19-02-2019 00:10:00 1.7 C 92 % 0.54 C
4 19-02-2019 00:15:00 1.7 C 92 % 0.54 C
5 19-02-2019 00:20:00 1.7 C 92 % 0.54 C
6 19-02-2019 00:25:00 1.8 C 92 % 0.64 C
7 19-02-2019 00:30:00 1.7 C 92 % 0.54 C
8 19-02-2019 00:35:00 1.7 C 92 % 0.54 C
9 19-02-2019 00:40:00 1.7 C 92 % 0.54 C
10 19-02-2019 00:45:00 1.7 C 93 % 0.69 C
11 19-02-2019 00:50:00 1.7 C 93 % 0.69 C
12 19-02-2019 00:55:00 1.8 C 93 % 0.79 C
13 19-02-2019 01:00:00 1.8 C 93 % 0.79 C
14 19-02-2019 01:05:00 1.8 C 93 % 0.79 C
15 19-02-2019 01:10:00 1.8 C 93 % 0.79 C
16 19-02-2019 01:15:00 1.9 C 93 % 0.89 C
17 19-02-2019 01:20:00 1.9 C 93 % 0.89 C
18 19-02-2019 01:25:00 1.9 C 93 % 0.89 C
19 19-02-2019 01:30:00 1.8 C 92 % 0.64 C
20 19-02-2019 01:35:00 1.8 C 92 % 0.64 C
21 19-02-2019 01:40:00 1.8 C 93 % 0.79 C
22 19-02-2019 01:45:00 1.9 C 93 % 0.89 C
23 19-02-2019 01:50:00 1.8 C 93 % 0.79 C
24 19-02-2019 01:55:00 1.8 C 93 % 0.79 C
25 19-02-2019 02:00:00 1.8 C 93 % 0.79 C
Sensor: Nr:Datum:Temp:Feuchte:Taupunkt:
Aussen-T/F 26 19-02-2019 02:05:00 1.8 C 93 % 0.79 C
27 19-02-2019 02:10:00 1.8 C 93 % 0.79 C
28 19-02-2019 02:15:00 1.9 C 94 % 1.04 C
29 19-02-2019 02:20:00 2 C 93 % 0.99 C
30 19-02-2019 02:25:00 1.9 C 93 % 0.89 C
31 19-02-2019 02:30:00 1.8 C 93 % 0.79 C
32 19-02-2019 02:35:00 1.8 C 93 % 0.79 C
33 19-02-2019 02:40:00 1.8 C 93 % 0.79 C
34 19-02-2019 02:45:00 1.8 C 93 % 0.79 C
35 19-02-2019 02:50:00 1.9 C 94 % 1.04 C
36 19-02-2019 02:55:00 1.9 C 94 % 1.04 C
37 19-02-2019 03:00:00 2 C 94 % 1.14 C
38 19-02-2019 03:05:00 2 C 94 % 1.14 C
39 19-02-2019 03:10:00 2 C 94 % 1.14 C
40 19-02-2019 03:15:00 2.1 C 94 % 1.24 C
41 19-02-2019 03:20:00 2.1 C 94 % 1.24 C
42 19-02-2019 03:25:00 2.1 C 94 % 1.24 C
43 19-02-2019 03:30:00 2.3 C 95 % 1.58 C
44 19-02-2019 03:35:00 2.4 C 95 % 1.68 C
45 19-02-2019 03:40:00 2.6 C 95 % 1.88 C
46 19-02-2019 03:45:00 2.7 C 95 % 1.98 C
47 19-02-2019 03:50:00 2.8 C 95 % 2.08 C
48 19-02-2019 03:55:00 3 C 95 % 2.28 C
49 19-02-2019 04:00:00 3.2 C 95 % 2.48 C
50 19-02-2019 04:05:00 3.3 C 95 % 2.58 C
Sensor: Nr:Datum:Temp:Feuchte:Taupunkt:
Aussen-T/F 51 19-02-2019 04:10:00 3.4 C 95 % 2.68 C
52 19-02-2019 04:15:00 3.6 C 95 % 2.88 C
53 19-02-2019 04:20:00 3.7 C 95 % 2.98 C
54 19-02-2019 04:25:00 3.8 C 95 % 3.07 C
55 19-02-2019 04:30:00 3.8 C 94 % 2.93 C
56 19-02-2019 04:35:00 3.8 C 94 % 2.93 C
57 19-02-2019 04:40:00 3.8 C 93 % 2.77 C
58 19-02-2019 04:45:00 3.9 C 93 % 2.87 C
59 19-02-2019 04:50:00 4 C 93 % 2.97 C
60 19-02-2019 04:55:00 4.1 C 92 % 2.92 C
61 19-02-2019 05:00:00 4.1 C 92 % 2.92 C
62 19-02-2019 05:05:00 3.9 C 91 % 2.57 C
63 19-02-2019 05:10:00 3.9 C 90 % 2.41 C
64 19-02-2019 05:15:00 3.9 C 91 % 2.57 C
65 19-02-2019 05:20:00 3.9 C 91 % 2.57 C
66 19-02-2019 05:25:00 3.9 C 91 % 2.57 C
67 19-02-2019 05:30:00 3.9 C 91 % 2.57 C
68 19-02-2019 05:35:00 4 C 91 % 2.67 C
69 19-02-2019 05:40:00 4.1 C 91 % 2.77 C
70 19-02-2019 05:45:00 4.2 C 91 % 2.87 C
71 19-02-2019 05:50:00 4.3 C 90 % 2.81 C
72 19-02-2019 05:55:00 4.4 C 90 % 2.91 C
73 19-02-2019 06:00:00 4.6 C 90 % 3.1 C
74 19-02-2019 06:05:00 4.7 C 89 % 3.05 C
75 19-02-2019 06:10:00 4.8 C 88 % 2.99 C
Sensor: Nr:Datum:Temp:Feuchte:Taupunkt:
Aussen-T/F 76 19-02-2019 06:15:00 4.9 C 88 % 3.08 C
77 19-02-2019 06:20:00 5.1 C 87 % 3.12 C
78 19-02-2019 06:25:00 5.1 C 87 % 3.12 C
79 19-02-2019 06:30:00 5.1 C 87 % 3.12 C
80 19-02-2019 06:35:00 5.1 C 87 % 3.12 C
81 19-02-2019 06:40:00 5.1 C 87 % 3.12 C
82 19-02-2019 06:45:00 5.1 C 87 % 3.12 C
83 19-02-2019 06:50:00 5.1 C 88 % 3.28 C
84 19-02-2019 06:55:00 5.2 C 88 % 3.38 C
85 19-02-2019 07:00:00 5.2 C 88 % 3.38 C
86 19-02-2019 07:05:00 5.2 C 89 % 3.54 C
87 19-02-2019 07:10:00 5.2 C 89 % 3.54 C
88 19-02-2019 07:15:00 5.2 C 89 % 3.54 C
89 19-02-2019 07:20:00 5.2 C 89 % 3.54 C
90 19-02-2019 07:25:00 5.2 C 90 % 3.7 C
91 19-02-2019 07:30:00 5.2 C 90 % 3.7 C
92 19-02-2019 07:35:00 5.2 C 91 % 3.85 C
93 19-02-2019 07:40:00 5.2 C 91 % 3.85 C
94 19-02-2019 07:45:00 5.2 C 92 % 4.01 C
95 19-02-2019 07:50:00 5.2 C 92 % 4.01 C
96 19-02-2019 07:55:00 5.2 C 92 % 4.01 C
97 19-02-2019 08:00:00 5.2 C 92 % 4.01 C
98 19-02-2019 08:05:00 5.2 C 93 % 4.16 C
99 19-02-2019 08:10:00 5.1 C 92 % 3.91 C
100 19-02-2019 08:15:00 4.9 C 92 % 3.71 C
Sensor: Nr:Datum:Temp:Feuchte:Taupunkt:
Aussen-T/F 101 19-02-2019 08:20:00 4.9 C 93 % 3.87 C
102 19-02-2019 08:25:00 4.9 C 93 % 3.87 C
103 19-02-2019 08:30:00 4.8 C 93 % 3.77 C
104 19-02-2019 08:35:00 4.8 C 93 % 3.77 C
105 19-02-2019 08:40:00 4.8 C 94 % 3.92 C
106 19-02-2019 08:45:00 4.8 C 93 % 3.77 C
107 19-02-2019 08:50:00 4.7 C 93 % 3.67 C
108 19-02-2019 08:55:00 4.6 C 94 % 3.72 C
109 19-02-2019 09:00:00 4.7 C 94 % 3.82 C
110 19-02-2019 09:05:00 4.8 C 94 % 3.92 C
111 19-02-2019 09:10:00 4.9 C 95 % 4.17 C
112 19-02-2019 09:15:00 5 C 95 % 4.27 C
113 19-02-2019 09:20:00 5.1 C 95 % 4.37 C
114 19-02-2019 09:25:00 5.1 C 95 % 4.37 C
115 19-02-2019 09:30:00 5.2 C 95 % 4.47 C
116 19-02-2019 09:35:00 5.3 C 95 % 4.57 C
117 19-02-2019 09:40:00 5.5 C 95 % 4.76 C
118 19-02-2019 09:45:00 5.7 C 95 % 4.96 C
119 19-02-2019 09:50:00 5.8 C 95 % 5.06 C
120 19-02-2019 09:55:00 5.9 C 95 % 5.16 C
121 19-02-2019 10:00:00 5.9 C 95 % 5.16 C
122 19-02-2019 10:05:00 6.1 C 95 % 5.36 C
123 19-02-2019 10:10:00 6.2 C 95 % 5.46 C
124 19-02-2019 10:15:00 6.2 C 95 % 5.46 C
125 19-02-2019 10:20:00 6.2 C 94 % 5.31 C
Sensor: Nr:Datum:Temp:Feuchte:Taupunkt:
Aussen-T/F 126 19-02-2019 10:25:00 6.3 C 94 % 5.41 C
127 19-02-2019 10:30:00 6.4 C 94 % 5.51 C
128 19-02-2019 10:35:00 6.4 C 94 % 5.51 C
129 19-02-2019 10:40:00 6.5 C 94 % 5.61 C
130 19-02-2019 10:45:00 6.6 C 94 % 5.71 C
131 19-02-2019 10:50:00 6.6 C 94 % 5.71 C
132 19-02-2019 10:55:00 6.7 C 93 % 5.65 C
133 19-02-2019 11:00:00 6.7 C 93 % 5.65 C
134 19-02-2019 11:05:00 6.8 C 93 % 5.75 C
135 19-02-2019 11:10:00 6.9 C 93 % 5.85 C
136 19-02-2019 11:15:00 7.1 C 93 % 6.05 C
137 19-02-2019 11:20:00 7.1 C 93 % 6.05 C
138 19-02-2019 11:25:00 7.2 C 93 % 6.15 C
139 19-02-2019 11:30:00 7.3 C 93 % 6.25 C
140 19-02-2019 11:35:00 7.4 C 93 % 6.34 C
141 19-02-2019 11:40:00 7.6 C 92 % 6.39 C
142 19-02-2019 11:45:00 7.6 C 92 % 6.39 C
143 19-02-2019 11:50:00 7.8 C 92 % 6.58 C
144 19-02-2019 11:55:00 7.9 C 92 % 6.68 C
145 19-02-2019 12:00:00 8.1 C 92 % 6.88 C
146 19-02-2019 12:05:00 8.2 C 91 % 6.82 C
147 19-02-2019 12:10:00 8.4 C 91 % 7.02 C
148 19-02-2019 12:15:00 8.5 C 89 % 6.79 C
149 19-02-2019 12:20:00 8.6 C 88 % 6.73 C
150 19-02-2019 12:25:00 8.7 C 88 % 6.83 C
Sensor: Nr:Datum:Temp:Feuchte:Taupunkt:
Aussen-T/F 151 19-02-2019 12:30:00 8.8 C 88 % 6.93 C
152 19-02-2019 12:35:00 8.8 C 87 % 6.76 C
153 19-02-2019 12:40:00 8.9 C 86 % 6.69 C
154 19-02-2019 12:45:00 9.1 C 85 % 6.72 C
155 19-02-2019 12:50:00 9.2 C 85 % 6.81 C
156 19-02-2019 12:55:00 9.3 C 85 % 6.91 C
157 19-02-2019 13:00:00 9.2 C 84 % 6.64 C
158 19-02-2019 13:05:00 9.2 C 83 % 6.47 C
159 19-02-2019 13:10:00 9.3 C 83 % 6.57 C
160 19-02-2019 13:15:00 9.4 C 82 % 6.49 C
161 19-02-2019 13:20:00 9.7 C 83 % 6.96 C
162 19-02-2019 13:25:00 9.8 C 81 % 6.7 C
163 19-02-2019 13:30:00 10.1 C 82 % 7.17 C
164 19-02-2019 13:35:00 10.3 C 79 % 6.82 C
165 19-02-2019 13:40:00 10.4 C 78 % 6.74 C
166 19-02-2019 13:45:00 10.5 C 76 % 6.45 C
167 19-02-2019 13:50:00 10.6 C 75 % 6.36 C
168 19-02-2019 13:55:00 10.8 C 75 % 6.55 C
169 19-02-2019 14:00:00 10.8 C 75 % 6.55 C
170 19-02-2019 14:05:00 10.7 C 75 % 6.46 C
171 19-02-2019 14:10:00 10.7 C 74 % 6.26 C
172 19-02-2019 14:15:00 10.8 C 74 % 6.36 C
173 19-02-2019 14:20:00 10.7 C 74 % 6.26 C
174 19-02-2019 14:25:00 10.7 C 74 % 6.26 C
175 19-02-2019 14:30:00 10.6 C 74 % 6.17 C
Sensor: Nr:Datum:Temp:Feuchte:Taupunkt:
Aussen-T/F 176 19-02-2019 14:35:00 10.6 C 74 % 6.17 C
177 19-02-2019 14:40:00 10.5 C 75 % 6.26 C
178 19-02-2019 14:45:00 10.5 C 76 % 6.45 C
179 19-02-2019 14:50:00 10.6 C 75 % 6.36 C
180 19-02-2019 14:55:00 10.6 C 74 % 6.17 C
181 19-02-2019 15:00:00 10.7 C 74 % 6.26 C
182 19-02-2019 15:05:00 10.7 C 75 % 6.46 C
183 19-02-2019 15:10:00 10.8 C 74 % 6.36 C
184 19-02-2019 15:15:00 10.9 C 74 % 6.45 C
185 19-02-2019 15:20:00 10.9 C 73 % 6.26 C
186 19-02-2019 15:25:00 10.9 C 72 % 6.06 C
187 19-02-2019 15:30:00 10.9 C 73 % 6.26 C
188 19-02-2019 15:35:00 11 C 72 % 6.15 C
189 19-02-2019 15:40:00 11 C 71 % 5.95 C
190 19-02-2019 15:45:00 11.1 C 71 % 6.05 C
191 19-02-2019 15:50:00 11.2 C 71 % 6.14 C
192 19-02-2019 15:55:00 11.2 C 70 % 5.94 C
193 19-02-2019 16:00:00 11.3 C 72 % 6.44 C
194 19-02-2019 16:05:00 11.2 C 73 % 6.55 C
195 19-02-2019 16:10:00 11.1 C 72 % 6.25 C
196 19-02-2019 16:15:00 10.9 C 71 % 5.86 C
197 19-02-2019 16:20:00 10.9 C 72 % 6.06 C
198 19-02-2019 16:25:00 10.9 C 72 % 6.06 C
199 19-02-2019 16:30:00 10.8 C 71 % 5.76 C
200 19-02-2019 16:35:00 10.8 C 73 % 6.16 C
Sensor: Nr:Datum:Temp:Feuchte:Taupunkt:
Aussen-T/F 201 19-02-2019 16:40:00 10.8 C 73 % 6.16 C
202 19-02-2019 16:45:00 10.7 C 72 % 5.87 C
203 19-02-2019 16:50:00 10.7 C 72 % 5.87 C
204 19-02-2019 16:55:00 10.7 C 73 % 6.07 C
205 19-02-2019 17:00:00 10.7 C 72 % 5.87 C
206 19-02-2019 17:05:00 10.4 C 72 % 5.58 C
207 19-02-2019 17:10:00 10.2 C 73 % 5.58 C
208 19-02-2019 17:15:00 10.1 C 73 % 5.49 C
209 19-02-2019 17:20:00 10.1 C 74 % 5.68 C
210 19-02-2019 17:25:00 9.9 C 74 % 5.49 C
211 19-02-2019 17:30:00 9.8 C 74 % 5.39 C
212 19-02-2019 17:35:00 9.6 C 75 % 5.39 C
213 19-02-2019 17:40:00 9.3 C 75 % 5.1 C
214 19-02-2019 17:45:00 9.1 C 76 % 5.1 C
215 19-02-2019 17:50:00 8.7 C 78 % 5.08 C
216 19-02-2019 17:55:00 8.4 C 79 % 4.98 C
217 19-02-2019 18:00:00 8.1 C 80 % 4.86 C
218 19-02-2019 18:05:00 7.8 C 81 % 4.75 C
219 19-02-2019 18:10:00 7.6 C 82 % 4.73 C
220 19-02-2019 18:15:00 7.6 C 82 % 4.73 C
221 19-02-2019 18:20:00 7.5 C 82 % 4.63 C
222 19-02-2019 18:25:00 7.4 C 83 % 4.71 C
223 19-02-2019 18:30:00 7.2 C 83 % 4.51 C
224 19-02-2019 18:35:00 7.1 C 84 % 4.58 C
225 19-02-2019 18:40:00 6.9 C 84 % 4.39 C
Sensor: Nr:Datum:Temp:Feuchte:Taupunkt:
Aussen-T/F 226 19-02-2019 18:45:00 6.8 C 85 % 4.46 C
227 19-02-2019 18:50:00 6.7 C 85 % 4.36 C
228 19-02-2019 18:55:00 6.7 C 86 % 4.53 C
229 19-02-2019 19:00:00 6.6 C 86 % 4.43 C
230 19-02-2019 19:05:00 6.6 C 86 % 4.43 C
231 19-02-2019 19:10:00 6.5 C 86 % 4.33 C
232 19-02-2019 19:15:00 6.4 C 87 % 4.4 C
233 19-02-2019 19:20:00 6.4 C 87 % 4.4 C
234 19-02-2019 19:25:00 6.3 C 87 % 4.3 C
235 19-02-2019 19:30:00 6.2 C 87 % 4.2 C
236 19-02-2019 19:35:00 6.1 C 87 % 4.1 C
237 19-02-2019 19:40:00 6.1 C 88 % 4.27 C
238 19-02-2019 19:45:00 5.9 C 88 % 4.07 C
239 19-02-2019 19:50:00 5.9 C 88 % 4.07 C
240 19-02-2019 19:55:00 5.7 C 88 % 3.87 C
241 19-02-2019 20:00:00 5.7 C 89 % 4.03 C
242 19-02-2019 20:05:00 5.7 C 89 % 4.03 C
243 19-02-2019 20:10:00 5.7 C 89 % 4.03 C
244 19-02-2019 20:15:00 5.6 C 89 % 3.93 C
245 19-02-2019 20:20:00 5.6 C 89 % 3.93 C
246 19-02-2019 20:25:00 5.4 C 89 % 3.74 C
247 19-02-2019 20:30:00 5.4 C 89 % 3.74 C
248 19-02-2019 20:35:00 5.4 C 90 % 3.89 C
249 19-02-2019 20:40:00 5.3 C 89 % 3.64 C
250 19-02-2019 20:45:00 5.2 C 89 % 3.54 C
Sensor: Nr:Datum:Temp:Feuchte:Taupunkt:
Aussen-T/F 251 19-02-2019 20:50:00 5.1 C 90 % 3.6 C
252 19-02-2019 20:55:00 5.2 C 90 % 3.7 C
253 19-02-2019 21:00:00 5.3 C 90 % 3.8 C
254 19-02-2019 21:05:00 5.3 C 90 % 3.8 C
255 19-02-2019 21:10:00 5.3 C 90 % 3.8 C
256 19-02-2019 21:15:00 5.2 C 89 % 3.54 C
257 19-02-2019 21:20:00 5.1 C 89 % 3.44 C
258 19-02-2019 21:25:00 5 C 90 % 3.5 C
259 19-02-2019 21:30:00 4.9 C 90 % 3.4 C
260 19-02-2019 21:35:00 4.8 C 90 % 3.3 C
261 19-02-2019 21:40:00 4.6 C 89 % 2.95 C
262 19-02-2019 21:45:00 4.4 C 89 % 2.75 C
263 19-02-2019 21:50:00 4.2 C 90 % 2.71 C
264 19-02-2019 21:55:00 4.1 C 90 % 2.61 C
265 19-02-2019 22:00:00 3.9 C 90 % 2.41 C
266 19-02-2019 22:05:00 3.8 C 90 % 2.31 C
267 19-02-2019 22:10:00 3.6 C 90 % 2.12 C
268 19-02-2019 22:15:00 3.5 C 91 % 2.17 C
269 19-02-2019 22:20:00 3.4 C 91 % 2.07 C
270 19-02-2019 22:25:00 3.3 C 91 % 1.98 C
271 19-02-2019 22:30:00 3.3 C 92 % 2.13 C
272 19-02-2019 22:35:00 3.3 C 92 % 2.13 C
273 19-02-2019 22:40:00 3.4 C 93 % 2.38 C
274 19-02-2019 22:45:00 3.4 C 92 % 2.23 C
275 19-02-2019 22:50:00 3.4 C 92 % 2.23 C
Sensor: Nr:Datum:Temp:Feuchte:Taupunkt:
Aussen-T/F 276 19-02-2019 22:55:00 3.3 C 92 % 2.13 C
277 19-02-2019 23:00:00 3.3 C 92 % 2.13 C
278 19-02-2019 23:05:00 3.2 C 92 % 2.03 C
279 19-02-2019 23:10:00 3.2 C 92 % 2.03 C
280 19-02-2019 23:15:00 3.1 C 93 % 2.08 C
281 19-02-2019 23:20:00 3.1 C 93 % 2.08 C
282 19-02-2019 23:25:00 3.1 C 93 % 2.08 C
283 19-02-2019 23:30:00 3.1 C 93 % 2.08 C
284 19-02-2019 23:35:00 3 C 93 % 1.98 C
285 19-02-2019 23:40:00 2.9 C 93 % 1.88 C
286 19-02-2019 23:45:00 2.9 C 93 % 1.88 C
287 19-02-2019 23:50:00 2.9 C 93 % 1.88 C
288 19-02-2019 23:55:00 2.8 C 93 % 1.78 C
289 20-02-2019 00:00:00 2.8 C 93 % 1.78 C
290 20-02-2019 00:05:00 2.8 C 93 % 1.78 C
291 20-02-2019 00:10:00 2.8 C 93 % 1.78 C
292 20-02-2019 00:15:00 2.8 C 93 % 1.78 C
293 20-02-2019 00:20:00 2.8 C 94 % 1.93 C
294 20-02-2019 00:25:00 2.8 C 94 % 1.93 C
295 20-02-2019 00:30:00 2.7 C 93 % 1.68 C
296 20-02-2019 00:35:00 2.5 C 93 % 1.49 C
297 20-02-2019 00:40:00 2.3 C 93 % 1.29 C
298 20-02-2019 00:45:00 2.3 C 93 % 1.29 C
299 20-02-2019 00:50:00 2.3 C 94 % 1.44 C
300 20-02-2019 00:55:00 2.3 C 93 % 1.29 C
Sensor: Nr:Datum:Temp:Feuchte:Taupunkt:
Aussen-T/F 301 20-02-2019 01:00:00 2.2 C 93 % 1.19 C
302 20-02-2019 01:05:00 2.2 C 93 % 1.19 C
303 20-02-2019 01:10:00 2.1 C 93 % 1.09 C
304 20-02-2019 01:15:00 2 C 93 % 0.99 C
305 20-02-2019 01:20:00 1.9 C 93 % 0.89 C
306 20-02-2019 01:25:00 1.8 C 94 % 0.94 C
307 20-02-2019 01:30:00 1.7 C 93 % 0.69 C
308 20-02-2019 01:35:00 1.6 C 93 % 0.59 C
309 20-02-2019 01:40:00 1.5 C 93 % 0.49 C
310 20-02-2019 01:45:00 1.5 C 94 % 0.64 C
311 20-02-2019 01:50:00 1.5 C 94 % 0.64 C
312 20-02-2019 01:55:00 1.4 C 94 % 0.54 C
313 20-02-2019 02:00:00 1.4 C 94 % 0.54 C
314 20-02-2019 02:05:00 1.3 C 94 % 0.44 C
315 20-02-2019 02:10:00 1.3 C 94 % 0.44 C
316 20-02-2019 02:15:00 1.2 C 94 % 0.34 C
317 20-02-2019 02:20:00 1.1 C 94 % 0.24 C
318 20-02-2019 02:25:00 1 C 94 % 0.15 C
319 20-02-2019 02:30:00 1.1 C 94 % 0.24 C
320 20-02-2019 02:35:00 1.1 C 94 % 0.24 C
321 20-02-2019 02:40:00 1.2 C 95 % 0.49 C
322 20-02-2019 02:45:00 1.3 C 95 % 0.59 C
323 20-02-2019 02:50:00 1.2 C 95 % 0.49 C
324 20-02-2019 02:55:00 1.1 C 94 % 0.24 C
325 20-02-2019 03:00:00 1.1 C 94 % 0.24 C
Sensor: Nr:Datum:Temp:Feuchte:Taupunkt:
Aussen-T/F 326 20-02-2019 03:05:00 1 C 95 % 0.29 C
327 20-02-2019 03:10:00 1 C 95 % 0.29 C
328 20-02-2019 03:15:00 1 C 95 % 0.29 C
329 20-02-2019 03:20:00 1.1 C 95 % 0.39 C
330 20-02-2019 03:25:00 1.2 C 95 % 0.49 C
331 20-02-2019 03:30:00 1.1 C 95 % 0.39 C
332 20-02-2019 03:35:00 1.1 C 95 % 0.39 C
333 20-02-2019 03:40:00 1.1 C 95 % 0.39 C
334 20-02-2019 03:45:00 1.1 C 95 % 0.39 C
335 20-02-2019 03:50:00 1.2 C 95 % 0.49 C
336 20-02-2019 03:55:00 1.2 C 95 % 0.49 C
337 20-02-2019 04:00:00 1.2 C 95 % 0.49 C
338 20-02-2019 04:05:00 1.1 C 95 % 0.39 C
339 20-02-2019 04:10:00 1.1 C 95 % 0.39 C
340 20-02-2019 04:15:00 1 C 95 % 0.29 C
341 20-02-2019 04:20:00 0.8 C 95 % 0.09 C
342 20-02-2019 04:25:00 0.7 C 95 % -0.01 C
343 20-02-2019 04:30:00 0.7 C 95 % -0.01 C
344 20-02-2019 04:35:00 0.7 C 95 % -0.01 C
345 20-02-2019 04:40:00 0.8 C 95 % 0.09 C
346 20-02-2019 04:45:00 0.8 C 95 % 0.09 C
347 20-02-2019 04:50:00 0.8 C 95 % 0.09 C
348 20-02-2019 04:55:00 0.8 C 95 % 0.09 C
349 20-02-2019 05:00:00 1 C 96 % 0.44 C
350 20-02-2019 05:05:00 1.1 C 96 % 0.54 C
Sensor: Nr:Datum:Temp:Feuchte:Taupunkt:
Aussen-T/F 351 20-02-2019 05:10:00 1.1 C 96 % 0.54 C
352 20-02-2019 05:15:00 1.1 C 95 % 0.39 C
353 20-02-2019 05:20:00 1.1 C 95 % 0.39 C
354 20-02-2019 05:25:00 1 C 95 % 0.29 C
355 20-02-2019 05:30:00 0.9 C 95 % 0.19 C
356 20-02-2019 05:35:00 0.9 C 95 % 0.19 C
357 20-02-2019 05:40:00 0.9 C 95 % 0.19 C
358 20-02-2019 05:45:00 0.9 C 96 % 0.34 C
359 20-02-2019 05:50:00 1 C 96 % 0.44 C
360 20-02-2019 05:55:00 1 C 96 % 0.44 C
361 20-02-2019 06:00:00 0.9 C 96 % 0.34 C
362 20-02-2019 06:05:00 1 C 96 % 0.44 C
363 20-02-2019 06:10:00 1.1 C 96 % 0.54 C
364 20-02-2019 06:15:00 1 C 96 % 0.44 C
365 20-02-2019 06:20:00 0.9 C 96 % 0.34 C
366 20-02-2019 06:25:00 0.9 C 96 % 0.34 C
367 20-02-2019 06:30:00 0.9 C 96 % 0.34 C
368 20-02-2019 06:35:00 0.9 C 95 % 0.19 C
369 20-02-2019 06:40:00 0.8 C 95 % 0.09 C
370 20-02-2019 06:45:00 0.7 C 95 % -0.01 C
371 20-02-2019 06:50:00 0.6 C 95 % -0.11 C
372 20-02-2019 06:55:00 0.7 C 96 % 0.14 C
373 20-02-2019 07:00:00 0.8 C 96 % 0.24 C
374 20-02-2019 07:05:00 0.8 C 96 % 0.24 C
375 20-02-2019 07:10:00 0.8 C 96 % 0.24 C
Sensor: Nr:Datum:Temp:Feuchte:Taupunkt:
Aussen-T/F 376 20-02-2019 07:15:00 0.9 C 96 % 0.34 C
377 20-02-2019 07:20:00 0.8 C 96 % 0.24 C
378 20-02-2019 07:25:00 0.7 C 96 % 0.14 C
379 20-02-2019 07:30:00 0.8 C 96 % 0.24 C
380 20-02-2019 07:35:00 0.7 C 96 % 0.14 C
381 20-02-2019 07:40:00 0.7 C 96 % 0.14 C
382 20-02-2019 07:45:00 0.6 C 96 % 0.04 C
383 20-02-2019 07:50:00 0.6 C 96 % 0.04 C
384 20-02-2019 07:55:00 0.6 C 96 % 0.04 C
385 20-02-2019 08:00:00 0.6 C 96 % 0.04 C
386 20-02-2019 08:05:00 0.7 C 96 % 0.14 C
387 20-02-2019 08:10:00 0.8 C 96 % 0.24 C
388 20-02-2019 08:15:00 0.9 C 96 % 0.34 C
389 20-02-2019 08:20:00 1.1 C 96 % 0.54 C
390 20-02-2019 08:25:00 1.2 C 96 % 0.63 C
391 20-02-2019 08:30:00 1.3 C 96 % 0.73 C
392 20-02-2019 08:35:00 1.4 C 96 % 0.83 C
393 20-02-2019 08:40:00 1.6 C 97 % 1.18 C
394 20-02-2019 08:45:00 1.8 C 97 % 1.38 C
395 20-02-2019 08:50:00 2 C 97 % 1.58 C
396 20-02-2019 08:55:00 2.3 C 97 % 1.87 C
397 20-02-2019 09:00:00 2.5 C 97 % 2.07 C
398 20-02-2019 09:05:00 2.7 C 97 % 2.27 C
399 20-02-2019 09:10:00 2.8 C 97 % 2.37 C
400 20-02-2019 09:15:00 2.8 C 97 % 2.37 C
Sensor: Nr:Datum:Temp:Feuchte:Taupunkt:
Aussen-T/F 401 20-02-2019 09:20:00 2.9 C 97 % 2.47 C
402 20-02-2019 09:25:00 3 C 97 % 2.57 C
403 20-02-2019 09:30:00 3.1 C 97 % 2.67 C
404 20-02-2019 09:35:00 3.3 C 97 % 2.87 C
405 20-02-2019 09:40:00 3.3 C 96 % 2.72 C
406 20-02-2019 09:45:00 3.4 C 96 % 2.82 C
407 20-02-2019 09:50:00 3.6 C 96 % 3.02 C
408 20-02-2019 09:55:00 3.7 C 96 % 3.12 C
409 20-02-2019 10:00:00 3.8 C 96 % 3.22 C
410 20-02-2019 10:05:00 3.8 C 96 % 3.22 C
411 20-02-2019 10:10:00 3.9 C 96 % 3.32 C
412 20-02-2019 10:15:00 4.1 C 96 % 3.52 C
413 20-02-2019 10:20:00 4.2 C 96 % 3.62 C
414 20-02-2019 10:25:00 4.3 C 96 % 3.72 C
415 20-02-2019 10:30:00 4.4 C 96 % 3.82 C
416 20-02-2019 10:35:00 4.6 C 96 % 4.02 C
417 20-02-2019 10:40:00 4.7 C 95 % 3.97 C
418 20-02-2019 10:45:00 4.9 C 95 % 4.17 C
419 20-02-2019 10:50:00 5 C 95 % 4.27 C
420 20-02-2019 10:55:00 5.2 C 95 % 4.47 C
421 20-02-2019 11:00:00 5.4 C 95 % 4.66 C
422 20-02-2019 11:05:00 5.7 C 94 % 4.81 C
423 20-02-2019 11:10:00 5.8 C 94 % 4.91 C
424 20-02-2019 11:15:00 5.9 C 93 % 4.86 C
425 20-02-2019 11:20:00 6 C 92 % 4.8 C
Sensor: Nr:Datum:Temp:Feuchte:Taupunkt:
Aussen-T/F 426 20-02-2019 11:25:00 6.1 C 92 % 4.9 C
427 20-02-2019 11:30:00 6.2 C 92 % 5 C
428 20-02-2019 11:35:00 6.3 C 91 % 4.94 C
429 20-02-2019 11:40:00 6.3 C 91 % 4.94 C
430 20-02-2019 11:45:00 6.3 C 91 % 4.94 C
431 20-02-2019 11:50:00 6.4 C 91 % 5.04 C
432 20-02-2019 11:55:00 6.5 C 90 % 4.98 C
433 20-02-2019 12:00:00 6.6 C 90 % 5.08 C
434 20-02-2019 12:05:00 6.7 C 90 % 5.18 C
435 20-02-2019 12:10:00 6.7 C 90 % 5.18 C
436 20-02-2019 12:15:00 6.9 C 90 % 5.38 C
437 20-02-2019 12:20:00 7.1 C 90 % 5.57 C
438 20-02-2019 12:25:00 7.3 C 89 % 5.61 C
439 20-02-2019 12:30:00 7.6 C 89 % 5.91 C
440 20-02-2019 12:35:00 7.7 C 87 % 5.68 C
441 20-02-2019 12:40:00 8 C 87 % 5.97 C
442 20-02-2019 12:45:00 8.2 C 86 % 6 C
443 20-02-2019 12:50:00 8.4 C 85 % 6.03 C
444 20-02-2019 12:55:00 8.7 C 83 % 5.98 C
445 20-02-2019 13:00:00 8.9 C 82 % 6 C
446 20-02-2019 13:05:00 9.1 C 82 % 6.19 C
447 20-02-2019 13:10:00 9.3 C 81 % 6.21 C
448 20-02-2019 13:15:00 9.5 C 80 % 6.23 C
449 20-02-2019 13:20:00 9.8 C 79 % 6.34 C
450 20-02-2019 13:25:00 9.9 C 78 % 6.25 C
Sensor: Nr:Datum:Temp:Feuchte:Taupunkt:
Aussen-T/F 451 20-02-2019 13:30:00 10.1 C 77 % 6.26 C
452 20-02-2019 13:35:00 10.2 C 77 % 6.35 C
453 20-02-2019 13:40:00 10.2 C 76 % 6.16 C
454 20-02-2019 13:45:00 10.3 C 76 % 6.26 C
455 20-02-2019 13:50:00 10.4 C 76 % 6.36 C
456 20-02-2019 13:55:00 10.7 C 75 % 6.46 C
457 20-02-2019 14:00:00 10.9 C 75 % 6.65 C
458 20-02-2019 14:05:00 10.9 C 74 % 6.45 C
459 20-02-2019 14:10:00 10.9 C 74 % 6.45 C
460 20-02-2019 14:15:00 10.8 C 74 % 6.36 C
461 20-02-2019 14:20:00 10.8 C 75 % 6.55 C
462 20-02-2019 14:25:00 10.8 C 75 % 6.55 C
463 20-02-2019 14:30:00 10.8 C 75 % 6.55 C
464 20-02-2019 14:35:00 10.8 C 74 % 6.36 C
465 20-02-2019 14:40:00 10.9 C 74 % 6.45 C
466 20-02-2019 14:45:00 10.9 C 74 % 6.45 C
467 20-02-2019 14:50:00 10.9 C 74 % 6.45 C
468 20-02-2019 14:55:00 10.9 C 74 % 6.45 C
469 20-02-2019 15:00:00 11 C 74 % 6.55 C
470 20-02-2019 15:05:00 11 C 74 % 6.55 C
471 20-02-2019 15:10:00 11.1 C 73 % 6.45 C
472 20-02-2019 15:15:00 11.1 C 73 % 6.45 C
473 20-02-2019 15:20:00 11.1 C 73 % 6.45 C
474 20-02-2019 15:25:00 11.1 C 73 % 6.45 C
475 20-02-2019 15:30:00 11 C 73 % 6.35 C
Sensor: Nr:Datum:Temp:Feuchte:Taupunkt:
Aussen-T/F 476 20-02-2019 15:35:00 11.1 C 73 % 6.45 C
477 20-02-2019 15:40:00 11.1 C 73 % 6.45 C
478 20-02-2019 15:45:00 11.1 C 73 % 6.45 C
479 20-02-2019 15:50:00 11.1 C 72 % 6.25 C
480 20-02-2019 15:55:00 11.2 C 72 % 6.35 C
481 20-02-2019 16:00:00 11.3 C 71 % 6.24 C
482 20-02-2019 16:05:00 11.3 C 73 % 6.64 C
483 20-02-2019 16:10:00 11.3 C 72 % 6.44 C
484 20-02-2019 16:15:00 11.3 C 72 % 6.44 C
485 20-02-2019 16:20:00 11.3 C 71 % 6.24 C
486 20-02-2019 16:25:00 11.3 C 72 % 6.44 C
487 20-02-2019 16:30:00 11.2 C 71 % 6.14 C
488 20-02-2019 16:35:00 11.3 C 71 % 6.24 C
489 20-02-2019 16:40:00 11.3 C 71 % 6.24 C
490 20-02-2019 16:45:00 11.5 C 71 % 6.43 C
491 20-02-2019 16:50:00 11.7 C 71 % 6.62 C
492 20-02-2019 16:55:00 11.7 C 69 % 6.21 C
493 20-02-2019 17:00:00 11.7 C 69 % 6.21 C
494 20-02-2019 17:05:00 11.5 C 71 % 6.43 C
495 20-02-2019 17:10:00 11.3 C 71 % 6.24 C
496 20-02-2019 17:15:00 11.1 C 72 % 6.25 C
497 20-02-2019 17:20:00 10.9 C 73 % 6.26 C
498 20-02-2019 17:25:00 10.7 C 74 % 6.26 C
499 20-02-2019 17:30:00 10.4 C 74 % 5.97 C
500 20-02-2019 17:35:00 10.1 C 75 % 5.88 C
Sensor: Nr:Datum:Temp:Feuchte:Taupunkt:
Aussen-T/F 501 20-02-2019 17:40:00 9.7 C 76 % 5.68 C
502 20-02-2019 17:45:00 9.3 C 77 % 5.48 C
503 20-02-2019 17:50:00 8.9 C 78 % 5.28 C
504 20-02-2019 17:55:00 8.6 C 79 % 5.17 C
505 20-02-2019 18:00:00 8.3 C 80 % 5.06 C
506 20-02-2019 18:05:00 8 C 81 % 4.94 C
507 20-02-2019 18:10:00 7.7 C 82 % 4.83 C
508 20-02-2019 18:15:00 7.6 C 83 % 4.9 C
509 20-02-2019 18:20:00 7.4 C 84 % 4.88 C
510 20-02-2019 18:25:00 7.2 C 84 % 4.68 C
511 20-02-2019 18:30:00 7.1 C 85 % 4.75 C
512 20-02-2019 18:35:00 7 C 85 % 4.66 C
513 20-02-2019 18:40:00 6.9 C 85 % 4.56 C
514 20-02-2019 18:45:00 6.8 C 86 % 4.63 C
515 20-02-2019 18:50:00 6.8 C 86 % 4.63 C
516 20-02-2019 18:55:00 6.7 C 86 % 4.53 C
517 20-02-2019 19:00:00 6.6 C 86 % 4.43 C
518 20-02-2019 19:05:00 6.5 C 86 % 4.33 C
519 20-02-2019 19:10:00 6.4 C 87 % 4.4 C
520 20-02-2019 19:15:00 6.3 C 87 % 4.3 C
521 20-02-2019 19:20:00 6.3 C 87 % 4.3 C
522 20-02-2019 19:25:00 6.2 C 88 % 4.36 C
523 20-02-2019 19:30:00 6.1 C 88 % 4.27 C
524 20-02-2019 19:35:00 6.1 C 88 % 4.27 C
525 20-02-2019 19:40:00 5.9 C 88 % 4.07 C
Sensor: Nr:Datum:Temp:Feuchte:Taupunkt:
Aussen-T/F 526 20-02-2019 19:45:00 5.9 C 89 % 4.23 C
527 20-02-2019 19:50:00 5.9 C 89 % 4.23 C
528 20-02-2019 19:55:00 5.8 C 89 % 4.13 C
529 20-02-2019 20:00:00 5.6 C 88 % 3.77 C
530 20-02-2019 20:05:00 5.4 C 88 % 3.58 C
531 20-02-2019 20:10:00 5.2 C 89 % 3.54 C
532 20-02-2019 20:15:00 5.2 C 89 % 3.54 C
533 20-02-2019 20:20:00 5.1 C 90 % 3.6 C
534 20-02-2019 20:25:00 4.9 C 90 % 3.4 C
535 20-02-2019 20:30:00 4.8 C 90 % 3.3 C
536 20-02-2019 20:35:00 4.6 C 90 % 3.1 C
537 20-02-2019 20:40:00 4.4 C 90 % 2.91 C
538 20-02-2019 20:45:00 4.4 C 91 % 3.06 C
539 20-02-2019 20:50:00 4.4 C 91 % 3.06 C
540 20-02-2019 20:55:00 4.4 C 91 % 3.06 C
541 20-02-2019 21:00:00 4.4 C 92 % 3.22 C
542 20-02-2019 21:05:00 4.3 C 91 % 2.96 C
543 20-02-2019 21:10:00 4.2 C 91 % 2.87 C
544 20-02-2019 21:15:00 4.1 C 91 % 2.77 C
545 20-02-2019 21:20:00 3.8 C 90 % 2.31 C
546 20-02-2019 21:25:00 3.7 C 91 % 2.37 C
547 20-02-2019 21:30:00 3.6 C 92 % 2.42 C
548 20-02-2019 21:35:00 3.6 C 92 % 2.42 C
549 20-02-2019 21:40:00 3.6 C 92 % 2.42 C
550 20-02-2019 21:45:00 3.4 C 92 % 2.23 C
Sensor: Nr:Datum:Temp:Feuchte:Taupunkt:
Aussen-T/F 551 20-02-2019 21:50:00 3.4 C 92 % 2.23 C
552 20-02-2019 21:55:00 3.2 C 92 % 2.03 C
553 20-02-2019 22:00:00 3.2 C 92 % 2.03 C
554 20-02-2019 22:05:00 3.1 C 92 % 1.93 C
555 20-02-2019 22:10:00 2.9 C 92 % 1.73 C
556 20-02-2019 22:15:00 2.8 C 92 % 1.63 C
557 20-02-2019 22:20:00 2.7 C 92 % 1.53 C
558 20-02-2019 22:25:00 2.6 C 93 % 1.59 C
559 20-02-2019 22:30:00 2.5 C 93 % 1.49 C
560 20-02-2019 22:35:00 2.6 C 93 % 1.59 C
561 20-02-2019 22:40:00 2.6 C 94 % 1.73 C
562 20-02-2019 22:45:00 2.6 C 94 % 1.73 C
563 20-02-2019 22:50:00 2.5 C 94 % 1.63 C
564 20-02-2019 22:55:00 2.3 C 93 % 1.29 C
565 20-02-2019 23:00:00 2.2 C 94 % 1.34 C
566 20-02-2019 23:05:00 2.3 C 94 % 1.44 C
567 20-02-2019 23:10:00 2.4 C 94 % 1.54 C
568 20-02-2019 23:15:00 2.3 C 94 % 1.44 C
569 20-02-2019 23:20:00 2.2 C 94 % 1.34 C
570 20-02-2019 23:25:00 1.9 C 94 % 1.04 C
571 20-02-2019 23:30:00 1.8 C 94 % 0.94 C
572 20-02-2019 23:35:00 1.9 C 94 % 1.04 C
573 20-02-2019 23:40:00 1.9 C 94 % 1.04 C
574 20-02-2019 23:45:00 2 C 95 % 1.29 C
575 20-02-2019 23:50:00 2.2 C 95 % 1.48 C
Sensor: Nr:Datum:Temp:Feuchte:Taupunkt:
Aussen-T/F 576 20-02-2019 23:55:00 2.2 C 95 % 1.48 C
577 21-02-2019 00:00:00 2.1 C 94 % 1.24 C
578 21-02-2019 00:05:00 1.9 C 95 % 1.19 C
579 21-02-2019 00:10:00 1.8 C 94 % 0.94 C
580 21-02-2019 00:15:00 1.7 C 94 % 0.84 C
581 21-02-2019 00:20:00 1.6 C 94 % 0.74 C
582 21-02-2019 00:25:00 1.5 C 94 % 0.64 C
583 21-02-2019 00:30:00 1.4 C 94 % 0.54 C
584 21-02-2019 00:35:00 1.4 C 95 % 0.69 C
585 21-02-2019 00:40:00 1.4 C 95 % 0.69 C
586 21-02-2019 00:45:00 1.3 C 95 % 0.59 C
587 21-02-2019 00:50:00 1.3 C 95 % 0.59 C
588 21-02-2019 00:55:00 1.5 C 95 % 0.79 C
589 21-02-2019 01:00:00 1.6 C 95 % 0.89 C
590 21-02-2019 01:05:00 1.6 C 95 % 0.89 C
591 21-02-2019 01:10:00 1.7 C 95 % 0.99 C
592 21-02-2019 01:15:00 1.7 C 95 % 0.99 C
593 21-02-2019 01:20:00 1.8 C 95 % 1.09 C
594 21-02-2019 01:25:00 1.7 C 95 % 0.99 C
595 21-02-2019 01:30:00 1.6 C 95 % 0.89 C
596 21-02-2019 01:35:00 1.3 C 95 % 0.59 C
597 21-02-2019 01:40:00 1.3 C 95 % 0.59 C
598 21-02-2019 01:45:00 1.3 C 95 % 0.59 C
599 21-02-2019 01:50:00 1.6 C 96 % 1.03 C
600 21-02-2019 01:55:00 1.8 C 96 % 1.23 C
Sensor: Nr:Datum:Temp:Feuchte:Taupunkt:
Aussen-T/F 601 21-02-2019 02:00:00 1.8 C 96 % 1.23 C
602 21-02-2019 02:05:00 1.8 C 96 % 1.23 C
603 21-02-2019 02:10:00 1.7 C 95 % 0.99 C
604 21-02-2019 02:15:00 1.4 C 95 % 0.69 C
605 21-02-2019 02:20:00 1.2 C 95 % 0.49 C
606 21-02-2019 02:25:00 0.9 C 95 % 0.19 C
607 21-02-2019 02:30:00 0.8 C 95 % 0.09 C
608 21-02-2019 02:35:00 0.7 C 95 % -0.01 C
609 21-02-2019 02:40:00 0.7 C 95 % -0.01 C
610 21-02-2019 02:45:00 0.6 C 95 % -0.11 C
611 21-02-2019 02:50:00 0.6 C 95 % -0.11 C
612 21-02-2019 02:55:00 0.6 C 95 % -0.11 C
613 21-02-2019 03:00:00 0.7 C 96 % 0.14 C
614 21-02-2019 03:05:00 0.7 C 96 % 0.14 C
615 21-02-2019 03:10:00 0.7 C 95 % -0.01 C
616 21-02-2019 03:15:00 0.7 C 96 % 0.14 C
617 21-02-2019 03:20:00 0.7 C 96 % 0.14 C
618 21-02-2019 03:25:00 0.6 C 96 % 0.04 C
619 21-02-2019 03:30:00 0.7 C 96 % 0.14 C
620 21-02-2019 03:35:00 0.7 C 96 % 0.14 C
621 21-02-2019 03:40:00 0.8 C 96 % 0.24 C
622 21-02-2019 03:45:00 0.8 C 96 % 0.24 C
623 21-02-2019 03:50:00 0.8 C 96 % 0.24 C
624 21-02-2019 03:55:00 1 C 96 % 0.44 C
625 21-02-2019 04:00:00 1.1 C 96 % 0.54 C
Sensor: Nr:Datum:Temp:Feuchte:Taupunkt:
Aussen-T/F 626 21-02-2019 04:05:00 1.2 C 96 % 0.63 C
627 21-02-2019 04:10:00 1.1 C 96 % 0.54 C
628 21-02-2019 04:15:00 0.9 C 96 % 0.34 C
629 21-02-2019 04:20:00 0.8 C 96 % 0.24 C
630 21-02-2019 04:25:00 0.8 C 96 % 0.24 C
631 21-02-2019 04:30:00 0.8 C 96 % 0.24 C
632 21-02-2019 04:35:00 0.9 C 96 % 0.34 C
633 21-02-2019 04:40:00 0.9 C 96 % 0.34 C
634 21-02-2019 04:45:00 0.9 C 96 % 0.34 C
635 21-02-2019 04:50:00 0.8 C 96 % 0.24 C
636 21-02-2019 04:55:00 0.8 C 96 % 0.24 C
637 21-02-2019 05:00:00 0.7 C 96 % 0.14 C
638 21-02-2019 05:05:00 0.6 C 96 % 0.04 C
639 21-02-2019 05:10:00 0.6 C 96 % 0.04 C
640 21-02-2019 05:15:00 0.5 C 96 % -0.06 C
641 21-02-2019 05:20:00 0.5 C 96 % -0.06 C
642 21-02-2019 05:25:00 0.7 C 96 % 0.14 C
643 21-02-2019 05:30:00 0.9 C 96 % 0.34 C
644 21-02-2019 05:35:00 1.2 C 96 % 0.63 C
645 21-02-2019 05:40:00 1.6 C 97 % 1.18 C
646 21-02-2019 05:45:00 1.8 C 97 % 1.38 C
647 21-02-2019 05:50:00 1.8 C 97 % 1.38 C
648 21-02-2019 05:55:00 1.9 C 97 % 1.48 C
649 21-02-2019 06:00:00 1.9 C 97 % 1.48 C
650 21-02-2019 06:05:00 1.9 C 97 % 1.48 C
Sensor: Nr:Datum:Temp:Feuchte:Taupunkt:
Aussen-T/F 651 21-02-2019 06:10:00 1.8 C 97 % 1.38 C
652 21-02-2019 06:15:00 1.7 C 96 % 1.13 C
653 21-02-2019 06:20:00 1.4 C 96 % 0.83 C
654 21-02-2019 06:25:00 1.3 C 96 % 0.73 C
655 21-02-2019 06:30:00 1.2 C 96 % 0.63 C
656 21-02-2019 06:35:00 1 C 96 % 0.44 C
657 21-02-2019 06:40:00 0.8 C 96 % 0.24 C
658 21-02-2019 06:45:00 0.7 C 96 % 0.14 C
659 21-02-2019 06:50:00 0.6 C 96 % 0.04 C
660 21-02-2019 06:55:00 0.7 C 96 % 0.14 C
661 21-02-2019 07:00:00 0.7 C 96 % 0.14 C
662 21-02-2019 07:05:00 0.8 C 96 % 0.24 C
663 21-02-2019 07:10:00 1.1 C 96 % 0.54 C
664 21-02-2019 07:15:00 1.2 C 96 % 0.63 C
665 21-02-2019 07:20:00 1.3 C 97 % 0.88 C
666 21-02-2019 07:25:00 1.3 C 97 % 0.88 C
667 21-02-2019 07:30:00 1.3 C 97 % 0.88 C
668 21-02-2019 07:35:00 1.3 C 97 % 0.88 C
669 21-02-2019 07:40:00 1.3 C 97 % 0.88 C
670 21-02-2019 07:45:00 1.4 C 96 % 0.83 C
671 21-02-2019 07:50:00 1.4 C 96 % 0.83 C
672 21-02-2019 07:55:00 1.5 C 96 % 0.93 C
673 21-02-2019 08:00:00 1.6 C 97 % 1.18 C
674 21-02-2019 08:05:00 1.7 C 97 % 1.28 C
675 21-02-2019 08:10:00 1.8 C 97 % 1.38 C
Sensor: Nr:Datum:Temp:Feuchte:Taupunkt:
Aussen-T/F 676 21-02-2019 08:15:00 1.9 C 97 % 1.48 C
677 21-02-2019 08:20:00 2.1 C 97 % 1.67 C
678 21-02-2019 08:25:00 2.1 C 97 % 1.67 C
679 21-02-2019 08:30:00 2.2 C 97 % 1.77 C
680 21-02-2019 08:35:00 2.3 C 97 % 1.87 C
681 21-02-2019 08:40:00 2.3 C 97 % 1.87 C
682 21-02-2019 08:45:00 2.4 C 97 % 1.97 C
683 21-02-2019 08:50:00 2.4 C 97 % 1.97 C
684 21-02-2019 08:55:00 2.5 C 97 % 2.07 C
685 21-02-2019 09:00:00 2.6 C 97 % 2.17 C
686 21-02-2019 09:05:00 2.6 C 97 % 2.17 C
687 21-02-2019 09:10:00 2.7 C 97 % 2.27 C
688 21-02-2019 09:15:00 2.7 C 97 % 2.27 C
689 21-02-2019 09:20:00 2.8 C 97 % 2.37 C
690 21-02-2019 09:25:00 2.8 C 97 % 2.37 C
691 21-02-2019 09:30:00 2.8 C 97 % 2.37 C
692 21-02-2019 09:35:00 2.9 C 97 % 2.47 C
693 21-02-2019 09:40:00 2.9 C 97 % 2.47 C
694 21-02-2019 09:45:00 3 C 97 % 2.57 C
695 21-02-2019 09:50:00 3.1 C 97 % 2.67 C
696 21-02-2019 09:55:00 3.2 C 97 % 2.77 C
697 21-02-2019 10:00:00 3.2 C 97 % 2.77 C
698 21-02-2019 10:05:00 3.3 C 97 % 2.87 C
699 21-02-2019 10:10:00 3.4 C 97 % 2.97 C
700 21-02-2019 10:15:00 3.7 C 97 % 3.27 C
Sensor: Nr:Datum:Temp:Feuchte:Taupunkt:
Aussen-T/F 701 21-02-2019 10:20:00 3.8 C 97 % 3.37 C
702 21-02-2019 10:25:00 3.9 C 97 % 3.47 C
703 21-02-2019 10:30:00 4 C 97 % 3.57 C
704 21-02-2019 10:35:00 4.2 C 97 % 3.77 C
705 21-02-2019 10:40:00 4.2 C 97 % 3.77 C
706 21-02-2019 10:45:00 4.3 C 97 % 3.87 C
707 21-02-2019 10:50:00 4.4 C 97 % 3.97 C
708 21-02-2019 10:55:00 4.6 C 97 % 4.17 C
709 21-02-2019 11:00:00 4.8 C 97 % 4.37 C
710 21-02-2019 11:05:00 4.9 C 96 % 4.32 C
711 21-02-2019 11:10:00 5.1 C 96 % 4.52 C
712 21-02-2019 11:15:00 5.3 C 96 % 4.72 C
713 21-02-2019 11:20:00 5.4 C 96 % 4.81 C
714 21-02-2019 11:25:00 5.6 C 95 % 4.86 C
715 21-02-2019 11:30:00 5.7 C 95 % 4.96 C
716 21-02-2019 11:35:00 5.9 C 95 % 5.16 C
717 21-02-2019 11:40:00 6.2 C 94 % 5.31 C
718 21-02-2019 11:45:00 6.4 C 93 % 5.35 C
719 21-02-2019 11:50:00 6.6 C 93 % 5.55 C
720 21-02-2019 11:55:00 6.8 C 92 % 5.59 C
721 21-02-2019 12:00:00 7 C 92 % 5.79 C
722 21-02-2019 12:05:00 7.2 C 92 % 5.99 C
723 21-02-2019 12:10:00 7.4 C 91 % 6.03 C
724 21-02-2019 12:15:00 7.7 C 91 % 6.33 C
725 21-02-2019 12:20:00 7.8 C 90 % 6.27 C
Sensor: Nr:Datum:Temp:Feuchte:Taupunkt:
Aussen-T/F 726 21-02-2019 12:25:00 8.1 C 90 % 6.56 C
727 21-02-2019 12:30:00 8.3 C 90 % 6.76 C
728 21-02-2019 12:35:00 8.5 C 90 % 6.96 C
729 21-02-2019 12:40:00 8.8 C 90 % 7.25 C
730 21-02-2019 12:45:00 9.3 C 89 % 7.58 C
731 21-02-2019 12:50:00 9.8 C 87 % 7.74 C
732 21-02-2019 12:55:00 10.1 C 86 % 7.87 C
733 21-02-2019 13:00:00 10.3 C 85 % 7.89 C
734 21-02-2019 13:05:00 10.5 C 84 % 7.91 C
735 21-02-2019 13:10:00 10.7 C 84 % 8.11 C
736 21-02-2019 13:15:00 10.8 C 83 % 8.03 C
737 21-02-2019 13:20:00 11 C 84 % 8.4 C
738 21-02-2019 13:25:00 11.3 C 83 % 8.52 C
739 21-02-2019 13:30:00 11.5 C 81 % 8.36 C
740 21-02-2019 13:35:00 11.7 C 81 % 8.55 C
741 21-02-2019 13:40:00 11.8 C 80 % 8.47 C
742 21-02-2019 13:45:00 11.9 C 79 % 8.38 C
743 21-02-2019 13:50:00 12 C 79 % 8.48 C
744 21-02-2019 13:55:00 12.1 C 79 % 8.57 C
745 21-02-2019 14:00:00 12.1 C 79 % 8.57 C
746 21-02-2019 14:05:00 12.2 C 78 % 8.48 C
747 21-02-2019 14:10:00 12.3 C 79 % 8.77 C
748 21-02-2019 14:15:00 12.6 C 78 % 8.87 C
749 21-02-2019 14:20:00 12.7 C 77 % 8.78 C
750 21-02-2019 14:25:00 12.7 C 76 % 8.58 C
Sensor: Nr:Datum:Temp:Feuchte:Taupunkt:
Aussen-T/F 751 21-02-2019 14:30:00 12.8 C 76 % 8.68 C
752 21-02-2019 14:35:00 12.8 C 76 % 8.68 C
753 21-02-2019 14:40:00 12.7 C 76 % 8.58 C
754 21-02-2019 14:45:00 12.7 C 76 % 8.58 C
755 21-02-2019 14:50:00 12.7 C 76 % 8.58 C
756 21-02-2019 14:55:00 12.9 C 77 % 8.97 C
757 21-02-2019 15:00:00 13.2 C 75 % 8.87 C
758 21-02-2019 15:05:00 13.2 C 75 % 8.87 C
759 21-02-2019 15:10:00 13.3 C 74 % 8.77 C
760 21-02-2019 15:15:00 13.4 C 74 % 8.87 C
761 21-02-2019 15:20:00 13.4 C 74 % 8.87 C
762 21-02-2019 15:25:00 13.3 C 74 % 8.77 C
763 21-02-2019 15:30:00 13.3 C 75 % 8.97 C
764 21-02-2019 15:35:00 13.3 C 74 % 8.77 C
765 21-02-2019 15:40:00 13.3 C 75 % 8.97 C
766 21-02-2019 15:45:00 13.4 C 74 % 8.87 C
767 21-02-2019 15:50:00 13.4 C 73 % 8.66 C
768 21-02-2019 15:55:00 13.4 C 74 % 8.87 C
769 21-02-2019 16:00:00 13.3 C 73 % 8.57 C
770 21-02-2019 16:05:00 13.3 C 73 % 8.57 C
771 21-02-2019 16:10:00 13.3 C 74 % 8.77 C
772 21-02-2019 16:15:00 13.3 C 75 % 8.97 C
773 21-02-2019 16:20:00 13.4 C 75 % 9.06 C
774 21-02-2019 16:25:00 13.4 C 74 % 8.87 C
775 21-02-2019 16:30:00 13.4 C 74 % 8.87 C
Sensor: Nr:Datum:Temp:Feuchte:Taupunkt:
Aussen-T/F 776 21-02-2019 16:35:00 13.4 C 74 % 8.87 C
777 21-02-2019 16:40:00 13.4 C 74 % 8.87 C
778 21-02-2019 16:45:00 13.3 C 75 % 8.97 C
779 21-02-2019 16:50:00 13.3 C 74 % 8.77 C
780 21-02-2019 16:55:00 13.3 C 74 % 8.77 C
781 21-02-2019 17:00:00 13.2 C 73 % 8.47 C
782 21-02-2019 17:05:00 13.1 C 73 % 8.38 C
783 21-02-2019 17:10:00 13.1 C 73 % 8.38 C
784 21-02-2019 17:15:00 13.1 C 75 % 8.77 C
785 21-02-2019 17:20:00 13.1 C 80 % 9.73 C
786 21-02-2019 17:25:00 12.8 C 81 % 9.62 C
787 21-02-2019 17:30:00 12.6 C 82 % 9.61 C
788 21-02-2019 17:35:00 12.3 C 83 % 9.5 C
789 21-02-2019 17:40:00 12 C 84 % 9.38 C
790 21-02-2019 17:45:00 11.7 C 84 % 9.09 C
791 21-02-2019 17:50:00 11.5 C 85 % 9.07 C
792 21-02-2019 17:55:00 11.3 C 85 % 8.87 C
793 21-02-2019 18:00:00 11.1 C 86 % 8.85 C
794 21-02-2019 18:05:00 10.9 C 86 % 8.65 C
795 21-02-2019 18:10:00 10.8 C 86 % 8.56 C
796 21-02-2019 18:15:00 10.7 C 86 % 8.46 C
797 21-02-2019 18:20:00 10.6 C 86 % 8.36 C
798 21-02-2019 18:25:00 10.6 C 86 % 8.36 C
799 21-02-2019 18:30:00 10.5 C 86 % 8.26 C
800 21-02-2019 18:35:00 10.4 C 86 % 8.16 C
Sensor: Nr:Datum:Temp:Feuchte:Taupunkt:
Aussen-T/F 801 21-02-2019 18:40:00 10.4 C 86 % 8.16 C
802 21-02-2019 18:45:00 10.3 C 86 % 8.06 C
803 21-02-2019 18:50:00 10.3 C 87 % 8.23 C
804 21-02-2019 18:55:00 10.2 C 87 % 8.14 C
805 21-02-2019 19:00:00 10.2 C 87 % 8.14 C
806 21-02-2019 19:05:00 10.1 C 86 % 7.87 C
807 21-02-2019 19:10:00 10 C 86 % 7.77 C
808 21-02-2019 19:15:00 9.8 C 86 % 7.57 C
809 21-02-2019 19:20:00 9.8 C 87 % 7.74 C
810 21-02-2019 19:25:00 9.7 C 88 % 7.81 C
811 21-02-2019 19:30:00 9.7 C 88 % 7.81 C
812 21-02-2019 19:35:00 9.7 C 88 % 7.81 C
813 21-02-2019 19:40:00 9.6 C 88 % 7.71 C
814 21-02-2019 19:45:00 9.6 C 87 % 7.55 C
815 21-02-2019 19:50:00 9.4 C 88 % 7.52 C
816 21-02-2019 19:55:00 9.3 C 88 % 7.42 C
817 21-02-2019 20:00:00 9.2 C 88 % 7.32 C
818 21-02-2019 20:05:00 9.2 C 89 % 7.48 C
819 21-02-2019 20:10:00 9.2 C 89 % 7.48 C
820 21-02-2019 20:15:00 9.1 C 89 % 7.39 C
821 21-02-2019 20:20:00 9.1 C 89 % 7.39 C
822 21-02-2019 20:25:00 9.2 C 90 % 7.65 C
823 21-02-2019 20:30:00 9.2 C 90 % 7.65 C
824 21-02-2019 20:35:00 9.2 C 90 % 7.65 C
825 21-02-2019 20:40:00 9.2 C 90 % 7.65 C
Sensor: Nr:Datum:Temp:Feuchte:Taupunkt:
Aussen-T/F 826 21-02-2019 20:45:00 9.2 C 90 % 7.65 C
827 21-02-2019 20:50:00 9.2 C 90 % 7.65 C
828 21-02-2019 20:55:00 9.2 C 90 % 7.65 C
829 21-02-2019 21:00:00 9.3 C 90 % 7.75 C
830 21-02-2019 21:05:00 9.3 C 90 % 7.75 C
831 21-02-2019 21:10:00 9.3 C 91 % 7.91 C
832 21-02-2019 21:15:00 9.3 C 91 % 7.91 C
833 21-02-2019 21:20:00 9.3 C 91 % 7.91 C
834 21-02-2019 21:25:00 9.3 C 91 % 7.91 C
835 21-02-2019 21:30:00 9.3 C 91 % 7.91 C
836 21-02-2019 21:35:00 9.3 C 91 % 7.91 C
837 21-02-2019 21:40:00 9.3 C 90 % 7.75 C
838 21-02-2019 21:45:00 9.4 C 90 % 7.85 C
839 21-02-2019 21:50:00 9.4 C 90 % 7.85 C
840 21-02-2019 21:55:00 9.4 C 90 % 7.85 C
841 21-02-2019 22:00:00 9.3 C 90 % 7.75 C
842 21-02-2019 22:05:00 9.3 C 90 % 7.75 C
843 21-02-2019 22:10:00 9.3 C 89 % 7.58 C
844 21-02-2019 22:15:00 9.3 C 90 % 7.75 C
845 21-02-2019 22:20:00 9.3 C 89 % 7.58 C
846 21-02-2019 22:25:00 9.3 C 89 % 7.58 C
847 21-02-2019 22:30:00 9.3 C 89 % 7.58 C
848 21-02-2019 22:35:00 9.3 C 89 % 7.58 C
849 21-02-2019 22:40:00 9.3 C 89 % 7.58 C
850 21-02-2019 22:45:00 9.2 C 89 % 7.48 C
Sensor: Nr:Datum:Temp:Feuchte:Taupunkt:
Aussen-T/F 851 21-02-2019 22:50:00 9.2 C 89 % 7.48 C
852 21-02-2019 22:55:00 9.2 C 89 % 7.48 C
853 21-02-2019 23:00:00 9.1 C 89 % 7.39 C
854 21-02-2019 23:05:00 9.1 C 89 % 7.39 C
855 21-02-2019 23:10:00 9 C 89 % 7.29 C
856 21-02-2019 23:15:00 9 C 90 % 7.45 C
857 21-02-2019 23:20:00 9.1 C 90 % 7.55 C
858 21-02-2019 23:25:00 9.2 C 90 % 7.65 C
859 21-02-2019 23:30:00 9.3 C 90 % 7.75 C
860 21-02-2019 23:35:00 9.3 C 89 % 7.58 C
861 21-02-2019 23:40:00 9.4 C 89 % 7.68 C
862 21-02-2019 23:45:00 9.3 C 89 % 7.58 C
863 21-02-2019 23:50:00 9.4 C 89 % 7.68 C
864 21-02-2019 23:55:00 9.4 C 89 % 7.68 C
865 22-02-2019 00:00:00 9.4 C 89 % 7.68 C
866 22-02-2019 00:05:00 9.4 C 88 % 7.52 C
867 22-02-2019 00:10:00 9.3 C 89 % 7.58 C
868 22-02-2019 00:15:00 9.3 C 89 % 7.58 C
869 22-02-2019 00:20:00 9.3 C 89 % 7.58 C
870 22-02-2019 00:25:00 9.3 C 89 % 7.58 C
871 22-02-2019 00:30:00 9.4 C 89 % 7.68 C
872 22-02-2019 00:35:00 9.5 C 90 % 7.94 C
873 22-02-2019 00:40:00 9.8 C 90 % 8.24 C
874 22-02-2019 00:45:00 10 C 88 % 8.11 C
875 22-02-2019 00:50:00 10.1 C 88 % 8.21 C
Sensor: Nr:Datum:Temp:Feuchte:Taupunkt:
Aussen-T/F 876 22-02-2019 00:55:00 10.1 C 88 % 8.21 C
877 22-02-2019 01:00:00 10.1 C 88 % 8.21 C
878 22-02-2019 01:05:00 10.1 C 87 % 8.04 C
879 22-02-2019 01:10:00 9.9 C 87 % 7.84 C
880 22-02-2019 01:15:00 9.8 C 87 % 7.74 C
881 22-02-2019 01:20:00 9.8 C 88 % 7.91 C
882 22-02-2019 01:25:00 9.7 C 88 % 7.81 C
883 22-02-2019 01:30:00 9.7 C 89 % 7.98 C
884 22-02-2019 01:35:00 9.7 C 89 % 7.98 C
885 22-02-2019 01:40:00 9.7 C 89 % 7.98 C
886 22-02-2019 01:45:00 9.6 C 89 % 7.88 C
887 22-02-2019 01:50:00 9.6 C 89 % 7.88 C
888 22-02-2019 01:55:00 9.5 C 89 % 7.78 C
889 22-02-2019 02:00:00 9.4 C 89 % 7.68 C
890 22-02-2019 02:05:00 9.4 C 89 % 7.68 C
891 22-02-2019 02:10:00 9.4 C 90 % 7.85 C
892 22-02-2019 02:15:00 9.4 C 90 % 7.85 C
893 22-02-2019 02:20:00 9.4 C 90 % 7.85 C
894 22-02-2019 02:25:00 9.3 C 90 % 7.75 C
895 22-02-2019 02:30:00 9.3 C 90 % 7.75 C
896 22-02-2019 02:35:00 9.3 C 90 % 7.75 C
897 22-02-2019 02:40:00 9.2 C 90 % 7.65 C
898 22-02-2019 02:45:00 9.2 C 91 % 7.81 C
899 22-02-2019 02:50:00 9.3 C 91 % 7.91 C
900 22-02-2019 02:55:00 9.3 C 92 % 8.07 C
Sensor: Nr:Datum:Temp:Feuchte:Taupunkt:
Aussen-T/F 901 22-02-2019 03:00:00 9.4 C 92 % 8.17 C
902 22-02-2019 03:05:00 9.4 C 91 % 8.01 C
903 22-02-2019 03:10:00 9.4 C 92 % 8.17 C
904 22-02-2019 03:15:00 9.4 C 92 % 8.17 C
905 22-02-2019 03:20:00 9.5 C 92 % 8.27 C
906 22-02-2019 03:25:00 9.5 C 92 % 8.27 C
907 22-02-2019 03:30:00 9.6 C 92 % 8.37 C
908 22-02-2019 03:35:00 9.6 C 93 % 8.53 C
909 22-02-2019 03:40:00 9.7 C 93 % 8.62 C
910 22-02-2019 03:45:00 9.7 C 92 % 8.46 C
911 22-02-2019 03:50:00 9.7 C 92 % 8.46 C
912 22-02-2019 03:55:00 9.7 C 92 % 8.46 C
913 22-02-2019 04:00:00 9.8 C 92 % 8.56 C
914 22-02-2019 04:05:00 9.8 C 92 % 8.56 C
915 22-02-2019 04:10:00 9.8 C 92 % 8.56 C
916 22-02-2019 04:15:00 9.8 C 93 % 8.72 C
917 22-02-2019 04:20:00 9.8 C 93 % 8.72 C
918 22-02-2019 04:25:00 9.7 C 93 % 8.62 C
919 22-02-2019 04:30:00 9.7 C 93 % 8.62 C
920 22-02-2019 04:35:00 9.6 C 93 % 8.53 C
921 22-02-2019 04:40:00 9.6 C 93 % 8.53 C
922 22-02-2019 04:45:00 9.5 C 93 % 8.43 C
923 22-02-2019 04:50:00 9.5 C 94 % 8.58 C
924 22-02-2019 04:55:00 9.4 C 94 % 8.48 C
925 22-02-2019 05:00:00 9.4 C 94 % 8.48 C
Sensor: Nr:Datum:Temp:Feuchte:Taupunkt:
Aussen-T/F 926 22-02-2019 05:05:00 9.4 C 94 % 8.48 C
927 22-02-2019 05:10:00 9.4 C 94 % 8.48 C
928 22-02-2019 05:15:00 9.4 C 94 % 8.48 C
929 22-02-2019 05:20:00 9.4 C 94 % 8.48 C
930 22-02-2019 05:25:00 9.3 C 94 % 8.39 C
931 22-02-2019 05:30:00 9.3 C 94 % 8.39 C
932 22-02-2019 05:35:00 9.3 C 94 % 8.39 C
933 22-02-2019 05:40:00 9.3 C 94 % 8.39 C
934 22-02-2019 05:45:00 9.3 C 95 % 8.54 C
935 22-02-2019 05:50:00 9.3 C 95 % 8.54 C
936 22-02-2019 05:55:00 9.3 C 95 % 8.54 C
937 22-02-2019 06:00:00 9.3 C 95 % 8.54 C
938 22-02-2019 06:05:00 9.3 C 95 % 8.54 C
939 22-02-2019 06:10:00 9.3 C 95 % 8.54 C
940 22-02-2019 06:15:00 9.4 C 95 % 8.64 C
941 22-02-2019 06:20:00 9.4 C 95 % 8.64 C
942 22-02-2019 06:25:00 9.4 C 95 % 8.64 C
943 22-02-2019 06:30:00 9.4 C 95 % 8.64 C
944 22-02-2019 06:35:00 9.4 C 95 % 8.64 C
945 22-02-2019 06:40:00 9.3 C 95 % 8.54 C
946 22-02-2019 06:45:00 9.3 C 95 % 8.54 C
947 22-02-2019 06:50:00 9.3 C 95 % 8.54 C
948 22-02-2019 06:55:00 9.3 C 95 % 8.54 C
949 22-02-2019 07:00:00 9.3 C 95 % 8.54 C
950 22-02-2019 07:05:00 9.3 C 95 % 8.54 C
Sensor: Nr:Datum:Temp:Feuchte:Taupunkt:
Aussen-T/F 951 22-02-2019 07:10:00 9.3 C 95 % 8.54 C
952 22-02-2019 07:15:00 9.2 C 95 % 8.44 C
953 22-02-2019 07:20:00 9.2 C 95 % 8.44 C
954 22-02-2019 07:25:00 9.2 C 95 % 8.44 C
955 22-02-2019 07:30:00 9.2 C 95 % 8.44 C
956 22-02-2019 07:35:00 9.2 C 96 % 8.6 C
957 22-02-2019 07:40:00 9.2 C 96 % 8.6 C
958 22-02-2019 07:45:00 9.2 C 96 % 8.6 C
959 22-02-2019 07:50:00 9.2 C 96 % 8.6 C
960 22-02-2019 07:55:00 9.2 C 96 % 8.6 C
961 22-02-2019 08:00:00 9.1 C 96 % 8.5 C
962 22-02-2019 08:05:00 9.1 C 96 % 8.5 C
963 22-02-2019 08:10:00 9.1 C 96 % 8.5 C
964 22-02-2019 08:15:00 9.1 C 96 % 8.5 C
965 22-02-2019 08:20:00 9.1 C 96 % 8.5 C
966 22-02-2019 08:25:00 9.1 C 96 % 8.5 C
967 22-02-2019 08:30:00 9.2 C 96 % 8.6 C
968 22-02-2019 08:35:00 9.2 C 96 % 8.6 C
969 22-02-2019 08:40:00 9.2 C 96 % 8.6 C
970 22-02-2019 08:45:00 9.2 C 96 % 8.6 C
971 22-02-2019 08:50:00 9.3 C 96 % 8.7 C
972 22-02-2019 08:55:00 9.3 C 96 % 8.7 C
973 22-02-2019 09:00:00 9.4 C 96 % 8.8 C
974 22-02-2019 09:05:00 9.4 C 96 % 8.8 C
975 22-02-2019 09:10:00 9.5 C 96 % 8.89 C
Sensor: Nr:Datum:Temp:Feuchte:Taupunkt:
Aussen-T/F 976 22-02-2019 09:15:00 9.5 C 96 % 8.89 C
977 22-02-2019 09:20:00 9.5 C 96 % 8.89 C
978 22-02-2019 09:25:00 9.5 C 96 % 8.89 C
979 22-02-2019 09:30:00 9.5 C 96 % 8.89 C
980 22-02-2019 09:35:00 9.5 C 96 % 8.89 C
981 22-02-2019 09:40:00 9.5 C 96 % 8.89 C
982 22-02-2019 09:45:00 9.6 C 96 % 8.99 C
983 22-02-2019 09:50:00 9.6 C 96 % 8.99 C
984 22-02-2019 09:55:00 9.6 C 96 % 8.99 C
985 22-02-2019 10:00:00 9.7 C 96 % 9.09 C
986 22-02-2019 10:05:00 9.7 C 96 % 9.09 C
987 22-02-2019 10:10:00 9.8 C 96 % 9.19 C
988 22-02-2019 10:15:00 9.8 C 96 % 9.19 C
989 22-02-2019 10:20:00 9.8 C 96 % 9.19 C
990 22-02-2019 10:25:00 9.9 C 96 % 9.29 C
991 22-02-2019 10:30:00 9.9 C 96 % 9.29 C
992 22-02-2019 10:35:00 10 C 96 % 9.39 C
993 22-02-2019 10:40:00 10.1 C 96 % 9.49 C
994 22-02-2019 10:45:00 10.1 C 96 % 9.49 C
995 22-02-2019 10:50:00 10.2 C 96 % 9.59 C
996 22-02-2019 10:55:00 10.2 C 96 % 9.59 C
997 22-02-2019 11:00:00 10.3 C 96 % 9.69 C
998 22-02-2019 11:05:00 10.3 C 96 % 9.69 C
999 22-02-2019 11:10:00 10.5 C 96 % 9.89 C
1000 22-02-2019 11:15:00 10.6 C 96 % 9.99 C
Sensor: Nr:Datum:Temp:Feuchte:Taupunkt:
Aussen-T/F 1001 22-02-2019 11:20:00 10.6 C 96 % 9.99 C
1002 22-02-2019 11:25:00 10.6 C 95 % 9.83 C
1003 22-02-2019 11:30:00 10.7 C 95 % 9.93 C
1004 22-02-2019 11:35:00 10.7 C 95 % 9.93 C
1005 22-02-2019 11:40:00 10.7 C 94 % 9.77 C
1006 22-02-2019 11:45:00 10.8 C 93 % 9.71 C
1007 22-02-2019 11:50:00 10.9 C 93 % 9.81 C
1008 22-02-2019 11:55:00 11 C 93 % 9.91 C
1009 22-02-2019 12:00:00 11.2 C 92 % 9.95 C
1010 22-02-2019 12:05:00 11.2 C 91 % 9.79 C
1011 22-02-2019 12:10:00 11.3 C 91 % 9.89 C
1012 22-02-2019 12:15:00 11.4 C 89 % 9.65 C
1013 22-02-2019 12:20:00 11.4 C 89 % 9.65 C
1014 22-02-2019 12:25:00 11.6 C 88 % 9.68 C
1015 22-02-2019 12:30:00 11.7 C 88 % 9.78 C
1016 22-02-2019 12:35:00 11.8 C 87 % 9.71 C
1017 22-02-2019 12:40:00 11.8 C 85 % 9.36 C
1018 22-02-2019 12:45:00 11.9 C 85 % 9.46 C
1019 22-02-2019 12:50:00 11.9 C 85 % 9.46 C
1020 22-02-2019 12:55:00 12 C 85 % 9.56 C
1021 22-02-2019 13:00:00 12.1 C 85 % 9.66 C
1022 22-02-2019 13:05:00 12.1 C 84 % 9.48 C
1023 22-02-2019 13:10:00 12.1 C 84 % 9.48 C
1024 22-02-2019 13:15:00 12.1 C 84 % 9.48 C
1025 22-02-2019 13:20:00 12.2 C 84 % 9.58 C
Sensor: Nr:Datum:Temp:Feuchte:Taupunkt:
Aussen-T/F 1026 22-02-2019 13:25:00 12.5 C 82 % 9.51 C
1027 22-02-2019 13:30:00 12.8 C 82 % 9.81 C
1028 22-02-2019 13:35:00 12.8 C 80 % 9.44 C
1029 22-02-2019 13:40:00 12.8 C 80 % 9.44 C
1030 22-02-2019 13:45:00 12.8 C 80 % 9.44 C
1031 22-02-2019 13:50:00 12.7 C 80 % 9.34 C
1032 22-02-2019 13:55:00 12.6 C 80 % 9.25 C
1033 22-02-2019 14:00:00 12.6 C 80 % 9.25 C
1034 22-02-2019 14:05:00 12.6 C 80 % 9.25 C
1035 22-02-2019 14:10:00 12.6 C 79 % 9.06 C
1036 22-02-2019 14:15:00 12.7 C 79 % 9.16 C
1037 22-02-2019 14:20:00 12.7 C 78 % 8.97 C
1038 22-02-2019 14:25:00 12.8 C 78 % 9.06 C
1039 22-02-2019 14:30:00 12.8 C 78 % 9.06 C
1040 22-02-2019 14:35:00 12.9 C 79 % 9.35 C
1041 22-02-2019 14:40:00 13 C 76 % 8.87 C
1042 22-02-2019 14:45:00 13.1 C 76 % 8.97 C
1043 22-02-2019 14:50:00 13.1 C 76 % 8.97 C
1044 22-02-2019 14:55:00 13.1 C 76 % 8.97 C
1045 22-02-2019 15:00:00 13.2 C 75 % 8.87 C
1046 22-02-2019 15:05:00 13.3 C 76 % 9.16 C
1047 22-02-2019 15:10:00 13.3 C 75 % 8.97 C
1048 22-02-2019 15:15:00 13.4 C 74 % 8.87 C
1049 22-02-2019 15:20:00 13.4 C 74 % 8.87 C
1050 22-02-2019 15:25:00 13.4 C 73 % 8.66 C
Sensor: Nr:Datum:Temp:Feuchte:Taupunkt:
Aussen-T/F 1051 22-02-2019 15:30:00 13.3 C 74 % 8.77 C
1052 22-02-2019 15:35:00 13.3 C 74 % 8.77 C
1053 22-02-2019 15:40:00 13.2 C 74 % 8.67 C
1054 22-02-2019 15:45:00 13.2 C 74 % 8.67 C
1055 22-02-2019 15:50:00 13.2 C 75 % 8.87 C
1056 22-02-2019 15:55:00 13.1 C 74 % 8.58 C
1057 22-02-2019 16:00:00 13.1 C 74 % 8.58 C
1058 22-02-2019 16:05:00 13.1 C 75 % 8.77 C
1059 22-02-2019 16:10:00 13.1 C 75 % 8.77 C
1060 22-02-2019 16:15:00 12.9 C 74 % 8.38 C
1061 22-02-2019 16:20:00 12.9 C 73 % 8.18 C
1062 22-02-2019 16:25:00 12.8 C 73 % 8.09 C
1063 22-02-2019 16:30:00 12.8 C 72 % 7.88 C
1064 22-02-2019 16:35:00 12.7 C 72 % 7.79 C
1065 22-02-2019 16:40:00 12.7 C 72 % 7.79 C
1066 22-02-2019 16:45:00 12.7 C 74 % 8.19 C
1067 22-02-2019 16:50:00 12.7 C 74 % 8.19 C
1068 22-02-2019 16:55:00 12.6 C 73 % 7.89 C
1069 22-02-2019 17:00:00 12.5 C 74 % 8 C
1070 22-02-2019 17:05:00 12.4 C 74 % 7.9 C
1071 22-02-2019 17:10:00 12.3 C 75 % 8 C
1072 22-02-2019 17:15:00 12.2 C 73 % 7.51 C
1073 22-02-2019 17:20:00 12.2 C 74 % 7.71 C
1074 22-02-2019 17:25:00 12.1 C 76 % 8 C
1075 22-02-2019 17:30:00 11.9 C 77 % 8 C
Sensor: Nr:Datum:Temp:Feuchte:Taupunkt:
Aussen-T/F 1076 22-02-2019 17:35:00 11.7 C 77 % 7.81 C
1077 22-02-2019 17:40:00 11.4 C 78 % 7.71 C
1078 22-02-2019 17:45:00 11.3 C 78 % 7.61 C
1079 22-02-2019 17:50:00 11.1 C 79 % 7.6 C
1080 22-02-2019 17:55:00 10.8 C 79 % 7.31 C
1081 22-02-2019 18:00:00 10.4 C 80 % 7.1 C
1082 22-02-2019 18:05:00 10.1 C 80 % 6.81 C
1083 22-02-2019 18:10:00 9.8 C 81 % 6.7 C
1084 22-02-2019 18:15:00 9.4 C 82 % 6.49 C
1085 22-02-2019 18:20:00 9.2 C 82 % 6.29 C
1086 22-02-2019 18:25:00 9 C 83 % 6.27 C
1087 22-02-2019 18:30:00 8.8 C 84 % 6.25 C
1088 22-02-2019 18:35:00 8.7 C 84 % 6.15 C
1089 22-02-2019 18:40:00 8.6 C 85 % 6.23 C
1090 22-02-2019 18:45:00 8.4 C 85 % 6.03 C
1091 22-02-2019 18:50:00 8.3 C 85 % 5.93 C
1092 22-02-2019 18:55:00 8.2 C 86 % 6 C
1093 22-02-2019 19:00:00 8.2 C 86 % 6 C
1094 22-02-2019 19:05:00 8.3 C 86 % 6.1 C
1095 22-02-2019 19:10:00 8.3 C 87 % 6.27 C
1096 22-02-2019 19:15:00 8.4 C 87 % 6.37 C
1097 22-02-2019 19:20:00 8.5 C 86 % 6.3 C
1098 22-02-2019 19:25:00 8.6 C 86 % 6.39 C
1099 22-02-2019 19:30:00 8.6 C 86 % 6.39 C
1100 22-02-2019 19:35:00 8.6 C 86 % 6.39 C
Sensor: Nr:Datum:Temp:Feuchte:Taupunkt:
Aussen-T/F 1101 22-02-2019 19:40:00 8.7 C 86 % 6.49 C
1102 22-02-2019 19:45:00 8.7 C 86 % 6.49 C
1103 22-02-2019 19:50:00 8.8 C 86 % 6.59 C
1104 22-02-2019 19:55:00 8.9 C 86 % 6.69 C
1105 22-02-2019 20:00:00 8.9 C 85 % 6.52 C
1106 22-02-2019 20:05:00 9 C 85 % 6.62 C
1107 22-02-2019 20:10:00 9 C 85 % 6.62 C
1108 22-02-2019 20:15:00 9.1 C 85 % 6.72 C
1109 22-02-2019 20:20:00 9.1 C 85 % 6.72 C
1110 22-02-2019 20:25:00 9.1 C 85 % 6.72 C
1111 22-02-2019 20:30:00 9.1 C 85 % 6.72 C
1112 22-02-2019 20:35:00 9 C 85 % 6.62 C
1113 22-02-2019 20:40:00 8.9 C 86 % 6.69 C
1114 22-02-2019 20:45:00 8.9 C 86 % 6.69 C
1115 22-02-2019 20:50:00 8.9 C 86 % 6.69 C
1116 22-02-2019 20:55:00 8.9 C 86 % 6.69 C
1117 22-02-2019 21:00:00 8.8 C 86 % 6.59 C
1118 22-02-2019 21:05:00 8.8 C 86 % 6.59 C
1119 22-02-2019 21:10:00 8.8 C 86 % 6.59 C
1120 22-02-2019 21:15:00 8.8 C 86 % 6.59 C
1121 22-02-2019 21:20:00 8.7 C 87 % 6.66 C
1122 22-02-2019 21:25:00 8.7 C 86 % 6.49 C
1123 22-02-2019 21:30:00 8.6 C 86 % 6.39 C
1124 22-02-2019 21:35:00 8.4 C 86 % 6.2 C
1125 22-02-2019 21:40:00 8.3 C 86 % 6.1 C
Sensor: Nr:Datum:Temp:Feuchte:Taupunkt:
Aussen-T/F 1126 22-02-2019 21:45:00 8.1 C 86 % 5.9 C
1127 22-02-2019 21:50:00 7.9 C 86 % 5.71 C
1128 22-02-2019 21:55:00 7.8 C 87 % 5.78 C
1129 22-02-2019 22:00:00 7.6 C 87 % 5.58 C
1130 22-02-2019 22:05:00 7.4 C 88 % 5.55 C
1131 22-02-2019 22:10:00 7.3 C 88 % 5.45 C
1132 22-02-2019 22:15:00 7.2 C 88 % 5.35 C
1133 22-02-2019 22:20:00 7.1 C 89 % 5.41 C
1134 22-02-2019 22:25:00 7 C 89 % 5.31 C
1135 22-02-2019 22:30:00 6.9 C 89 % 5.22 C
1136 22-02-2019 22:35:00 6.8 C 89 % 5.12 C
1137 22-02-2019 22:40:00 6.7 C 90 % 5.18 C
1138 22-02-2019 22:45:00 6.6 C 90 % 5.08 C
1139 22-02-2019 22:50:00 6.4 C 90 % 4.88 C
1140 22-02-2019 22:55:00 6.3 C 90 % 4.78 C
1141 22-02-2019 23:00:00 6.2 C 90 % 4.69 C
1142 22-02-2019 23:05:00 6.1 C 91 % 4.74 C
1143 22-02-2019 23:10:00 6.1 C 91 % 4.74 C
1144 22-02-2019 23:15:00 6 C 91 % 4.65 C
1145 22-02-2019 23:20:00 6 C 92 % 4.8 C
1146 22-02-2019 23:25:00 5.9 C 92 % 4.7 C
1147 22-02-2019 23:30:00 5.9 C 92 % 4.7 C
1148 22-02-2019 23:35:00 5.9 C 92 % 4.7 C
1149 22-02-2019 23:40:00 5.9 C 92 % 4.7 C
1150 22-02-2019 23:45:00 5.9 C 92 % 4.7 C
Sensor: Nr:Datum:Temp:Feuchte:Taupunkt:
Aussen-T/F 1151 22-02-2019 23:50:00 5.8 C 92 % 4.6 C
1152 22-02-2019 23:55:00 5.7 C 92 % 4.5 C
1153 23-02-2019 00:00:00 5.7 C 92 % 4.5 C
1154 23-02-2019 00:05:00 5.7 C 92 % 4.5 C
1155 23-02-2019 00:10:00 5.6 C 92 % 4.41 C
1156 23-02-2019 00:15:00 5.4 C 92 % 4.21 C
1157 23-02-2019 00:20:00 5.3 C 92 % 4.11 C
1158 23-02-2019 00:25:00 5.3 C 92 % 4.11 C
1159 23-02-2019 00:30:00 5.2 C 92 % 4.01 C
1160 23-02-2019 00:35:00 5.2 C 92 % 4.01 C
1161 23-02-2019 00:40:00 5.2 C 93 % 4.16 C
1162 23-02-2019 00:45:00 5.1 C 93 % 4.06 C
1163 23-02-2019 00:50:00 5.1 C 93 % 4.06 C
1164 23-02-2019 00:55:00 5 C 93 % 3.96 C
1165 23-02-2019 01:00:00 4.9 C 93 % 3.87 C
1166 23-02-2019 01:05:00 4.8 C 93 % 3.77 C
1167 23-02-2019 01:10:00 4.8 C 93 % 3.77 C
1168 23-02-2019 01:15:00 4.7 C 93 % 3.67 C
1169 23-02-2019 01:20:00 4.7 C 93 % 3.67 C
1170 23-02-2019 01:25:00 4.6 C 93 % 3.57 C
1171 23-02-2019 01:30:00 4.4 C 93 % 3.37 C
1172 23-02-2019 01:35:00 4.4 C 93 % 3.37 C
1173 23-02-2019 01:40:00 4.4 C 93 % 3.37 C
1174 23-02-2019 01:45:00 4.3 C 94 % 3.42 C
1175 23-02-2019 01:50:00 4.3 C 94 % 3.42 C
Sensor: Nr:Datum:Temp:Feuchte:Taupunkt:
Aussen-T/F 1176 23-02-2019 01:55:00 4.3 C 94 % 3.42 C
1177 23-02-2019 02:00:00 4.3 C 94 % 3.42 C
1178 23-02-2019 02:05:00 4.3 C 94 % 3.42 C
1179 23-02-2019 02:10:00 4.4 C 94 % 3.52 C
1180 23-02-2019 02:15:00 4.4 C 94 % 3.52 C
1181 23-02-2019 02:20:00 4.3 C 94 % 3.42 C
1182 23-02-2019 02:25:00 4.3 C 94 % 3.42 C
1183 23-02-2019 02:30:00 4.2 C 94 % 3.32 C
1184 23-02-2019 02:35:00 4.1 C 94 % 3.22 C
1185 23-02-2019 02:40:00 4 C 94 % 3.12 C
1186 23-02-2019 02:45:00 4 C 94 % 3.12 C
1187 23-02-2019 02:50:00 4 C 94 % 3.12 C
1188 23-02-2019 02:55:00 3.9 C 94 % 3.02 C
1189 23-02-2019 03:00:00 3.8 C 94 % 2.93 C
1190 23-02-2019 03:05:00 3.8 C 95 % 3.07 C
1191 23-02-2019 03:10:00 3.8 C 95 % 3.07 C
1192 23-02-2019 03:15:00 3.8 C 95 % 3.07 C
1193 23-02-2019 03:20:00 3.9 C 95 % 3.17 C
1194 23-02-2019 03:25:00 3.8 C 95 % 3.07 C
1195 23-02-2019 03:30:00 3.7 C 95 % 2.98 C
1196 23-02-2019 03:35:00 3.7 C 95 % 2.98 C
1197 23-02-2019 03:40:00 3.8 C 95 % 3.07 C
1198 23-02-2019 03:45:00 3.8 C 95 % 3.07 C
1199 23-02-2019 03:50:00 3.9 C 95 % 3.17 C
1200 23-02-2019 03:55:00 4 C 95 % 3.27 C
Sensor: Nr:Datum:Temp:Feuchte:Taupunkt:
Aussen-T/F 1201 23-02-2019 04:00:00 4.1 C 95 % 3.37 C
1202 23-02-2019 04:05:00 4.2 C 95 % 3.47 C
1203 23-02-2019 04:10:00 4.2 C 95 % 3.47 C
1204 23-02-2019 04:15:00 4.3 C 95 % 3.57 C
1205 23-02-2019 04:20:00 4.3 C 95 % 3.57 C
1206 23-02-2019 04:25:00 4.3 C 95 % 3.57 C
1207 23-02-2019 04:30:00 4.4 C 95 % 3.67 C
1208 23-02-2019 04:35:00 4.3 C 95 % 3.57 C
1209 23-02-2019 04:40:00 4.3 C 95 % 3.57 C
1210 23-02-2019 04:45:00 4.3 C 95 % 3.57 C
1211 23-02-2019 04:50:00 4.3 C 95 % 3.57 C
1212 23-02-2019 04:55:00 4.2 C 95 % 3.47 C
1213 23-02-2019 05:00:00 4.2 C 95 % 3.47 C
1214 23-02-2019 05:05:00 4.2 C 95 % 3.47 C
1215 23-02-2019 05:10:00 4.3 C 95 % 3.57 C
1216 23-02-2019 05:15:00 4.3 C 95 % 3.57 C
1217 23-02-2019 05:20:00 4.5 C 94 % 3.62 C
1218 23-02-2019 05:25:00 4.6 C 94 % 3.72 C
1219 23-02-2019 05:30:00 4.6 C 93 % 3.57 C
1220 23-02-2019 05:35:00 4.7 C 93 % 3.67 C
1221 23-02-2019 05:40:00 4.7 C 93 % 3.67 C
1222 23-02-2019 05:45:00 4.7 C 92 % 3.51 C
1223 23-02-2019 05:50:00 4.7 C 92 % 3.51 C
1224 23-02-2019 05:55:00 4.8 C 91 % 3.46 C
1225 23-02-2019 06:00:00 4.8 C 91 % 3.46 C
Sensor: Nr:Datum:Temp:Feuchte:Taupunkt:
Aussen-T/F 1226 23-02-2019 06:05:00 4.8 C 91 % 3.46 C
1227 23-02-2019 06:10:00 4.9 C 90 % 3.4 C
1228 23-02-2019 06:15:00 4.8 C 91 % 3.46 C
1229 23-02-2019 06:20:00 4.8 C 91 % 3.46 C
1230 23-02-2019 06:25:00 4.8 C 89 % 3.14 C
1231 23-02-2019 06:30:00 4.8 C 89 % 3.14 C
1232 23-02-2019 06:35:00 4.8 C 89 % 3.14 C
1233 23-02-2019 06:40:00 4.9 C 89 % 3.24 C
1234 23-02-2019 06:45:00 4.9 C 90 % 3.4 C
1235 23-02-2019 06:50:00 4.9 C 89 % 3.24 C
1236 23-02-2019 06:55:00 4.8 C 89 % 3.14 C
1237 23-02-2019 07:00:00 4.8 C 88 % 2.99 C
1238 23-02-2019 07:05:00 4.8 C 88 % 2.99 C
1239 23-02-2019 07:10:00 4.8 C 88 % 2.99 C
1240 23-02-2019 07:15:00 4.7 C 87 % 2.73 C
1241 23-02-2019 07:20:00 4.8 C 87 % 2.82 C
1242 23-02-2019 07:25:00 4.8 C 87 % 2.82 C
1243 23-02-2019 07:30:00 4.8 C 87 % 2.82 C
1244 23-02-2019 07:35:00 4.8 C 86 % 2.66 C
1245 23-02-2019 07:40:00 4.8 C 86 % 2.66 C
1246 23-02-2019 07:45:00 4.8 C 87 % 2.82 C
1247 23-02-2019 07:50:00 4.8 C 86 % 2.66 C
1248 23-02-2019 07:55:00 4.8 C 86 % 2.66 C
1249 23-02-2019 08:00:00 4.8 C 86 % 2.66 C
1250 23-02-2019 08:05:00 4.8 C 87 % 2.82 C
Sensor: Nr:Datum:Temp:Feuchte:Taupunkt:
Aussen-T/F 1251 23-02-2019 08:10:00 4.8 C 86 % 2.66 C
1252 23-02-2019 08:15:00 4.8 C 85 % 2.5 C
1253 23-02-2019 08:20:00 4.8 C 85 % 2.5 C
1254 23-02-2019 08:25:00 4.8 C 85 % 2.5 C
1255 23-02-2019 08:30:00 4.9 C 85 % 2.6 C
1256 23-02-2019 08:35:00 4.9 C 85 % 2.6 C
1257 23-02-2019 08:40:00 4.9 C 84 % 2.43 C
1258 23-02-2019 08:45:00 4.9 C 84 % 2.43 C
1259 23-02-2019 08:50:00 4.9 C 84 % 2.43 C
1260 23-02-2019 08:55:00 4.9 C 84 % 2.43 C
1261 23-02-2019 09:00:00 4.9 C 84 % 2.43 C
1262 23-02-2019 09:05:00 4.9 C 83 % 2.26 C
1263 23-02-2019 09:10:00 4.8 C 83 % 2.16 C
1264 23-02-2019 09:15:00 4.8 C 83 % 2.16 C
1265 23-02-2019 09:20:00 4.8 C 84 % 2.33 C
1266 23-02-2019 09:25:00 4.8 C 84 % 2.33 C
1267 23-02-2019 09:30:00 4.8 C 84 % 2.33 C
1268 23-02-2019 09:35:00 4.7 C 84 % 2.23 C
1269 23-02-2019 09:40:00 4.7 C 83 % 2.07 C
1270 23-02-2019 09:45:00 4.7 C 83 % 2.07 C
1271 23-02-2019 09:50:00 4.7 C 83 % 2.07 C
1272 23-02-2019 09:55:00 4.7 C 83 % 2.07 C
1273 23-02-2019 10:00:00 4.7 C 83 % 2.07 C
1274 23-02-2019 10:05:00 4.7 C 83 % 2.07 C
1275 23-02-2019 10:10:00 4.7 C 83 % 2.07 C
Sensor: Nr:Datum:Temp:Feuchte:Taupunkt:
Aussen-T/F 1276 23-02-2019 10:15:00 4.8 C 83 % 2.16 C
1277 23-02-2019 10:20:00 4.8 C 82 % 1.99 C
1278 23-02-2019 10:25:00 4.8 C 82 % 1.99 C
1279 23-02-2019 10:30:00 4.9 C 82 % 2.09 C
1280 23-02-2019 10:35:00 5 C 81 % 2.02 C
1281 23-02-2019 10:40:00 5.1 C 81 % 2.12 C
1282 23-02-2019 10:45:00 5.2 C 81 % 2.21 C
1283 23-02-2019 10:50:00 5.3 C 81 % 2.31 C
1284 23-02-2019 10:55:00 5.4 C 80 % 2.23 C
1285 23-02-2019 11:00:00 5.4 C 81 % 2.41 C
1286 23-02-2019 11:05:00 5.6 C 81 % 2.6 C
1287 23-02-2019 11:10:00 5.7 C 80 % 2.53 C
1288 23-02-2019 11:15:00 5.8 C 80 % 2.62 C
1289 23-02-2019 11:20:00 5.9 C 80 % 2.72 C
1290 23-02-2019 11:25:00 6.1 C 80 % 2.92 C
1291 23-02-2019 11:30:00 6.2 C 79 % 2.84 C
1292 23-02-2019 11:35:00 6.3 C 79 % 2.93 C
1293 23-02-2019 11:40:00 6.4 C 78 % 2.85 C
1294 23-02-2019 11:45:00 6.6 C 77 % 2.86 C
1295 23-02-2019 11:50:00 6.7 C 77 % 2.96 C
1296 23-02-2019 11:55:00 6.8 C 76 % 2.87 C
1297 23-02-2019 12:00:00 6.9 C 76 % 2.97 C
1298 23-02-2019 12:05:00 7.1 C 75 % 2.98 C
1299 23-02-2019 12:10:00 7.2 C 74 % 2.89 C
1300 23-02-2019 12:15:00 7.3 C 74 % 2.98 C
Sensor: Nr:Datum:Temp:Feuchte:Taupunkt:
Aussen-T/F 1301 23-02-2019 12:20:00 7.5 C 73 % 2.98 C
1302 23-02-2019 12:25:00 7.7 C 72 % 2.98 C
1303 23-02-2019 12:30:00 7.8 C 71 % 2.88 C
1304 23-02-2019 12:35:00 7.8 C 71 % 2.88 C
1305 23-02-2019 12:40:00 7.9 C 70 % 2.78 C
1306 23-02-2019 12:45:00 8 C 71 % 3.07 C
1307 23-02-2019 12:50:00 8.1 C 70 % 2.97 C
1308 23-02-2019 12:55:00 8.2 C 71 % 3.26 C
1309 23-02-2019 13:00:00 8.3 C 69 % 2.96 C
1310 23-02-2019 13:05:00 8.4 C 68 % 2.85 C
1311 23-02-2019 13:10:00 8.4 C 69 % 3.05 C
1312 23-02-2019 13:15:00 8.7 C 68 % 3.13 C
1313 23-02-2019 13:20:00 8.9 C 68 % 3.32 C
1314 23-02-2019 13:25:00 9.1 C 67 % 3.31 C
1315 23-02-2019 13:30:00 9.3 C 66 % 3.28 C
1316 23-02-2019 13:35:00 9.3 C 66 % 3.28 C
1317 23-02-2019 13:40:00 9.4 C 67 % 3.59 C
1318 23-02-2019 13:45:00 9.6 C 65 % 3.35 C
1319 23-02-2019 13:50:00 9.6 C 65 % 3.35 C
1320 23-02-2019 13:55:00 9.7 C 64 % 3.23 C
1321 23-02-2019 14:00:00 9.7 C 64 % 3.23 C
1322 23-02-2019 14:05:00 9.7 C 63 % 3.01 C
1323 23-02-2019 14:10:00 9.7 C 64 % 3.23 C
1324 23-02-2019 14:15:00 9.8 C 63 % 3.1 C
1325 23-02-2019 14:20:00 9.8 C 62 % 2.88 C
Sensor: Nr:Datum:Temp:Feuchte:Taupunkt:
Aussen-T/F 1326 23-02-2019 14:25:00 9.9 C 62 % 2.97 C
1327 23-02-2019 14:30:00 10 C 61 % 2.84 C
1328 23-02-2019 14:35:00 10.1 C 60 % 2.7 C
1329 23-02-2019 14:40:00 10.2 C 59 % 2.56 C
1330 23-02-2019 14:45:00 10.3 C 54 % 1.41 C
1331 23-02-2019 14:50:00 10.4 C 52 % 0.98 C
1332 23-02-2019 14:55:00 10.6 C 49 % 0.35 C
1333 23-02-2019 15:00:00 10.6 C 47 % -0.23 C
1334 23-02-2019 15:05:00 10.7 C 46 % -0.43 C
1335 23-02-2019 15:10:00 10.8 C 48 % 0.24 C
1336 23-02-2019 15:15:00 10.8 C 46 % -0.34 C
1337 23-02-2019 15:20:00 10.8 C 46 % -0.34 C
1338 23-02-2019 15:25:00 10.8 C 46 % -0.34 C
1339 23-02-2019 15:30:00 10.8 C 45 % -0.64 C
1340 23-02-2019 15:35:00 10.8 C 42 % -1.58 C
1341 23-02-2019 15:40:00 10.8 C 42 % -1.58 C
1342 23-02-2019 15:45:00 10.8 C 43 % -1.26 C
1343 23-02-2019 15:50:00 10.8 C 42 % -1.58 C
1344 23-02-2019 15:55:00 10.9 C 44 % -0.86 C
1345 23-02-2019 16:00:00 10.9 C 43 % -1.17 C
1346 23-02-2019 16:05:00 10.9 C 43 % -1.17 C
1347 23-02-2019 16:10:00 11.1 C 46 % -0.07 C
1348 23-02-2019 16:15:00 11.1 C 52 % 1.63 C
1349 23-02-2019 16:20:00 11 C 43 % -1.08 C
1350 23-02-2019 16:25:00 10.9 C 42 % -1.49 C
Sensor: Nr:Datum:Temp:Feuchte:Taupunkt:
Aussen-T/F 1351 23-02-2019 16:30:00 10.8 C 44 % -0.95 C
1352 23-02-2019 16:35:00 10.8 C 47 % -0.04 C
1353 23-02-2019 16:40:00 10.6 C 46 % -0.52 C
1354 23-02-2019 16:45:00 10.4 C 52 % 0.98 C
1355 23-02-2019 16:50:00 10.2 C 53 % 1.06 C
1356 23-02-2019 16:55:00 9.9 C 54 % 1.04 C
1357 23-02-2019 17:00:00 9.6 C 56 % 1.27 C
1358 23-02-2019 17:05:00 9.3 C 59 % 1.71 C
1359 23-02-2019 17:10:00 8.9 C 61 % 1.8 C
1360 23-02-2019 17:15:00 8.7 C 62 % 1.84 C
1361 23-02-2019 17:20:00 8.3 C 62 % 1.46 C
1362 23-02-2019 17:25:00 8 C 64 % 1.62 C
1363 23-02-2019 17:30:00 7.8 C 64 % 1.43 C
1364 23-02-2019 17:35:00 7.5 C 65 % 1.36 C
1365 23-02-2019 17:40:00 7.3 C 65 % 1.17 C
1366 23-02-2019 17:45:00 7.1 C 66 % 1.19 C
1367 23-02-2019 17:50:00 6.8 C 67 % 1.11 C
1368 23-02-2019 17:55:00 6.6 C 67 % 0.92 C
1369 23-02-2019 18:00:00 6.4 C 69 % 1.14 C
1370 23-02-2019 18:05:00 6.2 C 70 % 1.15 C
1371 23-02-2019 18:10:00 5.9 C 70 % 0.86 C
1372 23-02-2019 18:15:00 5.7 C 70 % 0.67 C
1373 23-02-2019 18:20:00 5.6 C 71 % 0.77 C
1374 23-02-2019 18:25:00 5.4 C 71 % 0.58 C
1375 23-02-2019 18:30:00 5.3 C 71 % 0.48 C
Sensor: Nr:Datum:Temp:Feuchte:Taupunkt:
Aussen-T/F 1376 23-02-2019 18:35:00 5.2 C 71 % 0.38 C
1377 23-02-2019 18:40:00 5.1 C 72 % 0.48 C
1378 23-02-2019 18:45:00 5 C 72 % 0.38 C
1379 23-02-2019 18:50:00 4.9 C 72 % 0.29 C
1380 23-02-2019 18:55:00 4.8 C 72 % 0.19 C
1381 23-02-2019 19:00:00 4.7 C 73 % 0.28 C
1382 23-02-2019 19:05:00 4.7 C 73 % 0.28 C
1383 23-02-2019 19:10:00 4.6 C 73 % 0.19 C
1384 23-02-2019 19:15:00 4.6 C 74 % 0.38 C
1385 23-02-2019 19:20:00 4.5 C 74 % 0.28 C
1386 23-02-2019 19:25:00 4.4 C 73 % 0 C
1387 23-02-2019 19:30:00 4.3 C 74 % 0.09 C
1388 23-02-2019 19:35:00 4.3 C 75 % 0.27 C
1389 23-02-2019 19:40:00 4.2 C 75 % 0.17 C
1390 23-02-2019 19:45:00 4.1 C 74 % -0.11 C
1391 23-02-2019 19:50:00 4.1 C 75 % 0.08 C
1392 23-02-2019 19:55:00 3.9 C 75 % -0.12 C
1393 23-02-2019 20:00:00 3.9 C 75 % -0.12 C
1394 23-02-2019 20:05:00 3.8 C 75 % -0.21 C
1395 23-02-2019 20:10:00 3.7 C 75 % -0.31 C
1396 23-02-2019 20:15:00 3.7 C 75 % -0.31 C
1397 23-02-2019 20:20:00 3.6 C 75 % -0.41 C
1398 23-02-2019 20:25:00 3.5 C 76 % -0.32 C
1399 23-02-2019 20:30:00 3.4 C 76 % -0.42 C
1400 23-02-2019 20:35:00 3.3 C 77 % -0.34 C
Sensor: Nr:Datum:Temp:Feuchte:Taupunkt:
Aussen-T/F 1401 23-02-2019 20:40:00 3.2 C 77 % -0.43 C
1402 23-02-2019 20:45:00 3 C 77 % -0.63 C
1403 23-02-2019 20:50:00 2.8 C 77 % -0.82 C
1404 23-02-2019 20:55:00 2.7 C 78 % -0.74 C
1405 23-02-2019 21:00:00 2.6 C 78 % -0.84 C
1406 23-02-2019 21:05:00 2.4 C 79 % -0.86 C
1407 23-02-2019 21:10:00 2.3 C 78 % -1.13 C
1408 23-02-2019 21:15:00 2.2 C 78 % -1.23 C
1409 23-02-2019 21:20:00 2.2 C 79 % -1.05 C
1410 23-02-2019 21:25:00 2.1 C 79 % -1.15 C
1411 23-02-2019 21:30:00 2.1 C 80 % -0.98 C
1412 23-02-2019 21:35:00 2 C 79 % -1.25 C
1413 23-02-2019 21:40:00 1.8 C 80 % -1.27 C
1414 23-02-2019 21:45:00 1.7 C 80 % -1.37 C
1415 23-02-2019 21:50:00 1.6 C 81 % -1.3 C
1416 23-02-2019 21:55:00 1.4 C 81 % -1.49 C
1417 23-02-2019 22:00:00 1.3 C 81 % -1.59 C
1418 23-02-2019 22:05:00 1.2 C 82 % -1.52 C
1419 23-02-2019 22:10:00 1.2 C 82 % -1.52 C
1420 23-02-2019 22:15:00 1.1 C 83 % -1.46 C
1421 23-02-2019 22:20:00 1.1 C 84 % -1.29 C
1422 23-02-2019 22:25:00 1.1 C 84 % -1.29 C
1423 23-02-2019 22:30:00 1.1 C 83 % -1.46 C
1424 23-02-2019 22:35:00 0.9 C 83 % -1.65 C
1425 23-02-2019 22:40:00 0.8 C 83 % -1.75 C
Sensor: Nr:Datum:Temp:Feuchte:Taupunkt:
Aussen-T/F 1426 23-02-2019 22:45:00 0.7 C 83 % -1.85 C
1427 23-02-2019 22:50:00 0.7 C 83 % -1.85 C
1428 23-02-2019 22:55:00 0.6 C 83 % -1.95 C
1429 23-02-2019 23:00:00 0.6 C 84 % -1.78 C
1430 23-02-2019 23:05:00 0.6 C 84 % -1.78 C
1431 23-02-2019 23:10:00 0.5 C 83 % -2.04 C
1432 23-02-2019 23:15:00 0.4 C 83 % -2.14 C
1433 23-02-2019 23:20:00 0.4 C 84 % -1.98 C
1434 23-02-2019 23:25:00 0.5 C 83 % -2.04 C
1435 23-02-2019 23:30:00 0.4 C 83 % -2.14 C
1436 23-02-2019 23:35:00 0.5 C 83 % -2.04 C
1437 23-02-2019 23:40:00 0.4 C 83 % -2.14 C
1438 23-02-2019 23:45:00 0.4 C 84 % -1.98 C
1439 23-02-2019 23:50:00 0.4 C 84 % -1.98 C
1440 23-02-2019 23:55:00 0.4 C 84 % -1.98 C
1441 24-02-2019 00:00:00 0.2 C 84 % -2.18 C
1442 24-02-2019 00:05:00 0.1 C 84 % -2.27 C
1443 24-02-2019 00:10:00 -0.1 C 84 % -2.47 C
1444 24-02-2019 00:15:00 -0.2 C 85 % -2.41 C
1445 24-02-2019 00:20:00 -0.3 C 85 % -2.51 C
1446 24-02-2019 00:25:00 -0.3 C 85 % -2.51 C
1447 24-02-2019 00:30:00 -0.3 C 86 % -2.35 C
1448 24-02-2019 00:35:00 -0.3 C 86 % -2.35 C
1449 24-02-2019 00:40:00 -0.4 C 86 % -2.45 C
1450 24-02-2019 00:45:00 -0.4 C 86 % -2.45 C
Sensor: Nr:Datum:Temp:Feuchte:Taupunkt:
Aussen-T/F 1451 24-02-2019 00:50:00 -0.5 C 87 % -2.39 C
1452 24-02-2019 00:55:00 -0.6 C 87 % -2.49 C
1453 24-02-2019 01:00:00 -0.6 C 87 % -2.49 C
1454 24-02-2019 01:05:00 -0.6 C 87 % -2.49 C
1455 24-02-2019 01:10:00 -0.6 C 87 % -2.49 C
1456 24-02-2019 01:15:00 -0.6 C 87 % -2.49 C
1457 24-02-2019 01:20:00 -0.6 C 87 % -2.49 C
1458 24-02-2019 01:25:00 -0.6 C 87 % -2.49 C
1459 24-02-2019 01:30:00 -0.7 C 87 % -2.59 C
1460 24-02-2019 01:35:00 -0.7 C 87 % -2.59 C
1461 24-02-2019 01:40:00 -0.7 C 87 % -2.59 C
1462 24-02-2019 01:45:00 -0.7 C 87 % -2.59 C
1463 24-02-2019 01:50:00 -0.8 C 87 % -2.69 C
1464 24-02-2019 01:55:00 -0.8 C 87 % -2.69 C
1465 24-02-2019 02:00:00 -0.9 C 87 % -2.79 C
1466 24-02-2019 02:05:00 -1 C 87 % -2.88 C
1467 24-02-2019 02:10:00 -1.1 C 88 % -2.83 C
1468 24-02-2019 02:15:00 -1.1 C 88 % -2.83 C
1469 24-02-2019 02:20:00 -1.1 C 88 % -2.83 C
1470 24-02-2019 02:25:00 -1.2 C 88 % -2.93 C
1471 24-02-2019 02:30:00 -1.2 C 88 % -2.93 C
1472 24-02-2019 02:35:00 -1.2 C 88 % -2.93 C
1473 24-02-2019 02:40:00 -1.3 C 88 % -3.03 C
1474 24-02-2019 02:45:00 -1.3 C 88 % -3.03 C
1475 24-02-2019 02:50:00 -1.3 C 88 % -3.03 C
Sensor: Nr:Datum:Temp:Feuchte:Taupunkt:
Aussen-T/F 1476 24-02-2019 02:55:00 -1.3 C 89 % -2.88 C
1477 24-02-2019 03:00:00 -1.3 C 89 % -2.88 C
1478 24-02-2019 03:05:00 -1.4 C 89 % -2.97 C
1479 24-02-2019 03:10:00 -1.4 C 89 % -2.97 C
1480 24-02-2019 03:15:00 -1.4 C 89 % -2.97 C
1481 24-02-2019 03:20:00 -1.4 C 89 % -2.97 C
1482 24-02-2019 03:25:00 -1.5 C 89 % -3.07 C
1483 24-02-2019 03:30:00 -1.5 C 89 % -3.07 C
1484 24-02-2019 03:35:00 -1.6 C 89 % -3.17 C
1485 24-02-2019 03:40:00 -1.6 C 89 % -3.17 C
1486 24-02-2019 03:45:00 -1.6 C 89 % -3.17 C
1487 24-02-2019 03:50:00 -1.6 C 90 % -3.02 C
1488 24-02-2019 03:55:00 -1.7 C 90 % -3.12 C
1489 24-02-2019 04:00:00 -1.7 C 90 % -3.12 C
1490 24-02-2019 04:05:00 -1.7 C 90 % -3.12 C
1491 24-02-2019 04:10:00 -1.7 C 90 % -3.12 C
1492 24-02-2019 04:15:00 -1.6 C 90 % -3.02 C
1493 24-02-2019 04:20:00 -1.7 C 90 % -3.12 C
1494 24-02-2019 04:25:00 -1.7 C 90 % -3.12 C
1495 24-02-2019 04:30:00 -1.7 C 90 % -3.12 C
1496 24-02-2019 04:35:00 -1.8 C 90 % -3.22 C
1497 24-02-2019 04:40:00 -1.8 C 90 % -3.22 C
1498 24-02-2019 04:45:00 -1.8 C 90 % -3.22 C
1499 24-02-2019 04:50:00 -1.8 C 90 % -3.22 C
1500 24-02-2019 04:55:00 -1.8 C 90 % -3.22 C
Sensor: Nr:Datum:Temp:Feuchte:Taupunkt:
Aussen-T/F 1501 24-02-2019 05:00:00 -1.8 C 90 % -3.22 C
1502 24-02-2019 05:05:00 -1.8 C 90 % -3.22 C
1503 24-02-2019 05:10:00 -1.8 C 90 % -3.22 C
1504 24-02-2019 05:15:00 -1.8 C 90 % -3.22 C
1505 24-02-2019 05:20:00 -1.8 C 90 % -3.22 C
1506 24-02-2019 05:25:00 -1.9 C 90 % -3.32 C
1507 24-02-2019 05:30:00 -1.9 C 90 % -3.32 C
1508 24-02-2019 05:35:00 -1.9 C 90 % -3.32 C
1509 24-02-2019 05:40:00 -2 C 90 % -3.42 C
1510 24-02-2019 05:45:00 -2 C 90 % -3.42 C
1511 24-02-2019 05:50:00 -1.9 C 90 % -3.32 C
1512 24-02-2019 05:55:00 -1.9 C 90 % -3.32 C
1513 24-02-2019 06:00:00 -1.9 C 90 % -3.32 C
1514 24-02-2019 06:05:00 -1.9 C 90 % -3.32 C
1515 24-02-2019 06:10:00 -2 C 90 % -3.42 C
1516 24-02-2019 06:15:00 -2 C 90 % -3.42 C
1517 24-02-2019 06:20:00 -2.1 C 90 % -3.52 C
1518 24-02-2019 06:25:00 -2.1 C 90 % -3.52 C
1519 24-02-2019 06:30:00 -2.1 C 91 % -3.37 C
1520 24-02-2019 06:35:00 -2.1 C 91 % -3.37 C
1521 24-02-2019 06:40:00 -2.1 C 91 % -3.37 C
1522 24-02-2019 06:45:00 -2.1 C 91 % -3.37 C
1523 24-02-2019 06:50:00 -2.2 C 91 % -3.47 C
1524 24-02-2019 06:55:00 -2.2 C 91 % -3.47 C
1525 24-02-2019 07:00:00 -2.2 C 91 % -3.47 C
Sensor: Nr:Datum:Temp:Feuchte:Taupunkt:
Aussen-T/F 1526 24-02-2019 07:05:00 -2.3 C 91 % -3.57 C
1527 24-02-2019 07:10:00 -2.3 C 91 % -3.57 C
1528 24-02-2019 07:15:00 -2.3 C 91 % -3.57 C
1529 24-02-2019 07:20:00 -2.4 C 91 % -3.66 C
1530 24-02-2019 07:25:00 -2.4 C 91 % -3.66 C
1531 24-02-2019 07:30:00 -2.4 C 91 % -3.66 C
1532 24-02-2019 07:35:00 -2.4 C 91 % -3.66 C
1533 24-02-2019 07:40:00 -2.4 C 91 % -3.66 C
1534 24-02-2019 07:45:00 -2.4 C 92 % -3.52 C
1535 24-02-2019 07:50:00 -2.4 C 92 % -3.52 C
1536 24-02-2019 07:55:00 -2.4 C 92 % -3.52 C
1537 24-02-2019 08:00:00 -2.3 C 92 % -3.42 C
1538 24-02-2019 08:05:00 -2.3 C 92 % -3.42 C
1539 24-02-2019 08:10:00 -2.2 C 92 % -3.32 C
1540 24-02-2019 08:15:00 -2.2 C 92 % -3.32 C
1541 24-02-2019 08:20:00 -2.2 C 92 % -3.32 C
1542 24-02-2019 08:25:00 -2.1 C 92 % -3.22 C
1543 24-02-2019 08:30:00 -2.1 C 92 % -3.22 C
1544 24-02-2019 08:35:00 -2 C 92 % -3.12 C
1545 24-02-2019 08:40:00 -2 C 92 % -3.12 C
1546 24-02-2019 08:45:00 -2 C 92 % -3.12 C
1547 24-02-2019 08:50:00 -2 C 92 % -3.12 C
1548 24-02-2019 08:55:00 -1.9 C 92 % -3.02 C
1549 24-02-2019 09:00:00 -1.9 C 92 % -3.02 C
1550 24-02-2019 09:05:00 -1.8 C 92 % -2.92 C
Sensor: Nr:Datum:Temp:Feuchte:Taupunkt:
Aussen-T/F 1551 24-02-2019 09:10:00 -1.8 C 92 % -2.92 C
1552 24-02-2019 09:15:00 -1.7 C 92 % -2.83 C
1553 24-02-2019 09:20:00 -1.6 C 92 % -2.73 C
1554 24-02-2019 09:25:00 -1.6 C 92 % -2.73 C
1555 24-02-2019 09:30:00 -1.5 C 92 % -2.63 C
1556 24-02-2019 09:35:00 -1.4 C 92 % -2.53 C
1557 24-02-2019 09:40:00 -1.3 C 92 % -2.43 C
1558 24-02-2019 09:45:00 -1.2 C 92 % -2.33 C
1559 24-02-2019 09:50:00 -1.1 C 92 % -2.23 C
1560 24-02-2019 09:55:00 -1 C 91 % -2.28 C
1561 24-02-2019 10:00:00 -0.9 C 91 % -2.18 C
1562 24-02-2019 10:05:00 -0.8 C 91 % -2.08 C
1563 24-02-2019 10:10:00 -0.6 C 90 % -2.03 C
1564 24-02-2019 10:15:00 -0.4 C 90 % -1.84 C
1565 24-02-2019 10:20:00 -0.2 C 90 % -1.64 C
1566 24-02-2019 10:25:00 0 C 89 % -1.59 C
1567 24-02-2019 10:30:00 0.3 C 89 % -1.29 C
1568 24-02-2019 10:35:00 0.7 C 88 % -1.05 C
1569 24-02-2019 10:40:00 1 C 88 % -0.76 C
1570 24-02-2019 10:45:00 1.4 C 87 % -0.52 C
1571 24-02-2019 10:50:00 1.7 C 86 % -0.38 C
1572 24-02-2019 10:55:00 2.2 C 85 % -0.05 C
1573 24-02-2019 11:00:00 2.6 C 83 % 0.01 C
1574 24-02-2019 11:05:00 2.9 C 82 % 0.14 C
1575 24-02-2019 11:10:00 3.2 C 82 % 0.43 C
Sensor: Nr:Datum:Temp:Feuchte:Taupunkt:
Aussen-T/F 1576 24-02-2019 11:15:00 3.4 C 81 % 0.46 C
1577 24-02-2019 11:20:00 3.7 C 80 % 0.58 C
1578 24-02-2019 11:25:00 3.9 C 79 % 0.6 C
1579 24-02-2019 11:30:00 4.2 C 76 % 0.36 C
1580 24-02-2019 11:35:00 4.6 C 75 % 0.56 C
1581 24-02-2019 11:40:00 4.8 C 76 % 0.94 C
1582 24-02-2019 11:45:00 5.1 C 74 % 0.86 C
1583 24-02-2019 11:50:00 5.3 C 74 % 1.05 C
1584 24-02-2019 11:55:00 5.4 C 73 % 0.96 C
1585 24-02-2019 12:00:00 5.6 C 73 % 1.15 C
1586 24-02-2019 12:05:00 5.7 C 72 % 1.06 C
1587 24-02-2019 12:10:00 5.9 C 72 % 1.25 C
1588 24-02-2019 12:15:00 6.3 C 70 % 1.24 C
1589 24-02-2019 12:20:00 6.6 C 69 % 1.33 C
1590 24-02-2019 12:25:00 6.9 C 68 % 1.41 C
1591 24-02-2019 12:30:00 7.4 C 67 % 1.69 C
1592 24-02-2019 12:35:00 8.1 C 66 % 2.14 C
1593 24-02-2019 12:40:00 8.6 C 63 % 1.97 C
1594 24-02-2019 12:45:00 8.8 C 58 % 1 C
1595 24-02-2019 12:50:00 9.1 C 58 % 1.29 C
1596 24-02-2019 12:55:00 9.2 C 57 % 1.14 C
1597 24-02-2019 13:00:00 9.2 C 55 % 0.64 C
1598 24-02-2019 13:05:00 9.3 C 49 % -0.85 C
1599 24-02-2019 13:10:00 9.4 C 48 % -1.04 C
1600 24-02-2019 13:15:00 9.7 C 46 % -1.34 C
Sensor: Nr:Datum:Temp:Feuchte:Taupunkt:
Aussen-T/F 1601 24-02-2019 13:20:00 9.9 C 42 % -2.39 C
1602 24-02-2019 13:25:00 10.3 C 45 % -1.1 C
1603 24-02-2019 13:30:00 10.6 C 44 % -1.13 C
1604 24-02-2019 13:35:00 10.9 C 44 % -0.86 C
1605 24-02-2019 13:40:00 11.2 C 40 % -1.88 C
1606 24-02-2019 13:45:00 11.4 C 40 % -1.7 C
1607 24-02-2019 13:50:00 11.7 C 40 % -1.43 C
1608 24-02-2019 13:55:00 11.9 C 37 % -2.31 C
1609 24-02-2019 14:00:00 11.9 C 35 % -3.05 C
1610 24-02-2019 14:05:00 11.9 C 36 % -2.68 C
1611 24-02-2019 14:10:00 11.9 C 36 % -2.68 C
1612 24-02-2019 14:15:00 11.9 C 36 % -2.68 C
1613 24-02-2019 14:20:00 11.9 C 38 % -1.95 C
1614 24-02-2019 14:25:00 11.8 C 37 % -2.4 C
1615 24-02-2019 14:30:00 11.8 C 37 % -2.4 C
1616 24-02-2019 14:35:00 11.8 C 38 % -2.04 C
1617 24-02-2019 14:40:00 11.8 C 40 % -1.34 C
1618 24-02-2019 14:45:00 11.9 C 36 % -2.68 C
1619 24-02-2019 14:50:00 12 C 35 % -2.97 C
1620 24-02-2019 14:55:00 12.1 C 34 % -3.27 C
1621 24-02-2019 15:00:00 12.2 C 36 % -2.41 C
1622 24-02-2019 15:05:00 12.3 C 35 % -2.7 C
1623 24-02-2019 15:10:00 12.4 C 35 % -2.61 C
1624 24-02-2019 15:15:00 12.4 C 35 % -2.61 C
1625 24-02-2019 15:20:00 12.5 C 34 % -2.91 C
Sensor: Nr:Datum:Temp:Feuchte:Taupunkt:
Aussen-T/F 1626 24-02-2019 15:25:00 12.6 C 36 % -2.06 C
1627 24-02-2019 15:30:00 12.6 C 39 % -0.97 C
1628 24-02-2019 15:35:00 12.6 C 44 % 0.69 C
1629 24-02-2019 15:40:00 12.4 C 42 % -0.14 C
1630 24-02-2019 15:45:00 12.4 C 44 % 0.5 C
1631 24-02-2019 15:50:00 12.3 C 44 % 0.41 C
1632 24-02-2019 15:55:00 12.3 C 44 % 0.41 C
1633 24-02-2019 16:00:00 12.3 C 45 % 0.72 C
1634 24-02-2019 16:05:00 12.2 C 46 % 0.94 C
1635 24-02-2019 16:10:00 12.3 C 41 % -0.56 C
1636 24-02-2019 16:15:00 12.4 C 44 % 0.5 C
1637 24-02-2019 16:20:00 12.3 C 45 % 0.72 C
1638 24-02-2019 16:25:00 12.2 C 44 % 0.32 C
1639 24-02-2019 16:30:00 11.9 C 46 % 0.66 C
1640 24-02-2019 16:35:00 11.6 C 47 % 0.69 C
1641 24-02-2019 16:40:00 11.3 C 48 % 0.7 C
1642 24-02-2019 16:45:00 11.2 C 50 % 1.18 C
1643 24-02-2019 16:50:00 11.1 C 51 % 1.36 C
1644 24-02-2019 16:55:00 10.9 C 51 % 1.17 C
1645 24-02-2019 17:00:00 10.8 C 52 % 1.35 C
1646 24-02-2019 17:05:00 10.7 C 52 % 1.26 C
1647 24-02-2019 17:10:00 10.7 C 52 % 1.26 C
1648 24-02-2019 17:15:00 10.5 C 52 % 1.07 C
1649 24-02-2019 17:20:00 10.4 C 52 % 0.98 C
1650 24-02-2019 17:25:00 10.3 C 52 % 0.89 C
Sensor: Nr:Datum:Temp:Feuchte:Taupunkt:
Aussen-T/F 1651 24-02-2019 17:30:00 10.3 C 52 % 0.89 C
1652 24-02-2019 17:35:00 10.3 C 52 % 0.89 C
1653 24-02-2019 17:40:00 10.2 C 53 % 1.06 C
1654 24-02-2019 17:45:00 10 C 53 % 0.87 C
1655 24-02-2019 17:50:00 9.8 C 53 % 0.69 C
1656 24-02-2019 17:55:00 9.6 C 54 % 0.76 C
1657 24-02-2019 18:00:00 9.3 C 55 % 0.74 C
1658 24-02-2019 18:05:00 9.1 C 56 % 0.8 C
1659 24-02-2019 18:10:00 8.8 C 56 % 0.52 C
1660 24-02-2019 18:15:00 8.7 C 56 % 0.43 C
1661 24-02-2019 18:20:00 8.6 C 56 % 0.33 C
1662 24-02-2019 18:25:00 8.4 C 56 % 0.15 C
1663 24-02-2019 18:30:00 8.4 C 57 % 0.39 C
1664 24-02-2019 18:35:00 8.3 C 56 % 0.05 C
1665 24-02-2019 18:40:00 8.2 C 57 % 0.2 C
1666 24-02-2019 18:45:00 8 C 58 % 0.25 C
1667 24-02-2019 18:50:00 7.8 C 59 % 0.3 C
1668 24-02-2019 18:55:00 7.7 C 58 % -0.03 C
1669 24-02-2019 19:00:00 7.6 C 59 % 0.11 C
1670 24-02-2019 19:05:00 7.4 C 59 % -0.07 C
1671 24-02-2019 19:10:00 7.2 C 60 % -0.03 C
1672 24-02-2019 19:15:00 7.2 C 60 % -0.03 C
1673 24-02-2019 19:20:00 7.1 C 59 % -0.36 C
1674 24-02-2019 19:25:00 7 C 62 % 0.23 C
1675 24-02-2019 19:30:00 6.8 C 61 % -0.18 C
Sensor: Nr:Datum:Temp:Feuchte:Taupunkt:
Aussen-T/F 1676 24-02-2019 19:35:00 6.7 C 61 % -0.28 C
1677 24-02-2019 19:40:00 6.6 C 62 % -0.15 C
1678 24-02-2019 19:45:00 6.4 C 62 % -0.34 C
1679 24-02-2019 19:50:00 6.3 C 64 % 0 C
1680 24-02-2019 19:55:00 6.1 C 64 % -0.19 C
1681 24-02-2019 20:00:00 5.9 C 62 % -0.81 C
1682 24-02-2019 20:05:00 5.8 C 65 % -0.26 C
1683 24-02-2019 20:10:00 5.7 C 64 % -0.56 C
1684 24-02-2019 20:15:00 5.5 C 64 % -0.75 C
1685 24-02-2019 20:20:00 5.2 C 65 % -0.83 C
1686 24-02-2019 20:25:00 4.9 C 67 % -0.7 C
1687 24-02-2019 20:30:00 4.6 C 69 % -0.58 C
1688 24-02-2019 20:35:00 4.4 C 68 % -0.98 C
1689 24-02-2019 20:40:00 4.3 C 67 % -1.27 C
1690 24-02-2019 20:45:00 4.4 C 68 % -0.98 C
1691 24-02-2019 20:50:00 4.3 C 68 % -1.07 C
1692 24-02-2019 20:55:00 4.2 C 70 % -0.77 C
1693 24-02-2019 21:00:00 4.1 C 71 % -0.67 C
1694 24-02-2019 21:05:00 3.9 C 70 % -1.06 C
1695 24-02-2019 21:10:00 3.8 C 71 % -0.96 C
1696 24-02-2019 21:15:00 3.7 C 71 % -1.06 C
1697 24-02-2019 21:20:00 3.7 C 71 % -1.06 C
1698 24-02-2019 21:25:00 3.5 C 72 % -1.06 C
1699 24-02-2019 21:30:00 3.3 C 71 % -1.44 C
1700 24-02-2019 21:35:00 3.1 C 72 % -1.45 C
Sensor: Nr:Datum:Temp:Feuchte:Taupunkt:
Aussen-T/F 1701 24-02-2019 21:40:00 2.9 C 73 % -1.45 C
1702 24-02-2019 21:45:00 2.8 C 73 % -1.55 C
1703 24-02-2019 21:50:00 2.8 C 72 % -1.73 C
1704 24-02-2019 21:55:00 2.8 C 71 % -1.92 C
1705 24-02-2019 22:00:00 2.8 C 71 % -1.92 C
1706 24-02-2019 22:05:00 2.8 C 74 % -1.36 C
1707 24-02-2019 22:10:00 2.6 C 76 % -1.19 C
1708 24-02-2019 22:15:00 2.5 C 77 % -1.11 C
1709 24-02-2019 22:20:00 2.4 C 76 % -1.39 C
1710 24-02-2019 22:25:00 2.4 C 76 % -1.39 C
1711 24-02-2019 22:30:00 2.4 C 74 % -1.75 C
1712 24-02-2019 22:35:00 2.5 C 74 % -1.65 C
1713 24-02-2019 22:40:00 2.6 C 74 % -1.56 C
1714 24-02-2019 22:45:00 2.6 C 74 % -1.56 C
1715 24-02-2019 22:50:00 2.5 C 74 % -1.65 C
1716 24-02-2019 22:55:00 2.4 C 74 % -1.75 C
1717 24-02-2019 23:00:00 2.2 C 75 % -1.76 C
1718 24-02-2019 23:05:00 2.1 C 76 % -1.68 C
1719 24-02-2019 23:10:00 1.9 C 77 % -1.69 C
1720 24-02-2019 23:15:00 1.7 C 78 % -1.71 C
1721 24-02-2019 23:20:00 1.6 C 79 % -1.64 C
1722 24-02-2019 23:25:00 1.5 C 79 % -1.74 C
1723 24-02-2019 23:30:00 1.6 C 78 % -1.81 C
1724 24-02-2019 23:35:00 1.7 C 77 % -1.89 C
1725 24-02-2019 23:40:00 1.8 C 77 % -1.79 C
Sensor: Nr:Datum:Temp:Feuchte:Taupunkt:
Aussen-T/F 1726 24-02-2019 23:45:00 1.8 C 77 % -1.79 C
1727 24-02-2019 23:50:00 1.9 C 77 % -1.69 C
1728 24-02-2019 23:55:00 2 C 76 % -1.77 C
1729 25-02-2019 00:00:00 1.8 C 76 % -1.97 C
1730 25-02-2019 00:05:00 1.8 C 77 % -1.79 C
1731 25-02-2019 00:10:00 1.7 C 77 % -1.89 C
1732 25-02-2019 00:15:00 1.4 C 77 % -2.18 C
1733 25-02-2019 00:20:00 1.3 C 78 % -2.1 C
1734 25-02-2019 00:25:00 1.2 C 79 % -2.03 C
1735 25-02-2019 00:30:00 1.1 C 80 % -1.96 C
1736 25-02-2019 00:35:00 0.9 C 80 % -2.15 C
1737 25-02-2019 00:40:00 0.8 C 80 % -2.25 C
1738 25-02-2019 00:45:00 0.7 C 81 % -2.18 C
1739 25-02-2019 00:50:00 0.7 C 81 % -2.18 C
1740 25-02-2019 00:55:00 0.7 C 81 % -2.18 C
1741 25-02-2019 01:00:00 1 C 81 % -1.88 C
1742 25-02-2019 01:05:00 1.2 C 80 % -1.86 C
1743 25-02-2019 01:10:00 1.3 C 80 % -1.76 C
1744 25-02-2019 01:15:00 1.1 C 80 % -1.96 C
1745 25-02-2019 01:20:00 0.9 C 81 % -1.98 C
1746 25-02-2019 01:25:00 0.9 C 81 % -1.98 C
1747 25-02-2019 01:30:00 0.9 C 81 % -1.98 C
1748 25-02-2019 01:35:00 1 C 81 % -1.88 C
1749 25-02-2019 01:40:00 0.9 C 81 % -1.98 C
1750 25-02-2019 01:45:00 0.7 C 81 % -2.18 C
Sensor: Nr:Datum:Temp:Feuchte:Taupunkt:
Aussen-T/F 1751 25-02-2019 01:50:00 0.6 C 82 % -2.11 C
1752 25-02-2019 01:55:00 0.6 C 83 % -1.95 C
1753 25-02-2019 02:00:00 0.7 C 83 % -1.85 C
1754 25-02-2019 02:05:00 0.6 C 82 % -2.11 C
1755 25-02-2019 02:10:00 0.4 C 82 % -2.3 C
1756 25-02-2019 02:15:00 0.3 C 83 % -2.24 C
1757 25-02-2019 02:20:00 0.2 C 83 % -2.34 C
1758 25-02-2019 02:25:00 0 C 83 % -2.53 C
1759 25-02-2019 02:30:00 -0.1 C 84 % -2.47 C
1760 25-02-2019 02:35:00 -0.1 C 84 % -2.47 C
1761 25-02-2019 02:40:00 -0.2 C 85 % -2.41 C
1762 25-02-2019 02:45:00 -0.2 C 85 % -2.41 C
1763 25-02-2019 02:50:00 -0.1 C 85 % -2.31 C
1764 25-02-2019 02:55:00 0.1 C 85 % -2.11 C
1765 25-02-2019 03:00:00 0.2 C 84 % -2.18 C
1766 25-02-2019 03:05:00 0.3 C 84 % -2.08 C
1767 25-02-2019 03:10:00 0.3 C 84 % -2.08 C
1768 25-02-2019 03:15:00 0.3 C 83 % -2.24 C
1769 25-02-2019 03:20:00 0.2 C 83 % -2.34 C
1770 25-02-2019 03:25:00 0.1 C 83 % -2.44 C
1771 25-02-2019 03:30:00 -0.1 C 83 % -2.63 C
1772 25-02-2019 03:35:00 -0.2 C 84 % -2.57 C
1773 25-02-2019 03:40:00 -0.2 C 85 % -2.41 C
1774 25-02-2019 03:45:00 -0.3 C 85 % -2.51 C
1775 25-02-2019 03:50:00 -0.3 C 85 % -2.51 C
Sensor: Nr:Datum:Temp:Feuchte:Taupunkt:
Aussen-T/F 1776 25-02-2019 03:55:00 -0.4 C 85 % -2.61 C
1777 25-02-2019 04:00:00 -0.5 C 85 % -2.71 C
1778 25-02-2019 04:05:00 -0.5 C 86 % -2.55 C
1779 25-02-2019 04:10:00 -0.5 C 86 % -2.55 C
1780 25-02-2019 04:15:00 -0.5 C 86 % -2.55 C
1781 25-02-2019 04:20:00 -0.6 C 86 % -2.65 C
1782 25-02-2019 04:25:00 -0.6 C 86 % -2.65 C
1783 25-02-2019 04:30:00 -0.6 C 86 % -2.65 C
1784 25-02-2019 04:35:00 -0.6 C 86 % -2.65 C
1785 25-02-2019 04:40:00 -0.6 C 86 % -2.65 C
1786 25-02-2019 04:45:00 -0.7 C 86 % -2.74 C
1787 25-02-2019 04:50:00 -0.7 C 87 % -2.59 C
1788 25-02-2019 04:55:00 -0.6 C 87 % -2.49 C
1789 25-02-2019 05:00:00 -0.6 C 87 % -2.49 C
1790 25-02-2019 05:05:00 -0.6 C 87 % -2.49 C
1791 25-02-2019 05:10:00 -0.6 C 87 % -2.49 C
1792 25-02-2019 05:15:00 -0.6 C 87 % -2.49 C
1793 25-02-2019 05:20:00 -0.7 C 87 % -2.59 C
1794 25-02-2019 05:25:00 -0.8 C 87 % -2.69 C
1795 25-02-2019 05:30:00 -0.8 C 87 % -2.69 C
1796 25-02-2019 05:35:00 -0.8 C 87 % -2.69 C
1797 25-02-2019 05:40:00 -0.9 C 87 % -2.79 C
1798 25-02-2019 05:45:00 -0.8 C 88 % -2.53 C
1799 25-02-2019 05:50:00 -0.7 C 88 % -2.44 C
1800 25-02-2019 05:55:00 -0.6 C 88 % -2.34 C
Sensor: Nr:Datum:Temp:Feuchte:Taupunkt:
Aussen-T/F 1801 25-02-2019 06:00:00 -0.6 C 88 % -2.34 C
1802 25-02-2019 06:05:00 -0.6 C 87 % -2.49 C
1803 25-02-2019 06:10:00 -0.7 C 87 % -2.59 C
1804 25-02-2019 06:15:00 -0.8 C 87 % -2.69 C
1805 25-02-2019 06:20:00 -0.8 C 88 % -2.53 C
1806 25-02-2019 06:25:00 -0.8 C 88 % -2.53 C
1807 25-02-2019 06:30:00 -0.9 C 88 % -2.63 C
1808 25-02-2019 06:35:00 -1 C 88 % -2.73 C
1809 25-02-2019 06:40:00 -1.1 C 88 % -2.83 C
1810 25-02-2019 06:45:00 -1.1 C 88 % -2.83 C
1811 25-02-2019 06:50:00 -1.1 C 89 % -2.68 C
1812 25-02-2019 06:55:00 -0.9 C 89 % -2.48 C
1813 25-02-2019 07:00:00 -0.9 C 88 % -2.63 C
1814 25-02-2019 07:05:00 -1 C 88 % -2.73 C
1815 25-02-2019 07:10:00 -1.1 C 88 % -2.83 C
1816 25-02-2019 07:15:00 -1.1 C 88 % -2.83 C
1817 25-02-2019 07:20:00 -1.2 C 88 % -2.93 C
1818 25-02-2019 07:25:00 -1.2 C 88 % -2.93 C
1819 25-02-2019 07:30:00 -1.3 C 88 % -3.03 C
1820 25-02-2019 07:35:00 -1.3 C 88 % -3.03 C
1821 25-02-2019 07:40:00 -1.3 C 88 % -3.03 C
1822 25-02-2019 07:45:00 -1.4 C 88 % -3.13 C
1823 25-02-2019 07:50:00 -1.4 C 89 % -2.97 C
1824 25-02-2019 07:55:00 -1.4 C 89 % -2.97 C
1825 25-02-2019 08:00:00 -1.4 C 89 % -2.97 C
Sensor: Nr:Datum:Temp:Feuchte:Taupunkt:
Aussen-T/F 1826 25-02-2019 08:05:00 -1.3 C 90 % -2.73 C
1827 25-02-2019 08:10:00 -1.2 C 90 % -2.63 C
1828 25-02-2019 08:15:00 -1.2 C 90 % -2.63 C
1829 25-02-2019 08:20:00 -1.2 C 89 % -2.78 C
1830 25-02-2019 08:25:00 -1.3 C 89 % -2.88 C
1831 25-02-2019 08:30:00 -1.2 C 90 % -2.63 C
1832 25-02-2019 08:35:00 -1.2 C 90 % -2.63 C
1833 25-02-2019 08:40:00 -1.1 C 90 % -2.53 C
1834 25-02-2019 08:45:00 -1.1 C 90 % -2.53 C
1835 25-02-2019 08:50:00 -1.1 C 90 % -2.53 C
1836 25-02-2019 08:55:00 -1.1 C 90 % -2.53 C
1837 25-02-2019 09:00:00 -0.9 C 90 % -2.33 C
1838 25-02-2019 09:05:00 -0.9 C 89 % -2.48 C
1839 25-02-2019 09:10:00 -0.9 C 89 % -2.48 C
1840 25-02-2019 09:15:00 -0.9 C 89 % -2.48 C
1841 25-02-2019 09:20:00 -0.8 C 89 % -2.38 C
1842 25-02-2019 09:25:00 -0.8 C 89 % -2.38 C
1843 25-02-2019 09:30:00 -0.7 C 89 % -2.28 C
1844 25-02-2019 09:35:00 -0.6 C 89 % -2.18 C
1845 25-02-2019 09:40:00 -0.6 C 89 % -2.18 C
1846 25-02-2019 09:45:00 -0.5 C 88 % -2.24 C
1847 25-02-2019 09:50:00 -0.4 C 88 % -2.14 C
1848 25-02-2019 09:55:00 -0.3 C 88 % -2.04 C
1849 25-02-2019 10:00:00 -0.3 C 88 % -2.04 C
1850 25-02-2019 10:05:00 -0.2 C 88 % -1.94 C
Sensor: Nr:Datum:Temp:Feuchte:Taupunkt:
Aussen-T/F 1851 25-02-2019 10:10:00 0 C 88 % -1.74 C
1852 25-02-2019 10:15:00 0.1 C 87 % -1.8 C
1853 25-02-2019 10:20:00 0.3 C 87 % -1.6 C
1854 25-02-2019 10:25:00 0.5 C 87 % -1.41 C
1855 25-02-2019 10:30:00 0.7 C 88 % -1.05 C
1856 25-02-2019 10:35:00 1 C 87 % -0.91 C
1857 25-02-2019 10:40:00 1.3 C 87 % -0.62 C
1858 25-02-2019 10:45:00 1.7 C 87 % -0.23 C
1859 25-02-2019 10:50:00 2.1 C 86 % 0.01 C
1860 25-02-2019 10:55:00 2.6 C 85 % 0.34 C
1861 25-02-2019 11:00:00 2.9 C 82 % 0.14 C
1862 25-02-2019 11:05:00 3.3 C 81 % 0.36 C
1863 25-02-2019 11:10:00 3.7 C 82 % 0.92 C
1864 25-02-2019 11:15:00 3.9 C 79 % 0.6 C
1865 25-02-2019 11:20:00 4.3 C 78 % 0.81 C
1866 25-02-2019 11:25:00 4.6 C 77 % 0.92 C
1867 25-02-2019 11:30:00 4.9 C 78 % 1.39 C
1868 25-02-2019 11:35:00 5.1 C 77 % 1.41 C
1869 25-02-2019 11:40:00 5.4 C 77 % 1.7 C
1870 25-02-2019 11:45:00 5.8 C 76 % 1.91 C
1871 25-02-2019 11:50:00 6 C 74 % 1.73 C
1872 25-02-2019 11:55:00 6.2 C 72 % 1.54 C
1873 25-02-2019 12:00:00 6.5 C 72 % 1.83 C
1874 25-02-2019 12:05:00 6.8 C 72 % 2.12 C
1875 25-02-2019 12:10:00 7.3 C 71 % 2.4 C
Sensor: Nr:Datum:Temp:Feuchte:Taupunkt:
Aussen-T/F 1876 25-02-2019 12:15:00 7.7 C 70 % 2.58 C
1877 25-02-2019 12:20:00 8.1 C 69 % 2.77 C
1878 25-02-2019 12:25:00 8.4 C 69 % 3.05 C
1879 25-02-2019 12:30:00 8.9 C 68 % 3.32 C
1880 25-02-2019 12:35:00 9.5 C 66 % 3.47 C
1881 25-02-2019 12:40:00 9.9 C 64 % 3.42 C
1882 25-02-2019 12:45:00 10.3 C 62 % 3.35 C
1883 25-02-2019 12:50:00 10.5 C 62 % 3.54 C
1884 25-02-2019 12:55:00 10.6 C 61 % 3.4 C
1885 25-02-2019 13:00:00 10.7 C 61 % 3.5 C
1886 25-02-2019 13:05:00 11 C 62 % 4.01 C
1887 25-02-2019 13:10:00 11.3 C 60 % 3.83 C
1888 25-02-2019 13:15:00 11.6 C 53 % 2.36 C
1889 25-02-2019 13:20:00 11.9 C 54 % 2.9 C
1890 25-02-2019 13:25:00 12.3 C 47 % 1.33 C
1891 25-02-2019 13:30:00 12.7 C 51 % 2.84 C
1892 25-02-2019 13:35:00 13.1 C 50 % 2.93 C
1893 25-02-2019 13:40:00 13.4 C 53 % 4.03 C
1894 25-02-2019 13:45:00 13.8 C 51 % 3.85 C
1895 25-02-2019 13:50:00 14.2 C 50 % 3.94 C
1896 25-02-2019 13:55:00 14.6 C 48 % 3.73 C
1897 25-02-2019 14:00:00 14.8 C 49 % 4.2 C
1898 25-02-2019 14:05:00 14.9 C 48 % 4 C
1899 25-02-2019 14:10:00 15 C 49 % 4.39 C
1900 25-02-2019 14:15:00 15.1 C 48 % 4.18 C
Sensor: Nr:Datum:Temp:Feuchte:Taupunkt:
Aussen-T/F 1901 25-02-2019 14:20:00 15 C 45 % 3.18 C
1902 25-02-2019 14:25:00 14.9 C 45 % 3.09 C
1903 25-02-2019 14:30:00 14.7 C 46 % 3.22 C
1904 25-02-2019 14:35:00 14.6 C 46 % 3.12 C
1905 25-02-2019 14:40:00 14.4 C 44 % 2.32 C
1906 25-02-2019 14:45:00 14.4 C 46 % 2.94 C
1907 25-02-2019 14:50:00 14.5 C 46 % 3.03 C
1908 25-02-2019 14:55:00 14.6 C 48 % 3.73 C
1909 25-02-2019 15:00:00 14.5 C 48 % 3.63 C
1910 25-02-2019 15:05:00 14.5 C 46 % 3.03 C
1911 25-02-2019 15:10:00 14.5 C 47 % 3.34 C
1912 25-02-2019 15:15:00 14.4 C 50 % 4.12 C
1913 25-02-2019 15:20:00 14.4 C 47 % 3.25 C
1914 25-02-2019 15:25:00 14.3 C 49 % 3.74 C
1915 25-02-2019 15:30:00 14.2 C 50 % 3.94 C
1916 25-02-2019 15:35:00 14 C 51 % 4.04 C
1917 25-02-2019 15:40:00 13.9 C 52 % 4.22 C
1918 25-02-2019 15:45:00 13.8 C 52 % 4.13 C
1919 25-02-2019 15:50:00 13.8 C 52 % 4.13 C
1920 25-02-2019 15:55:00 13.8 C 51 % 3.85 C
1921 25-02-2019 16:00:00 13.9 C 51 % 3.94 C
1922 25-02-2019 16:05:00 13.9 C 51 % 3.94 C
1923 25-02-2019 16:10:00 14.1 C 51 % 4.13 C
1924 25-02-2019 16:15:00 14.1 C 46 % 2.67 C
1925 25-02-2019 16:20:00 14.3 C 51 % 4.31 C
Sensor: Nr:Datum:Temp:Feuchte:Taupunkt:
Aussen-T/F 1926 25-02-2019 16:25:00 14.5 C 48 % 3.63 C
1927 25-02-2019 16:30:00 14.7 C 50 % 4.4 C
1928 25-02-2019 16:35:00 14.7 C 50 % 4.4 C
1929 25-02-2019 16:40:00 14.6 C 48 % 3.73 C
1930 25-02-2019 16:45:00 14.6 C 49 % 4.02 C
1931 25-02-2019 16:50:00 14.6 C 50 % 4.31 C
1932 25-02-2019 16:55:00 14.5 C 50 % 4.21 C
1933 25-02-2019 17:00:00 14.4 C 51 % 4.4 C
1934 25-02-2019 17:05:00 14.2 C 51 % 4.22 C
1935 25-02-2019 17:10:00 14.1 C 52 % 4.4 C
1936 25-02-2019 17:15:00 13.9 C 52 % 4.22 C
1937 25-02-2019 17:20:00 13.7 C 53 % 4.31 C
1938 25-02-2019 17:25:00 13.6 C 53 % 4.21 C
1939 25-02-2019 17:30:00 13.6 C 54 % 4.48 C
1940 25-02-2019 17:35:00 13.6 C 53 % 4.21 C
1941 25-02-2019 17:40:00 13.4 C 53 % 4.03 C
1942 25-02-2019 17:45:00 13.3 C 54 % 4.2 C
1943 25-02-2019 17:50:00 13.1 C 54 % 4.01 C
1944 25-02-2019 17:55:00 12.8 C 55 % 4 C
1945 25-02-2019 18:00:00 12.6 C 56 % 4.07 C
1946 25-02-2019 18:05:00 12.2 C 56 % 3.69 C
1947 25-02-2019 18:10:00 11.8 C 58 % 3.82 C
1948 25-02-2019 18:15:00 11.4 C 58 % 3.44 C
1949 25-02-2019 18:20:00 11.2 C 59 % 3.5 C
1950 25-02-2019 18:25:00 11 C 60 % 3.55 C
Sensor: Nr:Datum:Temp:Feuchte:Taupunkt:
Aussen-T/F 1951 25-02-2019 18:30:00 10.8 C 60 % 3.36 C
1952 25-02-2019 18:35:00 10.7 C 61 % 3.5 C
1953 25-02-2019 18:40:00 10.6 C 62 % 3.63 C
1954 25-02-2019 18:45:00 10.4 C 62 % 3.44 C
1955 25-02-2019 18:50:00 10.3 C 63 % 3.58 C
1956 25-02-2019 18:55:00 10.2 C 63 % 3.48 C
1957 25-02-2019 19:00:00 10 C 63 % 3.29 C
1958 25-02-2019 19:05:00 9.8 C 64 % 3.32 C
1959 25-02-2019 19:10:00 9.6 C 65 % 3.35 C
1960 25-02-2019 19:15:00 9.4 C 66 % 3.38 C
1961 25-02-2019 19:20:00 9.2 C 67 % 3.4 C
1962 25-02-2019 19:25:00 8.9 C 68 % 3.32 C
1963 25-02-2019 19:30:00 8.8 C 68 % 3.23 C
1964 25-02-2019 19:35:00 8.8 C 68 % 3.23 C
1965 25-02-2019 19:40:00 8.8 C 68 % 3.23 C
1966 25-02-2019 19:45:00 8.7 C 68 % 3.13 C
1967 25-02-2019 19:50:00 8.6 C 68 % 3.04 C
1968 25-02-2019 19:55:00 8.3 C 69 % 2.96 C
1969 25-02-2019 20:00:00 8.1 C 70 % 2.97 C
1970 25-02-2019 20:05:00 8 C 71 % 3.07 C
1971 25-02-2019 20:10:00 7.8 C 71 % 2.88 C
1972 25-02-2019 20:15:00 7.4 C 72 % 2.69 C
1973 25-02-2019 20:20:00 7.1 C 72 % 2.4 C
1974 25-02-2019 20:25:00 6.9 C 73 % 2.4 C
1975 25-02-2019 20:30:00 6.8 C 74 % 2.5 C
Sensor: Nr:Datum:Temp:Feuchte:Taupunkt:
Aussen-T/F 1976 25-02-2019 20:35:00 6.8 C 75 % 2.69 C
1977 25-02-2019 20:40:00 6.6 C 74 % 2.31 C
1978 25-02-2019 20:45:00 6.4 C 74 % 2.11 C
1979 25-02-2019 20:50:00 6.3 C 74 % 2.02 C
1980 25-02-2019 20:55:00 6.3 C 75 % 2.2 C
1981 25-02-2019 21:00:00 6.3 C 75 % 2.2 C
1982 25-02-2019 21:05:00 6.1 C 75 % 2.01 C
1983 25-02-2019 21:10:00 5.9 C 75 % 1.82 C
1984 25-02-2019 21:15:00 5.9 C 75 % 1.82 C
1985 25-02-2019 21:20:00 5.8 C 75 % 1.72 C
1986 25-02-2019 21:25:00 5.6 C 76 % 1.71 C
1987 25-02-2019 21:30:00 5.4 C 77 % 1.7 C
1988 25-02-2019 21:35:00 5.3 C 77 % 1.6 C
1989 25-02-2019 21:40:00 5.2 C 78 % 1.69 C
1990 25-02-2019 21:45:00 5.2 C 78 % 1.69 C
1991 25-02-2019 21:50:00 5.1 C 79 % 1.77 C
1992 25-02-2019 21:55:00 5.1 C 79 % 1.77 C
1993 25-02-2019 22:00:00 5 C 79 % 1.67 C
1994 25-02-2019 22:05:00 5 C 78 % 1.49 C
1995 25-02-2019 22:10:00 4.9 C 78 % 1.39 C
1996 25-02-2019 22:15:00 4.8 C 79 % 1.47 C
1997 25-02-2019 22:20:00 4.8 C 79 % 1.47 C
1998 25-02-2019 22:25:00 4.7 C 79 % 1.38 C
1999 25-02-2019 22:30:00 4.5 C 79 % 1.18 C
2000 25-02-2019 22:35:00 4.4 C 80 % 1.26 C
Sensor: Nr:Datum:Temp:Feuchte:Taupunkt:
Aussen-T/F 2001 25-02-2019 22:40:00 4.2 C 80 % 1.07 C
2002 25-02-2019 22:45:00 4.2 C 80 % 1.07 C
2003 25-02-2019 22:50:00 4.1 C 80 % 0.97 C
2004 25-02-2019 22:55:00 4 C 82 % 1.21 C
2005 25-02-2019 23:00:00 3.9 C 82 % 1.12 C
2006 25-02-2019 23:05:00 3.8 C 83 % 1.19 C
2007 25-02-2019 23:10:00 3.8 C 83 % 1.19 C
2008 25-02-2019 23:15:00 3.7 C 82 % 0.92 C
2009 25-02-2019 23:20:00 3.4 C 82 % 0.63 C
2010 25-02-2019 23:25:00 3.2 C 83 % 0.6 C
2011 25-02-2019 23:30:00 3.1 C 84 % 0.67 C
2012 25-02-2019 23:35:00 3 C 84 % 0.57 C
2013 25-02-2019 23:40:00 2.8 C 84 % 0.37 C
2014 25-02-2019 23:45:00 2.7 C 85 % 0.44 C
2015 25-02-2019 23:50:00 2.8 C 86 % 0.7 C
2016 25-02-2019 23:55:00 2.8 C 85 % 0.54 C
2017 26-02-2019 00:00:00 2.7 C 85 % 0.44 C
2018 26-02-2019 00:05:00 2.8 C 86 % 0.7 C
2019 26-02-2019 00:10:00 2.7 C 85 % 0.44 C
2020 26-02-2019 00:15:00 2.6 C 86 % 0.5 C
2021 26-02-2019 00:20:00 2.6 C 86 % 0.5 C
2022 26-02-2019 00:25:00 2.6 C 86 % 0.5 C
2023 26-02-2019 00:30:00 2.6 C 87 % 0.66 C
2024 26-02-2019 00:35:00 2.5 C 86 % 0.4 C
2025 26-02-2019 00:40:00 2.3 C 85 % 0.04 C
Sensor: Nr:Datum:Temp:Feuchte:Taupunkt:
Aussen-T/F 2026 26-02-2019 00:45:00 2 C 86 % -0.09 C
2027 26-02-2019 00:50:00 1.9 C 87 % -0.03 C
2028 26-02-2019 00:55:00 1.8 C 88 % 0.03 C
2029 26-02-2019 01:00:00 1.8 C 89 % 0.19 C
2030 26-02-2019 01:05:00 1.9 C 89 % 0.28 C
2031 26-02-2019 01:10:00 1.9 C 89 % 0.28 C
2032 26-02-2019 01:15:00 1.9 C 88 % 0.13 C
2033 26-02-2019 01:20:00 1.8 C 89 % 0.19 C
2034 26-02-2019 01:25:00 1.9 C 89 % 0.28 C
2035 26-02-2019 01:30:00 1.9 C 89 % 0.28 C
2036 26-02-2019 01:35:00 2.1 C 90 % 0.64 C
2037 26-02-2019 01:40:00 2.2 C 89 % 0.58 C
2038 26-02-2019 01:45:00 2.1 C 88 % 0.33 C
2039 26-02-2019 01:50:00 1.9 C 88 % 0.13 C
2040 26-02-2019 01:55:00 1.8 C 88 % 0.03 C
2041 26-02-2019 02:00:00 1.6 C 89 % -0.01 C
2042 26-02-2019 02:05:00 1.6 C 89 % -0.01 C
2043 26-02-2019 02:10:00 1.7 C 90 % 0.24 C
2044 26-02-2019 02:15:00 1.7 C 90 % 0.24 C
2045 26-02-2019 02:20:00 1.6 C 89 % -0.01 C
2046 26-02-2019 02:25:00 1.4 C 89 % -0.21 C
2047 26-02-2019 02:30:00 1.3 C 89 % -0.31 C
2048 26-02-2019 02:35:00 1.3 C 90 % -0.15 C
2049 26-02-2019 02:40:00 1.2 C 90 % -0.25 C
2050 26-02-2019 02:45:00 1.3 C 91 % 0 C
Sensor: Nr:Datum:Temp:Feuchte:Taupunkt:
Aussen-T/F 2051 26-02-2019 02:50:00 1.1 C 90 % -0.35 C
2052 26-02-2019 02:55:00 0.9 C 89 % -0.7 C
2053 26-02-2019 03:00:00 0.7 C 90 % -0.75 C
2054 26-02-2019 03:05:00 0.6 C 90 % -0.85 C
2055 26-02-2019 03:10:00 0.5 C 90 % -0.95 C
2056 26-02-2019 03:15:00 0.4 C 91 % -0.89 C
2057 26-02-2019 03:20:00 0.5 C 91 % -0.79 C
2058 26-02-2019 03:25:00 0.5 C 91 % -0.79 C
2059 26-02-2019 03:30:00 0.6 C 92 % -0.55 C
2060 26-02-2019 03:35:00 0.8 C 92 % -0.35 C
2061 26-02-2019 03:40:00 0.8 C 92 % -0.35 C
2062 26-02-2019 03:45:00 0.7 C 91 % -0.6 C
2063 26-02-2019 03:50:00 0.7 C 92 % -0.45 C
2064 26-02-2019 03:55:00 0.8 C 92 % -0.35 C
2065 26-02-2019 04:00:00 0.7 C 92 % -0.45 C
2066 26-02-2019 04:05:00 0.4 C 91 % -0.89 C
2067 26-02-2019 04:10:00 0.3 C 92 % -0.84 C
2068 26-02-2019 04:15:00 0.3 C 92 % -0.84 C
2069 26-02-2019 04:20:00 0.4 C 92 % -0.74 C
2070 26-02-2019 04:25:00 0.4 C 92 % -0.74 C
2071 26-02-2019 04:30:00 0.4 C 92 % -0.74 C
2072 26-02-2019 04:35:00 0.3 C 92 % -0.84 C
2073 26-02-2019 04:40:00 0.2 C 92 % -0.94 C
2074 26-02-2019 04:45:00 0.1 C 92 % -1.04 C
2075 26-02-2019 04:50:00 0.2 C 93 % -0.79 C
Sensor: Nr:Datum:Temp:Feuchte:Taupunkt:
Aussen-T/F 2076 26-02-2019 04:55:00 0.2 C 93 % -0.79 C
2077 26-02-2019 05:00:00 0.2 C 93 % -0.79 C
2078 26-02-2019 05:05:00 0.1 C 93 % -0.89 C
2079 26-02-2019 05:10:00 0.1 C 93 % -0.89 C
2080 26-02-2019 05:15:00 0.1 C 93 % -0.89 C
2081 26-02-2019 05:20:00 0 C 93 % -0.99 C
2082 26-02-2019 05:25:00 0.1 C 93 % -0.89 C
2083 26-02-2019 05:30:00 0.2 C 93 % -0.79 C
2084 26-02-2019 05:35:00 0.3 C 93 % -0.7 C
2085 26-02-2019 05:40:00 0.4 C 94 % -0.45 C
2086 26-02-2019 05:45:00 0.4 C 93 % -0.6 C
2087 26-02-2019 05:50:00 0.4 C 93 % -0.6 C
2088 26-02-2019 05:55:00 0.3 C 93 % -0.7 C
2089 26-02-2019 06:00:00 0.2 C 92 % -0.94 C
2090 26-02-2019 06:05:00 -0.1 C 92 % -1.24 C
2091 26-02-2019 06:10:00 -0.2 C 92 % -1.34 C
2092 26-02-2019 06:15:00 -0.3 C 92 % -1.44 C
2093 26-02-2019 06:20:00 -0.3 C 93 % -1.29 C
2094 26-02-2019 06:25:00 -0.4 C 93 % -1.39 C
2095 26-02-2019 06:30:00 -0.4 C 93 % -1.39 C
2096 26-02-2019 06:35:00 -0.4 C 93 % -1.39 C
2097 26-02-2019 06:40:00 -0.4 C 93 % -1.39 C
2098 26-02-2019 06:45:00 -0.6 C 93 % -1.59 C
2099 26-02-2019 06:50:00 -0.5 C 93 % -1.49 C
2100 26-02-2019 06:55:00 -0.4 C 94 % -1.25 C
Sensor: Nr:Datum:Temp:Feuchte:Taupunkt:
Aussen-T/F 2101 26-02-2019 07:00:00 -0.2 C 94 % -1.05 C
2102 26-02-2019 07:05:00 -0.2 C 94 % -1.05 C
2103 26-02-2019 07:10:00 -0.2 C 94 % -1.05 C
2104 26-02-2019 07:15:00 -0.3 C 93 % -1.29 C
2105 26-02-2019 07:20:00 -0.4 C 93 % -1.39 C
2106 26-02-2019 07:25:00 -0.6 C 93 % -1.59 C
2107 26-02-2019 07:30:00 -0.8 C 93 % -1.79 C
2108 26-02-2019 07:35:00 -0.8 C 93 % -1.79 C
2109 26-02-2019 07:40:00 -0.8 C 94 % -1.64 C
2110 26-02-2019 07:45:00 -0.6 C 94 % -1.44 C
2111 26-02-2019 07:50:00 -0.5 C 94 % -1.34 C
2112 26-02-2019 07:55:00 -0.4 C 94 % -1.25 C
2113 26-02-2019 08:00:00 -0.4 C 94 % -1.25 C
2114 26-02-2019 08:05:00 -0.3 C 94 % -1.15 C
2115 26-02-2019 08:10:00 -0.3 C 94 % -1.15 C
2116 26-02-2019 08:15:00 -0.3 C 94 % -1.15 C
2117 26-02-2019 08:20:00 -0.3 C 94 % -1.15 C
2118 26-02-2019 08:25:00 -0.3 C 94 % -1.15 C
2119 26-02-2019 08:30:00 -0.2 C 94 % -1.05 C
2120 26-02-2019 08:35:00 -0.1 C 95 % -0.8 C
2121 26-02-2019 08:40:00 0 C 95 % -0.7 C
2122 26-02-2019 08:45:00 0.2 C 95 % -0.5 C
2123 26-02-2019 08:50:00 0.3 C 95 % -0.4 C
2124 26-02-2019 08:55:00 0.4 C 95 % -0.31 C
2125 26-02-2019 09:00:00 0.4 C 94 % -0.45 C
Sensor: Nr:Datum:Temp:Feuchte:Taupunkt:
Aussen-T/F 2126 26-02-2019 09:05:00 0.4 C 94 % -0.45 C
2127 26-02-2019 09:10:00 0.5 C 94 % -0.35 C
2128 26-02-2019 09:15:00 0.6 C 95 % -0.11 C
2129 26-02-2019 09:20:00 0.7 C 95 % -0.01 C
2130 26-02-2019 09:25:00 0.8 C 95 % 0.09 C
2131 26-02-2019 09:30:00 0.9 C 95 % 0.19 C
2132 26-02-2019 09:35:00 0.9 C 95 % 0.19 C
2133 26-02-2019 09:40:00 0.9 C 95 % 0.19 C
2134 26-02-2019 09:45:00 1.1 C 95 % 0.39 C
2135 26-02-2019 09:50:00 1.2 C 95 % 0.49 C
2136 26-02-2019 09:55:00 1.3 C 95 % 0.59 C
2137 26-02-2019 10:00:00 1.6 C 95 % 0.89 C
2138 26-02-2019 10:05:00 1.7 C 95 % 0.99 C
2139 26-02-2019 10:10:00 1.8 C 95 % 1.09 C
2140 26-02-2019 10:15:00 1.9 C 95 % 1.19 C
2141 26-02-2019 10:20:00 2.1 C 95 % 1.38 C
2142 26-02-2019 10:25:00 2.3 C 95 % 1.58 C
2143 26-02-2019 10:30:00 2.5 C 95 % 1.78 C
2144 26-02-2019 10:35:00 2.9 C 95 % 2.18 C
2145 26-02-2019 10:40:00 3.2 C 94 % 2.33 C
2146 26-02-2019 10:45:00 3.5 C 94 % 2.63 C
2147 26-02-2019 10:50:00 3.8 C 93 % 2.77 C
2148 26-02-2019 10:55:00 4 C 92 % 2.82 C
2149 26-02-2019 11:00:00 4.3 C 91 % 2.96 C
2150 26-02-2019 11:05:00 4.5 C 90 % 3.01 C
Sensor: Nr:Datum:Temp:Feuchte:Taupunkt:
Aussen-T/F 2151 26-02-2019 11:10:00 4.8 C 90 % 3.3 C
2152 26-02-2019 11:15:00 5.1 C 90 % 3.6 C
2153 26-02-2019 11:20:00 5.4 C 90 % 3.89 C
2154 26-02-2019 11:25:00 5.7 C 89 % 4.03 C
2155 26-02-2019 11:30:00 5.9 C 87 % 3.91 C
2156 26-02-2019 11:35:00 6.2 C 85 % 3.87 C
2157 26-02-2019 11:40:00 6.4 C 84 % 3.9 C
2158 26-02-2019 11:45:00 6.7 C 82 % 3.85 C
2159 26-02-2019 11:50:00 6.9 C 81 % 3.87 C
2160 26-02-2019 11:55:00 7.1 C 81 % 4.07 C
2161 26-02-2019 12:00:00 7.3 C 81 % 4.26 C
2162 26-02-2019 12:05:00 7.5 C 80 % 4.28 C
2163 26-02-2019 12:10:00 7.8 C 76 % 3.84 C
2164 26-02-2019 12:15:00 8.3 C 75 % 4.14 C
2165 26-02-2019 12:20:00 8.8 C 73 % 4.24 C
2166 26-02-2019 12:25:00 9.3 C 73 % 4.72 C
2167 26-02-2019 12:30:00 9.8 C 71 % 4.8 C
2168 26-02-2019 12:35:00 10.3 C 69 % 4.87 C
2169 26-02-2019 12:40:00 10.8 C 69 % 5.35 C
2170 26-02-2019 12:45:00 11.2 C 65 % 4.87 C
2171 26-02-2019 12:50:00 11.4 C 68 % 5.71 C
2172 26-02-2019 12:55:00 11.6 C 69 % 6.11 C
2173 26-02-2019 13:00:00 11.7 C 68 % 6 C
2174 26-02-2019 13:05:00 11.9 C 68 % 6.19 C
2175 26-02-2019 13:10:00 12.3 C 70 % 6.99 C
Sensor: Nr:Datum:Temp:Feuchte:Taupunkt:
Aussen-T/F 2176 26-02-2019 13:15:00 12.7 C 69 % 7.17 C
2177 26-02-2019 13:20:00 13.2 C 67 % 7.21 C
2178 26-02-2019 13:25:00 13.7 C 66 % 7.47 C
2179 26-02-2019 13:30:00 14.1 C 66 % 7.85 C
2180 26-02-2019 13:35:00 14.5 C 65 % 8.01 C
2181 26-02-2019 13:40:00 14.9 C 64 % 8.16 C
2182 26-02-2019 13:45:00 15.4 C 61 % 7.93 C
2183 26-02-2019 13:50:00 15.8 C 60 % 8.06 C
2184 26-02-2019 13:55:00 16.1 C 59 % 8.09 C
2185 26-02-2019 14:00:00 16.4 C 58 % 8.12 C
2186 26-02-2019 14:05:00 16.6 C 55 % 7.53 C
2187 26-02-2019 14:10:00 16.7 C 55 % 7.62 C
2188 26-02-2019 14:15:00 16.8 C 54 % 7.45 C
2189 26-02-2019 14:20:00 16.7 C 54 % 7.36 C
2190 26-02-2019 14:25:00 16.4 C 54 % 7.08 C
2191 26-02-2019 14:30:00 16.2 C 54 % 6.89 C
2192 26-02-2019 14:35:00 15.9 C 54 % 6.61 C
2193 26-02-2019 14:40:00 15.7 C 56 % 6.96 C
2194 26-02-2019 14:45:00 15.6 C 56 % 6.86 C
2195 26-02-2019 14:50:00 15.5 C 57 % 7.03 C
2196 26-02-2019 14:55:00 15.4 C 57 % 6.93 C
2197 26-02-2019 15:00:00 15.3 C 55 % 6.32 C
2198 26-02-2019 15:05:00 15.4 C 57 % 6.93 C
2199 26-02-2019 15:10:00 15.5 C 56 % 6.77 C
2200 26-02-2019 15:15:00 15.5 C 56 % 6.77 C
Sensor: Nr:Datum:Temp:Feuchte:Taupunkt:
Aussen-T/F 2201 26-02-2019 15:20:00 15.5 C 55 % 6.51 C
2202 26-02-2019 15:25:00 15.5 C 55 % 6.51 C
2203 26-02-2019 15:30:00 15.4 C 55 % 6.42 C
2204 26-02-2019 15:35:00 15.4 C 54 % 6.15 C
2205 26-02-2019 15:40:00 15.6 C 55 % 6.6 C
2206 26-02-2019 15:45:00 15.6 C 55 % 6.6 C
2207 26-02-2019 15:50:00 15.6 C 55 % 6.6 C
2208 26-02-2019 15:55:00 15.6 C 55 % 6.6 C
2209 26-02-2019 16:00:00 15.6 C 54 % 6.34 C
2210 26-02-2019 16:05:00 15.7 C 54 % 6.43 C
2211 26-02-2019 16:10:00 15.7 C 54 % 6.43 C
2212 26-02-2019 16:15:00 15.7 C 54 % 6.43 C
2213 26-02-2019 16:20:00 15.7 C 55 % 6.69 C
2214 26-02-2019 16:25:00 15.6 C 54 % 6.34 C
2215 26-02-2019 16:30:00 15.5 C 55 % 6.51 C
2216 26-02-2019 16:35:00 15.4 C 56 % 6.68 C
2217 26-02-2019 16:40:00 15.2 C 57 % 6.75 C
2218 26-02-2019 16:45:00 15.1 C 57 % 6.65 C
2219 26-02-2019 16:50:00 15.1 C 58 % 6.91 C
2220 26-02-2019 16:55:00 15 C 58 % 6.81 C
2221 26-02-2019 17:00:00 14.9 C 58 % 6.72 C
2222 26-02-2019 17:05:00 14.9 C 58 % 6.72 C
2223 26-02-2019 17:10:00 14.9 C 58 % 6.72 C
2224 26-02-2019 17:15:00 14.8 C 59 % 6.87 C
2225 26-02-2019 17:20:00 14.8 C 59 % 6.87 C
Sensor: Nr:Datum:Temp:Feuchte:Taupunkt:
Aussen-T/F 2226 26-02-2019 17:25:00 14.9 C 59 % 6.97 C
2227 26-02-2019 17:30:00 14.9 C 58 % 6.72 C
2228 26-02-2019 17:35:00 14.8 C 58 % 6.63 C
2229 26-02-2019 17:40:00 14.8 C 58 % 6.63 C
2230 26-02-2019 17:45:00 14.7 C 59 % 6.78 C
2231 26-02-2019 17:50:00 14.5 C 59 % 6.59 C
2232 26-02-2019 17:55:00 14.2 C 59 % 6.31 C
2233 26-02-2019 18:00:00 13.9 C 60 % 6.27 C
2234 26-02-2019 18:05:00 13.6 C 61 % 6.23 C
2235 26-02-2019 18:10:00 13.3 C 61 % 5.95 C
2236 26-02-2019 18:15:00 13 C 62 % 5.9 C
2237 26-02-2019 18:20:00 12.8 C 63 % 5.94 C
2238 26-02-2019 18:25:00 12.6 C 64 % 5.98 C
2239 26-02-2019 18:30:00 12.3 C 64 % 5.69 C
2240 26-02-2019 18:35:00 12.2 C 64 % 5.6 C
2241 26-02-2019 18:40:00 12.1 C 65 % 5.73 C
2242 26-02-2019 18:45:00 11.9 C 66 % 5.76 C
2243 26-02-2019 18:50:00 11.7 C 66 % 5.57 C
2244 26-02-2019 18:55:00 11.4 C 67 % 5.5 C
2245 26-02-2019 19:00:00 11.3 C 68 % 5.62 C
2246 26-02-2019 19:05:00 11.1 C 68 % 5.43 C
2247 26-02-2019 19:10:00 10.8 C 69 % 5.35 C
2248 26-02-2019 19:15:00 10.7 C 70 % 5.46 C
2249 26-02-2019 19:20:00 10.6 C 71 % 5.57 C
2250 26-02-2019 19:25:00 10.4 C 71 % 5.38 C
Sensor: Nr:Datum:Temp:Feuchte:Taupunkt:
Aussen-T/F 2251 26-02-2019 19:30:00 10.4 C 72 % 5.58 C
2252 26-02-2019 19:35:00 10.3 C 72 % 5.48 C
2253 26-02-2019 19:40:00 10.1 C 72 % 5.29 C
2254 26-02-2019 19:45:00 9.7 C 73 % 5.1 C
2255 26-02-2019 19:50:00 9.4 C 75 % 5.2 C
2256 26-02-2019 19:55:00 9.3 C 75 % 5.1 C
2257 26-02-2019 20:00:00 9.2 C 74 % 4.81 C
2258 26-02-2019 20:05:00 8.8 C 74 % 4.43 C
2259 26-02-2019 20:10:00 8.6 C 75 % 4.43 C
2260 26-02-2019 20:15:00 8.5 C 76 % 4.52 C
2261 26-02-2019 20:20:00 8.4 C 77 % 4.61 C
2262 26-02-2019 20:25:00 8.1 C 77 % 4.32 C
2263 26-02-2019 20:30:00 7.9 C 77 % 4.12 C
2264 26-02-2019 20:35:00 7.9 C 77 % 4.12 C
2265 26-02-2019 20:40:00 7.9 C 77 % 4.12 C
2266 26-02-2019 20:45:00 7.8 C 77 % 4.03 C
2267 26-02-2019 20:50:00 7.7 C 77 % 3.93 C
2268 26-02-2019 20:55:00 7.4 C 78 % 3.82 C
2269 26-02-2019 21:00:00 7.3 C 79 % 3.91 C
2270 26-02-2019 21:05:00 7.2 C 79 % 3.81 C
2271 26-02-2019 21:10:00 7 C 79 % 3.61 C
2272 26-02-2019 21:15:00 6.9 C 80 % 3.7 C
2273 26-02-2019 21:20:00 6.7 C 81 % 3.68 C
2274 26-02-2019 21:25:00 6.8 C 83 % 4.12 C
2275 26-02-2019 21:30:00 6.8 C 82 % 3.95 C
Sensor: Nr:Datum:Temp:Feuchte:Taupunkt:
Aussen-T/F 2276 26-02-2019 21:35:00 6.8 C 81 % 3.77 C
2277 26-02-2019 21:40:00 6.7 C 81 % 3.68 C
2278 26-02-2019 21:45:00 6.6 C 82 % 3.75 C
2279 26-02-2019 21:50:00 6.4 C 82 % 3.56 C
2280 26-02-2019 21:55:00 6.4 C 82 % 3.56 C
2281 26-02-2019 22:00:00 6.3 C 82 % 3.46 C
2282 26-02-2019 22:05:00 6.2 C 83 % 3.53 C
2283 26-02-2019 22:10:00 6.2 C 83 % 3.53 C
2284 26-02-2019 22:15:00 6.2 C 82 % 3.36 C
2285 26-02-2019 22:20:00 5.9 C 82 % 3.07 C
2286 26-02-2019 22:25:00 5.7 C 83 % 3.04 C
2287 26-02-2019 22:30:00 5.6 C 84 % 3.12 C
2288 26-02-2019 22:35:00 5.4 C 84 % 2.92 C
2289 26-02-2019 22:40:00 5.2 C 84 % 2.72 C
2290 26-02-2019 22:45:00 4.9 C 85 % 2.6 C
2291 26-02-2019 22:50:00 4.9 C 86 % 2.76 C
2292 26-02-2019 22:55:00 4.9 C 87 % 2.92 C
2293 26-02-2019 23:00:00 4.8 C 85 % 2.5 C
2294 26-02-2019 23:05:00 4.7 C 86 % 2.56 C
2295 26-02-2019 23:10:00 4.7 C 87 % 2.73 C
2296 26-02-2019 23:15:00 4.8 C 88 % 2.99 C
2297 26-02-2019 23:20:00 4.8 C 87 % 2.82 C
2298 26-02-2019 23:25:00 4.8 C 87 % 2.82 C
2299 26-02-2019 23:30:00 4.6 C 86 % 2.47 C
2300 26-02-2019 23:35:00 4.4 C 86 % 2.27 C
Sensor: Nr:Datum:Temp:Feuchte:Taupunkt:
Aussen-T/F 2301 26-02-2019 23:40:00 4.3 C 87 % 2.33 C
2302 26-02-2019 23:45:00 4.3 C 88 % 2.49 C
2303 26-02-2019 23:50:00 4.3 C 89 % 2.65 C
2304 26-02-2019 23:55:00 4.3 C 88 % 2.49 C
2305 27-02-2019 00:00:00 4.1 C 88 % 2.3 C
2306 27-02-2019 00:05:00 4 C 88 % 2.2 C
2307 27-02-2019 00:10:00 3.8 C 89 % 2.16 C
2308 27-02-2019 00:15:00 3.6 C 88 % 1.8 C
2309 27-02-2019 00:20:00 3.6 C 89 % 1.96 C
2310 27-02-2019 00:25:00 3.6 C 90 % 2.12 C
2311 27-02-2019 00:30:00 3.6 C 90 % 2.12 C
2312 27-02-2019 00:35:00 3.5 C 90 % 2.02 C
2313 27-02-2019 00:40:00 3.3 C 89 % 1.67 C
2314 27-02-2019 00:45:00 3.1 C 89 % 1.47 C
2315 27-02-2019 00:50:00 3.2 C 91 % 1.88 C
2316 27-02-2019 00:55:00 3.3 C 91 % 1.98 C
2317 27-02-2019 01:00:00 3.2 C 90 % 1.72 C
2318 27-02-2019 01:05:00 3 C 90 % 1.52 C
2319 27-02-2019 01:10:00 2.9 C 90 % 1.43 C
2320 27-02-2019 01:15:00 2.8 C 91 % 1.48 C
2321 27-02-2019 01:20:00 2.8 C 91 % 1.48 C
2322 27-02-2019 01:25:00 2.9 C 92 % 1.73 C
2323 27-02-2019 01:30:00 3 C 92 % 1.83 C
2324 27-02-2019 01:35:00 2.9 C 91 % 1.58 C
2325 27-02-2019 01:40:00 2.8 C 91 % 1.48 C
Sensor: Nr:Datum:Temp:Feuchte:Taupunkt:
Aussen-T/F 2326 27-02-2019 01:45:00 2.7 C 92 % 1.53 C
2327 27-02-2019 01:50:00 2.7 C 92 % 1.53 C
2328 27-02-2019 01:55:00 2.5 C 91 % 1.18 C
2329 27-02-2019 02:00:00 2.3 C 91 % 0.99 C
2330 27-02-2019 02:05:00 2.3 C 91 % 0.99 C
2331 27-02-2019 02:10:00 2.2 C 92 % 1.04 C
2332 27-02-2019 02:15:00 2.2 C 92 % 1.04 C
2333 27-02-2019 02:20:00 2 C 92 % 0.84 C
2334 27-02-2019 02:25:00 2.1 C 93 % 1.09 C
2335 27-02-2019 02:30:00 2.3 C 93 % 1.29 C
2336 27-02-2019 02:35:00 2.6 C 94 % 1.73 C
2337 27-02-2019 02:40:00 2.6 C 94 % 1.73 C
2338 27-02-2019 02:45:00 2.4 C 92 % 1.24 C
2339 27-02-2019 02:50:00 2.1 C 92 % 0.94 C
2340 27-02-2019 02:55:00 1.9 C 92 % 0.74 C
2341 27-02-2019 03:00:00 1.9 C 93 % 0.89 C
2342 27-02-2019 03:05:00 1.9 C 93 % 0.89 C
2343 27-02-2019 03:10:00 1.9 C 93 % 0.89 C
2344 27-02-2019 03:15:00 1.7 C 92 % 0.54 C
2345 27-02-2019 03:20:00 1.6 C 93 % 0.59 C
2346 27-02-2019 03:25:00 1.5 C 93 % 0.49 C
2347 27-02-2019 03:30:00 1.3 C 93 % 0.3 C
2348 27-02-2019 03:35:00 1.2 C 93 % 0.2 C
2349 27-02-2019 03:40:00 1.3 C 94 % 0.44 C
2350 27-02-2019 03:45:00 1.3 C 93 % 0.3 C
Sensor: Nr:Datum:Temp:Feuchte:Taupunkt:
Aussen-T/F 2351 27-02-2019 03:50:00 1 C 93 % 0 C
2352 27-02-2019 03:55:00 0.9 C 93 % -0.1 C
2353 27-02-2019 04:00:00 1 C 94 % 0.15 C
2354 27-02-2019 04:05:00 0.9 C 93 % -0.1 C
2355 27-02-2019 04:10:00 0.9 C 94 % 0.05 C
2356 27-02-2019 04:15:00 1 C 94 % 0.15 C
2357 27-02-2019 04:20:00 0.9 C 94 % 0.05 C
2358 27-02-2019 04:25:00 0.8 C 93 % -0.2 C
2359 27-02-2019 04:30:00 0.7 C 94 % -0.15 C
2360 27-02-2019 04:35:00 0.7 C 94 % -0.15 C
2361 27-02-2019 04:40:00 0.7 C 94 % -0.15 C
2362 27-02-2019 04:45:00 0.6 C 94 % -0.25 C
2363 27-02-2019 04:50:00 0.6 C 94 % -0.25 C
2364 27-02-2019 04:55:00 0.6 C 94 % -0.25 C
2365 27-02-2019 05:00:00 0.7 C 94 % -0.15 C
2366 27-02-2019 05:05:00 0.7 C 94 % -0.15 C
2367 27-02-2019 05:10:00 0.6 C 94 % -0.25 C
2368 27-02-2019 05:15:00 0.6 C 95 % -0.11 C
2369 27-02-2019 05:20:00 0.6 C 95 % -0.11 C
2370 27-02-2019 05:25:00 0.6 C 95 % -0.11 C
2371 27-02-2019 05:30:00 0.5 C 94 % -0.35 C
2372 27-02-2019 05:35:00 0.4 C 94 % -0.45 C
2373 27-02-2019 05:40:00 0.4 C 94 % -0.45 C
2374 27-02-2019 05:45:00 0.4 C 95 % -0.31 C
2375 27-02-2019 05:50:00 0.3 C 95 % -0.4 C
Sensor: Nr:Datum:Temp:Feuchte:Taupunkt:
Aussen-T/F 2376 27-02-2019 05:55:00 0.2 C 94 % -0.65 C
2377 27-02-2019 06:00:00 0.2 C 94 % -0.65 C
2378 27-02-2019 06:05:00 0.2 C 95 % -0.5 C
2379 27-02-2019 06:10:00 0.2 C 95 % -0.5 C
2380 27-02-2019 06:15:00 0.1 C 95 % -0.6 C
2381 27-02-2019 06:20:00 0 C 95 % -0.7 C
2382 27-02-2019 06:25:00 0.1 C 95 % -0.6 C
2383 27-02-2019 06:30:00 0.2 C 95 % -0.5 C
2384 27-02-2019 06:35:00 0.3 C 95 % -0.4 C
2385 27-02-2019 06:40:00 0.3 C 95 % -0.4 C
2386 27-02-2019 06:45:00 0.1 C 95 % -0.6 C
2387 27-02-2019 06:50:00 -0.1 C 95 % -0.8 C
2388 27-02-2019 06:55:00 -0.1 C 95 % -0.8 C
2389 27-02-2019 07:00:00 -0.2 C 95 % -0.9 C
2390 27-02-2019 07:05:00 -0.2 C 95 % -0.9 C
2391 27-02-2019 07:10:00 -0.2 C 95 % -0.9 C
2392 27-02-2019 07:15:00 -0.2 C 95 % -0.9 C
2393 27-02-2019 07:20:00 -0.3 C 95 % -1 C
2394 27-02-2019 07:25:00 -0.4 C 95 % -1.1 C
2395 27-02-2019 07:30:00 -0.6 C 95 % -1.3 C
2396 27-02-2019 07:35:00 -0.6 C 95 % -1.3 C
2397 27-02-2019 07:40:00 -0.6 C 95 % -1.3 C
2398 27-02-2019 07:45:00 -0.4 C 95 % -1.1 C
2399 27-02-2019 07:50:00 -0.4 C 95 % -1.1 C
2400 27-02-2019 07:55:00 -0.4 C 95 % -1.1 C
Sensor: Nr:Datum:Temp:Feuchte:Taupunkt:
Aussen-T/F 2401 27-02-2019 08:00:00 -0.4 C 95 % -1.1 C
2402 27-02-2019 08:05:00 -0.4 C 95 % -1.1 C
2403 27-02-2019 08:10:00 -0.4 C 95 % -1.1 C
2404 27-02-2019 08:15:00 -0.4 C 95 % -1.1 C
2405 27-02-2019 08:20:00 -0.4 C 95 % -1.1 C
2406 27-02-2019 08:25:00 -0.4 C 95 % -1.1 C
2407 27-02-2019 08:30:00 -0.3 C 96 % -0.86 C
2408 27-02-2019 08:35:00 -0.2 C 96 % -0.76 C
2409 27-02-2019 08:40:00 -0.2 C 96 % -0.76 C
2410 27-02-2019 08:45:00 -0.1 C 96 % -0.66 C
2411 27-02-2019 08:50:00 0 C 96 % -0.56 C
2412 27-02-2019 08:55:00 0.1 C 96 % -0.46 C
2413 27-02-2019 09:00:00 0.1 C 96 % -0.46 C
2414 27-02-2019 09:05:00 0.2 C 96 % -0.36 C
2415 27-02-2019 09:10:00 0.2 C 96 % -0.36 C
2416 27-02-2019 09:15:00 0.2 C 96 % -0.36 C
2417 27-02-2019 09:20:00 0.2 C 96 % -0.36 C
2418 27-02-2019 09:25:00 0.3 C 96 % -0.26 C
2419 27-02-2019 09:30:00 0.3 C 96 % -0.26 C
2420 27-02-2019 09:35:00 0.4 C 96 % -0.16 C
2421 27-02-2019 09:40:00 0.6 C 96 % 0.04 C
2422 27-02-2019 09:45:00 0.7 C 96 % 0.14 C
2423 27-02-2019 09:50:00 0.8 C 96 % 0.24 C
2424 27-02-2019 09:55:00 1 C 96 % 0.44 C
2425 27-02-2019 10:00:00 1.2 C 96 % 0.63 C
Sensor: Nr:Datum:Temp:Feuchte:Taupunkt:
Aussen-T/F 2426 27-02-2019 10:05:00 1.3 C 96 % 0.73 C
2427 27-02-2019 10:10:00 1.4 C 96 % 0.83 C
2428 27-02-2019 10:15:00 1.6 C 97 % 1.18 C
2429 27-02-2019 10:20:00 1.7 C 96 % 1.13 C
2430 27-02-2019 10:25:00 2 C 97 % 1.58 C
2431 27-02-2019 10:30:00 2.4 C 97 % 1.97 C
2432 27-02-2019 10:35:00 2.8 C 97 % 2.37 C
2433 27-02-2019 10:40:00 3.2 C 97 % 2.77 C
2434 27-02-2019 10:45:00 3.4 C 97 % 2.97 C
2435 27-02-2019 10:50:00 3.7 C 97 % 3.27 C
2436 27-02-2019 10:55:00 4.1 C 97 % 3.67 C
2437 27-02-2019 11:00:00 4.3 C 97 % 3.87 C
2438 27-02-2019 11:05:00 4.5 C 97 % 4.07 C
2439 27-02-2019 11:10:00 4.7 C 97 % 4.27 C
2440 27-02-2019 11:15:00 5 C 97 % 4.56 C
2441 27-02-2019 11:20:00 5.2 C 97 % 4.76 C
2442 27-02-2019 11:25:00 5.4 C 97 % 4.96 C
2443 27-02-2019 11:30:00 5.7 C 96 % 5.11 C
2444 27-02-2019 11:35:00 5.8 C 95 % 5.06 C
2445 27-02-2019 11:40:00 6 C 94 % 5.11 C
2446 27-02-2019 11:45:00 6.2 C 93 % 5.15 C
2447 27-02-2019 11:50:00 6.5 C 91 % 5.14 C
2448 27-02-2019 11:55:00 6.7 C 90 % 5.18 C
2449 27-02-2019 12:00:00 7 C 89 % 5.31 C
2450 27-02-2019 12:05:00 7.4 C 90 % 5.87 C
Sensor: Nr:Datum:Temp:Feuchte:Taupunkt:
Aussen-T/F 2451 27-02-2019 12:10:00 7.8 C 88 % 5.94 C
2452 27-02-2019 12:15:00 8.4 C 89 % 6.7 C
2453 27-02-2019 12:20:00 9.1 C 87 % 7.05 C
2454 27-02-2019 12:25:00 9.6 C 85 % 7.21 C
2455 27-02-2019 12:30:00 10.2 C 83 % 7.45 C
2456 27-02-2019 12:35:00 10.8 C 81 % 7.67 C
2457 27-02-2019 12:40:00 11.3 C 80 % 7.98 C
2458 27-02-2019 12:45:00 11.7 C 74 % 7.23 C
2459 27-02-2019 12:50:00 11.8 C 74 % 7.32 C
2460 27-02-2019 12:55:00 12 C 73 % 7.32 C
2461 27-02-2019 13:00:00 12.4 C 73 % 7.7 C
2462 27-02-2019 13:05:00 12.7 C 73 % 7.99 C
2463 27-02-2019 13:10:00 13.1 C 72 % 8.17 C
2464 27-02-2019 13:15:00 13.5 C 72 % 8.56 C
2465 27-02-2019 13:20:00 14.1 C 68 % 8.29 C
2466 27-02-2019 13:25:00 14.6 C 67 % 8.55 C
2467 27-02-2019 13:30:00 15.1 C 65 % 8.58 C
2468 27-02-2019 13:35:00 15.4 C 63 % 8.4 C
2469 27-02-2019 13:40:00 15.8 C 62 % 8.54 C
2470 27-02-2019 13:45:00 16.2 C 59 % 8.19 C
2471 27-02-2019 13:50:00 16.4 C 58 % 8.12 C
2472 27-02-2019 13:55:00 17 C 56 % 8.17 C
2473 27-02-2019 14:00:00 17.6 C 54 % 8.19 C
2474 27-02-2019 14:05:00 17.8 C 53 % 8.1 C
2475 27-02-2019 14:10:00 17.9 C 53 % 8.19 C
Sensor: Nr:Datum:Temp:Feuchte:Taupunkt:
Aussen-T/F 2476 27-02-2019 14:15:00 17.9 C 52 % 7.91 C
2477 27-02-2019 14:20:00 17.8 C 52 % 7.82 C
2478 27-02-2019 14:25:00 17.5 C 52 % 7.54 C
2479 27-02-2019 14:30:00 17.1 C 51 % 6.89 C
2480 27-02-2019 14:35:00 16.8 C 51 % 6.62 C
2481 27-02-2019 14:40:00 16.6 C 52 % 6.71 C
2482 27-02-2019 14:45:00 16.5 C 50 % 6.05 C
2483 27-02-2019 14:50:00 16.4 C 53 % 6.81 C
2484 27-02-2019 14:55:00 16.4 C 53 % 6.81 C
2485 27-02-2019 15:00:00 16.3 C 53 % 6.71 C
2486 27-02-2019 15:05:00 16.3 C 51 % 6.16 C
2487 27-02-2019 15:10:00 16.2 C 51 % 6.06 C
2488 27-02-2019 15:15:00 16.2 C 52 % 6.34 C
2489 27-02-2019 15:20:00 16.1 C 51 % 5.97 C
2490 27-02-2019 15:25:00 16 C 51 % 5.88 C
2491 27-02-2019 15:30:00 15.9 C 51 % 5.79 C
2492 27-02-2019 15:35:00 15.9 C 52 % 6.07 C
2493 27-02-2019 15:40:00 16 C 52 % 6.16 C
2494 27-02-2019 15:45:00 16.1 C 51 % 5.97 C
2495 27-02-2019 15:50:00 16.1 C 51 % 5.97 C
2496 27-02-2019 15:55:00 16.2 C 51 % 6.06 C
2497 27-02-2019 16:00:00 16.3 C 51 % 6.16 C
2498 27-02-2019 16:05:00 16.3 C 50 % 5.87 C
2499 27-02-2019 16:10:00 16.4 C 50 % 5.96 C
2500 27-02-2019 16:15:00 16.5 C 50 % 6.05 C
Sensor: Nr:Datum:Temp:Feuchte:Taupunkt:
Aussen-T/F 2501 27-02-2019 16:20:00 16.5 C 51 % 6.34 C
2502 27-02-2019 16:25:00 16.4 C 49 % 5.67 C
2503 27-02-2019 16:30:00 16.3 C 50 % 5.87 C
2504 27-02-2019 16:35:00 16.2 C 50 % 5.78 C
2505 27-02-2019 16:40:00 16.2 C 51 % 6.06 C
2506 27-02-2019 16:45:00 16.1 C 51 % 5.97 C
2507 27-02-2019 16:50:00 16 C 52 % 6.16 C
2508 27-02-2019 16:55:00 15.8 C 52 % 5.97 C
2509 27-02-2019 17:00:00 15.8 C 52 % 5.97 C
2510 27-02-2019 17:05:00 15.8 C 52 % 5.97 C
2511 27-02-2019 17:10:00 15.8 C 53 % 6.25 C
2512 27-02-2019 17:15:00 15.7 C 52 % 5.88 C
2513 27-02-2019 17:20:00 15.7 C 52 % 5.88 C
2514 27-02-2019 17:25:00 15.7 C 51 % 5.6 C
2515 27-02-2019 17:30:00 15.8 C 51 % 5.69 C
2516 27-02-2019 17:35:00 15.8 C 50 % 5.41 C
2517 27-02-2019 17:40:00 15.8 C 50 % 5.41 C
2518 27-02-2019 17:45:00 15.8 C 50 % 5.41 C
2519 27-02-2019 17:50:00 15.6 C 50 % 5.23 C
2520 27-02-2019 17:55:00 15.3 C 49 % 4.66 C
2521 27-02-2019 18:00:00 15 C 51 % 4.96 C
2522 27-02-2019 18:05:00 14.6 C 52 % 4.87 C
2523 27-02-2019 18:10:00 14.3 C 54 % 5.13 C
2524 27-02-2019 18:15:00 13.9 C 52 % 4.22 C
2525 27-02-2019 18:20:00 13.8 C 55 % 4.93 C
Sensor: Nr:Datum:Temp:Feuchte:Taupunkt:
Aussen-T/F 2526 27-02-2019 18:25:00 13.6 C 54 % 4.48 C
2527 27-02-2019 18:30:00 13.5 C 55 % 4.65 C
2528 27-02-2019 18:35:00 13.3 C 56 % 4.72 C
2529 27-02-2019 18:40:00 13 C 56 % 4.44 C
2530 27-02-2019 18:45:00 12.8 C 57 % 4.5 C
2531 27-02-2019 18:50:00 12.6 C 58 % 4.57 C
2532 27-02-2019 18:55:00 12.3 C 58 % 4.28 C
2533 27-02-2019 19:00:00 12.2 C 59 % 4.43 C
2534 27-02-2019 19:05:00 11.9 C 59 % 4.15 C
2535 27-02-2019 19:10:00 11.7 C 60 % 4.2 C
2536 27-02-2019 19:15:00 11.5 C 61 % 4.25 C
2537 27-02-2019 19:20:00 11.3 C 62 % 4.29 C
2538 27-02-2019 19:25:00 11.1 C 64 % 4.56 C
2539 27-02-2019 19:30:00 10.8 C 65 % 4.49 C
2540 27-02-2019 19:35:00 10.5 C 66 % 4.43 C
2541 27-02-2019 19:40:00 10.2 C 67 % 4.36 C
2542 27-02-2019 19:45:00 10 C 67 % 4.16 C
2543 27-02-2019 19:50:00 9.8 C 68 % 4.18 C
2544 27-02-2019 19:55:00 9.7 C 69 % 4.3 C
2545 27-02-2019 20:00:00 9.5 C 70 % 4.31 C
2546 27-02-2019 20:05:00 9.4 C 69 % 4.01 C
2547 27-02-2019 20:10:00 9.3 C 70 % 4.12 C
2548 27-02-2019 20:15:00 9.1 C 69 % 3.72 C
2549 27-02-2019 20:20:00 9.1 C 70 % 3.93 C
2550 27-02-2019 20:25:00 8.8 C 70 % 3.64 C
Sensor: Nr:Datum:Temp:Feuchte:Taupunkt:
Aussen-T/F 2551 27-02-2019 20:30:00 8.7 C 70 % 3.54 C
2552 27-02-2019 20:35:00 8.6 C 70 % 3.45 C
2553 27-02-2019 20:40:00 8.3 C 71 % 3.36 C
2554 27-02-2019 20:45:00 8.1 C 72 % 3.37 C
2555 27-02-2019 20:50:00 7.8 C 72 % 3.08 C
2556 27-02-2019 20:55:00 7.7 C 72 % 2.98 C
2557 27-02-2019 21:00:00 7.4 C 73 % 2.89 C
2558 27-02-2019 21:05:00 7.3 C 74 % 2.98 C
2559 27-02-2019 21:10:00 7.3 C 73 % 2.79 C
2560 27-02-2019 21:15:00 7.2 C 74 % 2.89 C
2561 27-02-2019 21:20:00 7.1 C 76 % 3.16 C
2562 27-02-2019 21:25:00 6.9 C 76 % 2.97 C
2563 27-02-2019 21:30:00 6.8 C 76 % 2.87 C
2564 27-02-2019 21:35:00 6.5 C 77 % 2.77 C
2565 27-02-2019 21:40:00 6.4 C 78 % 2.85 C
2566 27-02-2019 21:45:00 6.4 C 77 % 2.67 C
2567 27-02-2019 21:50:00 6.3 C 77 % 2.57 C
2568 27-02-2019 21:55:00 6 C 78 % 2.46 C
2569 27-02-2019 22:00:00 5.8 C 80 % 2.62 C
2570 27-02-2019 22:05:00 5.8 C 81 % 2.8 C
2571 27-02-2019 22:10:00 5.9 C 80 % 2.72 C
2572 27-02-2019 22:15:00 5.8 C 79 % 2.45 C
2573 27-02-2019 22:20:00 5.7 C 80 % 2.53 C
2574 27-02-2019 22:25:00 5.6 C 80 % 2.43 C
2575 27-02-2019 22:30:00 5.5 C 81 % 2.51 C
Sensor: Nr:Datum:Temp:Feuchte:Taupunkt:
Aussen-T/F 2576 27-02-2019 22:35:00 5.4 C 81 % 2.41 C
2577 27-02-2019 22:40:00 5.3 C 81 % 2.31 C
2578 27-02-2019 22:45:00 5.3 C 81 % 2.31 C
2579 27-02-2019 22:50:00 5.3 C 81 % 2.31 C
2580 27-02-2019 22:55:00 5.2 C 81 % 2.21 C
2581 27-02-2019 23:00:00 5.2 C 81 % 2.21 C
2582 27-02-2019 23:05:00 5.2 C 81 % 2.21 C
2583 27-02-2019 23:10:00 5.1 C 82 % 2.29 C
2584 27-02-2019 23:15:00 5.1 C 81 % 2.12 C
2585 27-02-2019 23:20:00 5.1 C 82 % 2.29 C
2586 27-02-2019 23:25:00 4.9 C 82 % 2.09 C
2587 27-02-2019 23:30:00 4.7 C 82 % 1.9 C
2588 27-02-2019 23:35:00 4.6 C 83 % 1.97 C
2589 27-02-2019 23:40:00 4.5 C 84 % 2.04 C
2590 27-02-2019 23:45:00 4.5 C 85 % 2.2 C
2591 27-02-2019 23:50:00 4.5 C 84 % 2.04 C
2592 27-02-2019 23:55:00 4.6 C 84 % 2.14 C
2593 28-02-2019 00:00:00 4.5 C 84 % 2.04 C
2594 28-02-2019 00:05:00 4.6 C 85 % 2.3 C
2595 28-02-2019 00:10:00 4.7 C 85 % 2.4 C
2596 28-02-2019 00:15:00 4.8 C 85 % 2.5 C
2597 28-02-2019 00:20:00 5.1 C 85 % 2.79 C
2598 28-02-2019 00:25:00 5.4 C 84 % 2.92 C
2599 28-02-2019 00:30:00 5.6 C 83 % 2.95 C
2600 28-02-2019 00:35:00 5.7 C 82 % 2.87 C
Sensor: Nr:Datum:Temp:Feuchte:Taupunkt:
Aussen-T/F 2601 28-02-2019 00:40:00 5.8 C 82 % 2.97 C
2602 28-02-2019 00:45:00 5.9 C 81 % 2.9 C
2603 28-02-2019 00:50:00 6 C 80 % 2.82 C
2604 28-02-2019 00:55:00 6.1 C 80 % 2.92 C
2605 28-02-2019 01:00:00 6.1 C 80 % 2.92 C
2606 28-02-2019 01:05:00 5.9 C 79 % 2.54 C
2607 28-02-2019 01:10:00 5.8 C 79 % 2.45 C
2608 28-02-2019 01:15:00 5.4 C 79 % 2.06 C
2609 28-02-2019 01:20:00 5.2 C 81 % 2.21 C
2610 28-02-2019 01:25:00 5 C 81 % 2.02 C
2611 28-02-2019 01:30:00 4.7 C 82 % 1.9 C
2612 28-02-2019 01:35:00 4.5 C 83 % 1.87 C
2613 28-02-2019 01:40:00 4.3 C 83 % 1.67 C
2614 28-02-2019 01:45:00 4.1 C 84 % 1.65 C
2615 28-02-2019 01:50:00 4.1 C 85 % 1.81 C
2616 28-02-2019 01:55:00 4.1 C 86 % 1.97 C
2617 28-02-2019 02:00:00 4.1 C 86 % 1.97 C
2618 28-02-2019 02:05:00 4.1 C 86 % 1.97 C
2619 28-02-2019 02:10:00 4.2 C 86 % 2.07 C
2620 28-02-2019 02:15:00 4.1 C 85 % 1.81 C
2621 28-02-2019 02:20:00 3.8 C 85 % 1.52 C
2622 28-02-2019 02:25:00 3.6 C 86 % 1.48 C
2623 28-02-2019 02:30:00 3.4 C 86 % 1.29 C
2624 28-02-2019 02:35:00 3.3 C 87 % 1.35 C
2625 28-02-2019 02:40:00 3.3 C 88 % 1.51 C
Sensor: Nr:Datum:Temp:Feuchte:Taupunkt:
Aussen-T/F 2626 28-02-2019 02:45:00 3.4 C 89 % 1.76 C
2627 28-02-2019 02:50:00 3.4 C 89 % 1.76 C
2628 28-02-2019 02:55:00 3.4 C 88 % 1.61 C
2629 28-02-2019 03:00:00 3.3 C 88 % 1.51 C
2630 28-02-2019 03:05:00 3.1 C 87 % 1.15 C
2631 28-02-2019 03:10:00 2.9 C 88 % 1.11 C
2632 28-02-2019 03:15:00 2.9 C 89 % 1.27 C
2633 28-02-2019 03:20:00 2.8 C 89 % 1.17 C
2634 28-02-2019 03:25:00 2.8 C 90 % 1.33 C
2635 28-02-2019 03:30:00 2.9 C 90 % 1.43 C
2636 28-02-2019 03:35:00 3 C 90 % 1.52 C
2637 28-02-2019 03:40:00 3.1 C 90 % 1.62 C
2638 28-02-2019 03:45:00 3 C 89 % 1.37 C
2639 28-02-2019 03:50:00 2.8 C 89 % 1.17 C
2640 28-02-2019 03:55:00 2.7 C 89 % 1.07 C
2641 28-02-2019 04:00:00 2.6 C 89 % 0.97 C
2642 28-02-2019 04:05:00 2.4 C 89 % 0.78 C
2643 28-02-2019 04:10:00 2.2 C 88 % 0.42 C
2644 28-02-2019 04:15:00 2 C 89 % 0.38 C
2645 28-02-2019 04:20:00 1.9 C 90 % 0.44 C
2646 28-02-2019 04:25:00 2.1 C 91 % 0.79 C
2647 28-02-2019 04:30:00 2.3 C 92 % 1.14 C
2648 28-02-2019 04:35:00 2.3 C 91 % 0.99 C
2649 28-02-2019 04:40:00 2.3 C 91 % 0.99 C
2650 28-02-2019 04:45:00 2.3 C 91 % 0.99 C
Sensor: Nr:Datum:Temp:Feuchte:Taupunkt:
Aussen-T/F 2651 28-02-2019 04:50:00 2.4 C 92 % 1.24 C
2652 28-02-2019 04:55:00 2.5 C 91 % 1.18 C
2653 28-02-2019 05:00:00 2.6 C 91 % 1.28 C
2654 28-02-2019 05:05:00 2.5 C 91 % 1.18 C
2655 28-02-2019 05:10:00 2.5 C 91 % 1.18 C
2656 28-02-2019 05:15:00 2.4 C 90 % 0.93 C
2657 28-02-2019 05:20:00 2.3 C 91 % 0.99 C
2658 28-02-2019 05:25:00 2.3 C 91 % 0.99 C
2659 28-02-2019 05:30:00 2.3 C 91 % 0.99 C
2660 28-02-2019 05:35:00 2.3 C 91 % 0.99 C
2661 28-02-2019 05:40:00 2.3 C 91 % 0.99 C
2662 28-02-2019 05:45:00 2.3 C 91 % 0.99 C
2663 28-02-2019 05:50:00 2.2 C 91 % 0.89 C
2664 28-02-2019 05:55:00 2.3 C 92 % 1.14 C
2665 28-02-2019 06:00:00 2.5 C 92 % 1.34 C
2666 28-02-2019 06:05:00 2.7 C 92 % 1.53 C
2667 28-02-2019 06:10:00 2.7 C 92 % 1.53 C
2668 28-02-2019 06:15:00 2.7 C 91 % 1.38 C
2669 28-02-2019 06:20:00 2.6 C 91 % 1.28 C
2670 28-02-2019 06:25:00 2.7 C 91 % 1.38 C
2671 28-02-2019 06:30:00 2.9 C 92 % 1.73 C
2672 28-02-2019 06:35:00 3.4 C 92 % 2.23 C
2673 28-02-2019 06:40:00 3.8 C 90 % 2.31 C
2674 28-02-2019 06:45:00 4.2 C 88 % 2.39 C
2675 28-02-2019 06:50:00 4.2 C 87 % 2.23 C
Sensor: Nr:Datum:Temp:Feuchte:Taupunkt:
Aussen-T/F 2676 28-02-2019 06:55:00 4.2 C 87 % 2.23 C
2677 28-02-2019 07:00:00 4.2 C 87 % 2.23 C
2678 28-02-2019 07:05:00 4.2 C 86 % 2.07 C
2679 28-02-2019 07:10:00 4.1 C 86 % 1.97 C
2680 28-02-2019 07:15:00 3.9 C 86 % 1.78 C
2681 28-02-2019 07:20:00 3.9 C 87 % 1.94 C
2682 28-02-2019 07:25:00 3.8 C 87 % 1.84 C
2683 28-02-2019 07:30:00 3.8 C 87 % 1.84 C
2684 28-02-2019 07:35:00 3.7 C 87 % 1.74 C
2685 28-02-2019 07:40:00 3.6 C 88 % 1.8 C
2686 28-02-2019 07:45:00 3.4 C 87 % 1.45 C
2687 28-02-2019 07:50:00 3.3 C 87 % 1.35 C
2688 28-02-2019 07:55:00 3.1 C 87 % 1.15 C
2689 28-02-2019 08:00:00 2.9 C 88 % 1.11 C
2690 28-02-2019 08:05:00 2.7 C 88 % 0.92 C
2691 28-02-2019 08:10:00 2.7 C 88 % 0.92 C
2692 28-02-2019 08:15:00 2.6 C 89 % 0.97 C
2693 28-02-2019 08:20:00 2.7 C 90 % 1.23 C
2694 28-02-2019 08:25:00 2.8 C 90 % 1.33 C
2695 28-02-2019 08:30:00 2.9 C 91 % 1.58 C
2696 28-02-2019 08:35:00 3.1 C 91 % 1.78 C
2697 28-02-2019 08:40:00 3.3 C 91 % 1.98 C
2698 28-02-2019 08:45:00 3.6 C 92 % 2.42 C
2699 28-02-2019 08:50:00 3.7 C 91 % 2.37 C
2700 28-02-2019 08:55:00 3.9 C 91 % 2.57 C
Sensor: Nr:Datum:Temp:Feuchte:Taupunkt:
Aussen-T/F 2701 28-02-2019 09:00:00 4.1 C 91 % 2.77 C
2702 28-02-2019 09:05:00 4.2 C 90 % 2.71 C
2703 28-02-2019 09:10:00 4.3 C 90 % 2.81 C
2704 28-02-2019 09:15:00 4.4 C 89 % 2.75 C
2705 28-02-2019 09:20:00 4.5 C 89 % 2.85 C
2706 28-02-2019 09:25:00 4.6 C 89 % 2.95 C
2707 28-02-2019 09:30:00 4.7 C 89 % 3.05 C
2708 28-02-2019 09:35:00 4.8 C 88 % 2.99 C
2709 28-02-2019 09:40:00 4.9 C 88 % 3.08 C
2710 28-02-2019 09:45:00 5.1 C 88 % 3.28 C
2711 28-02-2019 09:50:00 5.2 C 88 % 3.38 C
2712 28-02-2019 09:55:00 5.4 C 89 % 3.74 C
2713 28-02-2019 10:00:00 5.6 C 89 % 3.93 C
2714 28-02-2019 10:05:00 5.8 C 89 % 4.13 C
2715 28-02-2019 10:10:00 6.3 C 88 % 4.46 C
2716 28-02-2019 10:15:00 6.7 C 88 % 4.86 C
2717 28-02-2019 10:20:00 7.1 C 86 % 4.92 C
2718 28-02-2019 10:25:00 7.5 C 85 % 5.15 C
2719 28-02-2019 10:30:00 7.9 C 84 % 5.37 C
2720 28-02-2019 10:35:00 8.4 C 83 % 5.69 C
2721 28-02-2019 10:40:00 8.7 C 82 % 5.8 C
2722 28-02-2019 10:45:00 9 C 81 % 5.92 C
2723 28-02-2019 10:50:00 9.3 C 80 % 6.03 C
2724 28-02-2019 10:55:00 9.6 C 79 % 6.14 C
2725 28-02-2019 11:00:00 9.9 C 78 % 6.25 C
Sensor: Nr:Datum:Temp:Feuchte:Taupunkt:
Aussen-T/F 2726 28-02-2019 11:05:00 10.2 C 77 % 6.35 C
2727 28-02-2019 11:10:00 10.6 C 76 % 6.55 C
2728 28-02-2019 11:15:00 10.9 C 75 % 6.65 C
2729 28-02-2019 11:20:00 11.3 C 73 % 6.64 C
2730 28-02-2019 11:25:00 11.7 C 72 % 6.83 C
2731 28-02-2019 11:30:00 11.9 C 71 % 6.82 C
2732 28-02-2019 11:35:00 12.2 C 70 % 6.9 C
2733 28-02-2019 11:40:00 12.4 C 69 % 6.88 C
2734 28-02-2019 11:45:00 12.5 C 69 % 6.97 C
2735 28-02-2019 11:50:00 12.6 C 69 % 7.07 C
2736 28-02-2019 11:55:00 12.6 C 69 % 7.07 C
2737 28-02-2019 12:00:00 12.7 C 68 % 6.95 C
2738 28-02-2019 12:05:00 12.8 C 69 % 7.26 C
2739 28-02-2019 12:10:00 12.8 C 68 % 7.05 C
2740 28-02-2019 12:15:00 12.9 C 68 % 7.14 C
2741 28-02-2019 12:20:00 13 C 68 % 7.24 C
2742 28-02-2019 12:25:00 13.1 C 67 % 7.12 C
2743 28-02-2019 12:30:00 13.2 C 67 % 7.21 C
2744 28-02-2019 12:35:00 13.4 C 68 % 7.62 C
2745 28-02-2019 12:40:00 13.7 C 66 % 7.47 C
2746 28-02-2019 12:45:00 13.8 C 66 % 7.57 C
2747 28-02-2019 12:50:00 13.9 C 66 % 7.66 C
2748 28-02-2019 12:55:00 13.9 C 66 % 7.66 C
2749 28-02-2019 13:00:00 14.1 C 66 % 7.85 C
2750 28-02-2019 13:05:00 14.2 C 65 % 7.72 C
Sensor: Nr:Datum:Temp:Feuchte:Taupunkt:
Aussen-T/F 2751 28-02-2019 13:10:00 14.3 C 66 % 8.04 C
2752 28-02-2019 13:15:00 14.5 C 64 % 7.78 C
2753 28-02-2019 13:20:00 14.7 C 65 % 8.2 C
2754 28-02-2019 13:25:00 14.9 C 63 % 7.93 C
2755 28-02-2019 13:30:00 15.1 C 64 % 8.35 C
2756 28-02-2019 13:35:00 15.2 C 63 % 8.21 C
2757 28-02-2019 13:40:00 15.4 C 62 % 8.16 C
2758 28-02-2019 13:45:00 15.6 C 62 % 8.35 C
2759 28-02-2019 13:50:00 15.7 C 61 % 8.21 C
2760 28-02-2019 13:55:00 15.8 C 61 % 8.3 C
2761 28-02-2019 14:00:00 16 C 62 % 8.73 C
2762 28-02-2019 14:05:00 16.2 C 61 % 8.68 C
2763 28-02-2019 14:10:00 16.3 C 61 % 8.77 C
2764 28-02-2019 14:15:00 16.4 C 61 % 8.87 C
2765 28-02-2019 14:20:00 16.4 C 61 % 8.87 C
2766 28-02-2019 14:25:00 16.5 C 61 % 8.96 C
2767 28-02-2019 14:30:00 16.6 C 61 % 9.06 C
2768 28-02-2019 14:35:00 16.7 C 61 % 9.15 C
2769 28-02-2019 14:40:00 16.8 C 61 % 9.24 C
2770 28-02-2019 14:45:00 17.1 C 60 % 9.28 C
2771 28-02-2019 14:50:00 17.2 C 60 % 9.37 C
2772 28-02-2019 14:55:00 17.2 C 60 % 9.37 C
2773 28-02-2019 15:00:00 17.2 C 60 % 9.37 C
2774 28-02-2019 15:05:00 17.1 C 60 % 9.28 C
2775 28-02-2019 15:10:00 17 C 62 % 9.67 C
Sensor: Nr:Datum:Temp:Feuchte:Taupunkt:
Aussen-T/F 2776 28-02-2019 15:15:00 17 C 61 % 9.43 C
2777 28-02-2019 15:20:00 16.9 C 61 % 9.34 C
2778 28-02-2019 15:25:00 16.8 C 62 % 9.49 C
2779 28-02-2019 15:30:00 16.8 C 62 % 9.49 C
2780 28-02-2019 15:35:00 16.7 C 62 % 9.39 C
2781 28-02-2019 15:40:00 16.7 C 60 % 8.9 C
2782 28-02-2019 15:45:00 16.5 C 60 % 8.72 C
2783 28-02-2019 15:50:00 16.3 C 61 % 8.77 C
2784 28-02-2019 15:55:00 16.2 C 61 % 8.68 C
2785 28-02-2019 16:00:00 16.2 C 62 % 8.92 C
2786 28-02-2019 16:05:00 16.2 C 64 % 9.39 C
2787 28-02-2019 16:10:00 16.1 C 65 % 9.53 C
2788 28-02-2019 16:15:00 16 C 66 % 9.66 C
2789 28-02-2019 16:20:00 15.9 C 66 % 9.56 C
2790 28-02-2019 16:25:00 15.7 C 66 % 9.37 C
2791 28-02-2019 16:30:00 15.5 C 67 % 9.41 C
2792 28-02-2019 16:35:00 15.3 C 63 % 8.31 C
2793 28-02-2019 16:40:00 14.7 C 60 % 7.03 C
2794 28-02-2019 16:45:00 14 C 61 % 6.61 C
2795 28-02-2019 16:50:00 13.6 C 63 % 6.7 C
2796 28-02-2019 16:55:00 13.3 C 64 % 6.64 C
2797 28-02-2019 17:00:00 13.1 C 64 % 6.45 C
2798 28-02-2019 17:05:00 13 C 65 % 6.58 C
2799 28-02-2019 17:10:00 12.9 C 66 % 6.71 C
2800 28-02-2019 17:15:00 12.9 C 67 % 6.93 C
Sensor: Nr:Datum:Temp:Feuchte:Taupunkt:
Aussen-T/F 2801 28-02-2019 17:20:00 12.8 C 67 % 6.83 C
2802 28-02-2019 17:25:00 12.8 C 68 % 7.05 C
2803 28-02-2019 17:30:00 12.7 C 69 % 7.17 C
2804 28-02-2019 17:35:00 12.6 C 69 % 7.07 C
2805 28-02-2019 17:40:00 12.6 C 69 % 7.07 C
2806 28-02-2019 17:45:00 12.5 C 69 % 6.97 C
2807 28-02-2019 17:50:00 12.5 C 70 % 7.18 C
2808 28-02-2019 17:55:00 12.4 C 70 % 7.09 C
2809 28-02-2019 18:00:00 12.4 C 70 % 7.09 C
2810 28-02-2019 18:05:00 12.4 C 70 % 7.09 C
2811 28-02-2019 18:10:00 12.3 C 71 % 7.2 C
2812 28-02-2019 18:15:00 12.3 C 71 % 7.2 C
2813 28-02-2019 18:20:00 12.2 C 71 % 7.1 C
2814 28-02-2019 18:25:00 12.2 C 71 % 7.1 C
2815 28-02-2019 18:30:00 12.1 C 71 % 7.01 C
2816 28-02-2019 18:35:00 12.1 C 72 % 7.21 C
2817 28-02-2019 18:40:00 12 C 72 % 7.12 C
2818 28-02-2019 18:45:00 11.9 C 73 % 7.22 C
2819 28-02-2019 18:50:00 11.9 C 73 % 7.22 C
2820 28-02-2019 18:55:00 11.8 C 73 % 7.12 C
2821 28-02-2019 19:00:00 11.8 C 74 % 7.32 C
2822 28-02-2019 19:05:00 11.7 C 74 % 7.23 C
2823 28-02-2019 19:10:00 11.6 C 74 % 7.13 C
2824 28-02-2019 19:15:00 11.4 C 75 % 7.13 C
2825 28-02-2019 19:20:00 11.3 C 75 % 7.04 C
Sensor: Nr:Datum:Temp:Feuchte:Taupunkt:
Aussen-T/F 2826 28-02-2019 19:25:00 11.2 C 75 % 6.94 C
2827 28-02-2019 19:30:00 11.1 C 76 % 7.04 C
2828 28-02-2019 19:35:00 11.1 C 76 % 7.04 C
2829 28-02-2019 19:40:00 11 C 77 % 7.13 C
2830 28-02-2019 19:45:00 11 C 77 % 7.13 C
2831 28-02-2019 19:50:00 11 C 77 % 7.13 C
2832 28-02-2019 19:55:00 11 C 78 % 7.32 C
2833 28-02-2019 20:00:00 11 C 78 % 7.32 C
2834 28-02-2019 20:05:00 11.1 C 78 % 7.41 C
2835 28-02-2019 20:10:00 11.1 C 78 % 7.41 C
2836 28-02-2019 20:15:00 11.1 C 78 % 7.41 C
2837 28-02-2019 20:20:00 11.1 C 78 % 7.41 C
2838 28-02-2019 20:25:00 11.1 C 79 % 7.6 C
2839 28-02-2019 20:30:00 11.1 C 79 % 7.6 C
2840 28-02-2019 20:35:00 11.1 C 79 % 7.6 C
2841 28-02-2019 20:40:00 11.1 C 79 % 7.6 C
2842 28-02-2019 20:45:00 11.1 C 79 % 7.6 C
2843 28-02-2019 20:50:00 11.1 C 79 % 7.6 C
2844 28-02-2019 20:55:00 11.1 C 79 % 7.6 C
2845 28-02-2019 21:00:00 11.1 C 80 % 7.79 C
2846 28-02-2019 21:05:00 11.1 C 80 % 7.79 C
2847 28-02-2019 21:10:00 11.1 C 81 % 7.97 C
2848 28-02-2019 21:15:00 11 C 81 % 7.87 C
2849 28-02-2019 21:20:00 10.9 C 81 % 7.77 C
2850 28-02-2019 21:25:00 10.9 C 81 % 7.77 C
Sensor: Nr:Datum:Temp:Feuchte:Taupunkt:
Aussen-T/F 2851 28-02-2019 21:30:00 10.9 C 81 % 7.77 C
2852 28-02-2019 21:35:00 10.9 C 81 % 7.77 C
2853 28-02-2019 21:40:00 10.9 C 81 % 7.77 C
2854 28-02-2019 21:45:00 10.9 C 81 % 7.77 C
2855 28-02-2019 21:50:00 11 C 81 % 7.87 C
2856 28-02-2019 21:55:00 11 C 80 % 7.69 C
2857 28-02-2019 22:00:00 10.9 C 80 % 7.59 C
2858 28-02-2019 22:05:00 10.9 C 81 % 7.77 C
2859 28-02-2019 22:10:00 10.9 C 81 % 7.77 C
2860 28-02-2019 22:15:00 10.9 C 81 % 7.77 C
2861 28-02-2019 22:20:00 10.9 C 82 % 7.95 C
2862 28-02-2019 22:25:00 10.9 C 82 % 7.95 C
2863 28-02-2019 22:30:00 10.8 C 82 % 7.85 C
2864 28-02-2019 22:35:00 10.8 C 82 % 7.85 C
2865 28-02-2019 22:40:00 10.8 C 82 % 7.85 C
2866 28-02-2019 22:45:00 10.8 C 82 % 7.85 C
2867 28-02-2019 22:50:00 10.8 C 83 % 8.03 C
2868 28-02-2019 22:55:00 10.7 C 83 % 7.93 C
2869 28-02-2019 23:00:00 10.7 C 83 % 7.93 C
2870 28-02-2019 23:05:00 10.7 C 83 % 7.93 C
2871 28-02-2019 23:10:00 10.7 C 84 % 8.11 C
2872 28-02-2019 23:15:00 10.6 C 85 % 8.19 C
2873 28-02-2019 23:20:00 10.6 C 85 % 8.19 C
2874 28-02-2019 23:25:00 10.4 C 86 % 8.16 C
2875 28-02-2019 23:30:00 10.3 C 87 % 8.23 C
Sensor: Nr:Datum:Temp:Feuchte:Taupunkt:
Aussen-T/F 2876 28-02-2019 23:35:00 10.2 C 88 % 8.3 C
2877 28-02-2019 23:40:00 9.9 C 89 % 8.17 C
2878 28-02-2019 23:45:00 9.8 C 89 % 8.08 C
2879 28-02-2019 23:50:00 9.7 C 90 % 8.14 C
2880 28-02-2019 23:55:00 9.6 C 90 % 8.04 C
2881 01-03-2019 00:00:00 9.5 C 91 % 8.11 C
2882 01-03-2019 00:05:00 9.4 C 91 % 8.01 C
2883 01-03-2019 00:10:00 9.3 C 92 % 8.07 C
2884 01-03-2019 00:15:00 9.3 C 92 % 8.07 C
2885 01-03-2019 00:20:00 9.2 C 92 % 7.97 C
2886 01-03-2019 00:25:00 9.1 C 92 % 7.87 C
2887 01-03-2019 00:30:00 9.1 C 92 % 7.87 C
2888 01-03-2019 00:35:00 9 C 92 % 7.77 C
2889 01-03-2019 00:40:00 8.9 C 92 % 7.67 C
2890 01-03-2019 00:45:00 8.8 C 92 % 7.57 C
2891 01-03-2019 00:50:00 8.7 C 92 % 7.47 C
2892 01-03-2019 00:55:00 8.6 C 93 % 7.53 C
2893 01-03-2019 01:00:00 8.6 C 93 % 7.53 C
2894 01-03-2019 01:05:00 8.7 C 93 % 7.63 C
2895 01-03-2019 01:10:00 8.8 C 94 % 7.89 C
2896 01-03-2019 01:15:00 8.8 C 94 % 7.89 C
2897 01-03-2019 01:20:00 8.8 C 94 % 7.89 C
2898 01-03-2019 01:25:00 8.7 C 94 % 7.79 C
2899 01-03-2019 01:30:00 8.7 C 94 % 7.79 C
2900 01-03-2019 01:35:00 8.7 C 94 % 7.79 C
Sensor: Nr:Datum:Temp:Feuchte:Taupunkt:
Aussen-T/F 2901 01-03-2019 01:40:00 8.6 C 93 % 7.53 C
2902 01-03-2019 01:45:00 8.6 C 94 % 7.69 C
2903 01-03-2019 01:50:00 8.6 C 94 % 7.69 C
2904 01-03-2019 01:55:00 8.6 C 94 % 7.69 C
2905 01-03-2019 02:00:00 8.6 C 94 % 7.69 C
2906 01-03-2019 02:05:00 8.6 C 94 % 7.69 C
2907 01-03-2019 02:10:00 8.7 C 94 % 7.79 C
2908 01-03-2019 02:15:00 8.7 C 94 % 7.79 C
2909 01-03-2019 02:20:00 8.7 C 93 % 7.63 C
2910 01-03-2019 02:25:00 8.7 C 93 % 7.63 C
2911 01-03-2019 02:30:00 8.8 C 93 % 7.73 C
2912 01-03-2019 02:35:00 8.7 C 93 % 7.63 C
2913 01-03-2019 02:40:00 8.7 C 93 % 7.63 C
2914 01-03-2019 02:45:00 8.7 C 93 % 7.63 C
2915 01-03-2019 02:50:00 8.7 C 93 % 7.63 C
2916 01-03-2019 02:55:00 8.7 C 93 % 7.63 C
2917 01-03-2019 03:00:00 8.7 C 92 % 7.47 C
2918 01-03-2019 03:05:00 8.8 C 92 % 7.57 C
2919 01-03-2019 03:10:00 8.7 C 92 % 7.47 C
2920 01-03-2019 03:15:00 8.7 C 92 % 7.47 C
2921 01-03-2019 03:20:00 8.8 C 92 % 7.57 C
2922 01-03-2019 03:25:00 8.8 C 92 % 7.57 C
2923 01-03-2019 03:30:00 8.8 C 91 % 7.41 C
2924 01-03-2019 03:35:00 8.9 C 91 % 7.51 C
2925 01-03-2019 03:40:00 8.9 C 91 % 7.51 C
Sensor: Nr:Datum:Temp:Feuchte:Taupunkt:
Aussen-T/F 2926 01-03-2019 03:45:00 8.9 C 91 % 7.51 C
2927 01-03-2019 03:50:00 8.8 C 91 % 7.41 C
2928 01-03-2019 03:55:00 8.8 C 91 % 7.41 C
2929 01-03-2019 04:00:00 8.8 C 91 % 7.41 C
2930 01-03-2019 04:05:00 8.8 C 91 % 7.41 C
2931 01-03-2019 04:10:00 8.8 C 91 % 7.41 C
2932 01-03-2019 04:15:00 8.8 C 91 % 7.41 C
2933 01-03-2019 04:20:00 8.8 C 91 % 7.41 C
2934 01-03-2019 04:25:00 8.8 C 91 % 7.41 C
2935 01-03-2019 04:30:00 8.8 C 91 % 7.41 C
2936 01-03-2019 04:35:00 8.7 C 91 % 7.32 C
2937 01-03-2019 04:40:00 8.7 C 91 % 7.32 C
2938 01-03-2019 04:45:00 8.7 C 91 % 7.32 C
2939 01-03-2019 04:50:00 8.7 C 91 % 7.32 C
2940 01-03-2019 04:55:00 8.7 C 91 % 7.32 C
2941 01-03-2019 05:00:00 8.7 C 91 % 7.32 C
2942 01-03-2019 05:05:00 8.7 C 91 % 7.32 C
2943 01-03-2019 05:10:00 8.7 C 91 % 7.32 C
2944 01-03-2019 05:15:00 8.7 C 91 % 7.32 C
2945 01-03-2019 05:20:00 8.7 C 91 % 7.32 C
2946 01-03-2019 05:25:00 8.7 C 92 % 7.47 C
2947 01-03-2019 05:30:00 8.7 C 92 % 7.47 C
2948 01-03-2019 05:35:00 8.6 C 92 % 7.38 C
2949 01-03-2019 05:40:00 8.6 C 92 % 7.38 C
2950 01-03-2019 05:45:00 8.5 C 92 % 7.28 C
Sensor: Nr:Datum:Temp:Feuchte:Taupunkt:
Aussen-T/F 2951 01-03-2019 05:50:00 8.5 C 93 % 7.43 C
2952 01-03-2019 05:55:00 8.5 C 93 % 7.43 C
2953 01-03-2019 06:00:00 8.4 C 93 % 7.34 C
2954 01-03-2019 06:05:00 8.4 C 93 % 7.34 C
2955 01-03-2019 06:10:00 8.4 C 93 % 7.34 C
2956 01-03-2019 06:15:00 8.3 C 94 % 7.39 C
2957 01-03-2019 06:20:00 8.3 C 93 % 7.24 C
2958 01-03-2019 06:25:00 8.2 C 93 % 7.14 C
2959 01-03-2019 06:30:00 8.2 C 94 % 7.29 C
2960 01-03-2019 06:35:00 8.1 C 94 % 7.19 C
2961 01-03-2019 06:40:00 8.1 C 94 % 7.19 C
2962 01-03-2019 06:45:00 8.1 C 94 % 7.19 C
2963 01-03-2019 06:50:00 8 C 94 % 7.09 C
2964 01-03-2019 06:55:00 8 C 94 % 7.09 C
2965 01-03-2019 07:00:00 8 C 94 % 7.09 C
2966 01-03-2019 07:05:00 8.1 C 95 % 7.35 C
2967 01-03-2019 07:10:00 8.1 C 95 % 7.35 C
2968 01-03-2019 07:15:00 8.2 C 95 % 7.45 C
2969 01-03-2019 07:20:00 8.2 C 95 % 7.45 C
2970 01-03-2019 07:25:00 8.2 C 95 % 7.45 C
2971 01-03-2019 07:30:00 8.3 C 95 % 7.55 C
2972 01-03-2019 07:35:00 8.3 C 95 % 7.55 C
2973 01-03-2019 07:40:00 8.3 C 95 % 7.55 C
2974 01-03-2019 07:45:00 8.3 C 95 % 7.55 C
2975 01-03-2019 07:50:00 8.3 C 95 % 7.55 C
Sensor: Nr:Datum:Temp:Feuchte:Taupunkt:
Aussen-T/F 2976 01-03-2019 07:55:00 8.3 C 95 % 7.55 C
2977 01-03-2019 08:00:00 8.3 C 95 % 7.55 C
2978 01-03-2019 08:05:00 8.3 C 95 % 7.55 C
2979 01-03-2019 08:10:00 8.4 C 95 % 7.65 C
2980 01-03-2019 08:15:00 8.4 C 95 % 7.65 C
2981 01-03-2019 08:20:00 8.5 C 95 % 7.75 C
2982 01-03-2019 08:25:00 8.6 C 95 % 7.85 C
2983 01-03-2019 08:30:00 8.6 C 95 % 7.85 C
2984 01-03-2019 08:35:00 8.6 C 95 % 7.85 C
2985 01-03-2019 08:40:00 8.6 C 95 % 7.85 C
2986 01-03-2019 08:45:00 8.7 C 95 % 7.94 C
2987 01-03-2019 08:50:00 8.7 C 95 % 7.94 C
2988 01-03-2019 08:55:00 8.7 C 95 % 7.94 C
2989 01-03-2019 09:00:00 8.7 C 95 % 7.94 C
2990 01-03-2019 09:05:00 8.7 C 95 % 7.94 C
2991 01-03-2019 09:10:00 8.7 C 95 % 7.94 C
2992 01-03-2019 09:15:00 8.7 C 95 % 7.94 C
2993 01-03-2019 09:20:00 8.7 C 95 % 7.94 C
2994 01-03-2019 09:25:00 8.7 C 95 % 7.94 C
2995 01-03-2019 09:30:00 8.7 C 95 % 7.94 C
2996 01-03-2019 09:35:00 8.7 C 95 % 7.94 C
2997 01-03-2019 09:40:00 8.7 C 95 % 7.94 C
2998 01-03-2019 09:45:00 8.7 C 95 % 7.94 C
2999 01-03-2019 09:50:00 8.6 C 95 % 7.85 C
3000 01-03-2019 09:55:00 8.6 C 95 % 7.85 C
Sensor: Nr:Datum:Temp:Feuchte:Taupunkt:
Aussen-T/F 3001 01-03-2019 10:00:00 8.6 C 95 % 7.85 C
3002 01-03-2019 10:05:00 8.6 C 96 % 8 C
3003 01-03-2019 10:10:00 8.6 C 96 % 8 C
3004 01-03-2019 10:15:00 8.6 C 96 % 8 C
3005 01-03-2019 10:20:00 8.6 C 96 % 8 C
3006 01-03-2019 10:25:00 8.6 C 96 % 8 C
3007 01-03-2019 10:30:00 8.6 C 96 % 8 C
3008 01-03-2019 10:35:00 8.7 C 96 % 8.1 C
3009 01-03-2019 10:40:00 8.7 C 96 % 8.1 C
3010 01-03-2019 10:45:00 8.8 C 96 % 8.2 C
3011 01-03-2019 10:50:00 8.8 C 96 % 8.2 C
3012 01-03-2019 10:55:00 8.8 C 96 % 8.2 C
3013 01-03-2019 11:00:00 8.8 C 96 % 8.2 C
3014 01-03-2019 11:05:00 8.7 C 95 % 7.94 C
3015 01-03-2019 11:10:00 8.7 C 95 % 7.94 C
3016 01-03-2019 11:15:00 8.7 C 95 % 7.94 C
3017 01-03-2019 11:20:00 8.7 C 95 % 7.94 C
3018 01-03-2019 11:25:00 8.7 C 95 % 7.94 C
3019 01-03-2019 11:30:00 8.6 C 95 % 7.85 C
3020 01-03-2019 11:35:00 8.7 C 95 % 7.94 C
3021 01-03-2019 11:40:00 8.7 C 95 % 7.94 C
3022 01-03-2019 11:45:00 8.8 C 95 % 8.04 C
3023 01-03-2019 11:50:00 8.9 C 95 % 8.14 C
3024 01-03-2019 11:55:00 9.1 C 95 % 8.34 C
3025 01-03-2019 12:00:00 9.1 C 94 % 8.19 C
Sensor: Nr:Datum:Temp:Feuchte:Taupunkt:
Aussen-T/F 3026 01-03-2019 12:05:00 9.1 C 94 % 8.19 C
3027 01-03-2019 12:10:00 9.1 C 93 % 8.03 C
3028 01-03-2019 12:15:00 9.1 C 92 % 7.87 C
3029 01-03-2019 12:20:00 9.1 C 92 % 7.87 C
3030 01-03-2019 12:25:00 9.1 C 91 % 7.71 C
3031 01-03-2019 12:30:00 9 C 91 % 7.61 C
3032 01-03-2019 12:35:00 9.1 C 90 % 7.55 C
3033 01-03-2019 12:40:00 9 C 90 % 7.45 C
3034 01-03-2019 12:45:00 8.9 C 90 % 7.35 C
3035 01-03-2019 12:50:00 8.8 C 90 % 7.25 C
3036 01-03-2019 12:55:00 8.8 C 90 % 7.25 C
3037 01-03-2019 13:00:00 8.7 C 91 % 7.32 C
3038 01-03-2019 13:05:00 8.7 C 91 % 7.32 C
3039 01-03-2019 13:10:00 8.7 C 91 % 7.32 C
3040 01-03-2019 13:15:00 8.6 C 91 % 7.22 C
3041 01-03-2019 13:20:00 8.5 C 91 % 7.12 C
3042 01-03-2019 13:25:00 8.4 C 91 % 7.02 C
3043 01-03-2019 13:30:00 8.4 C 92 % 7.18 C
3044 01-03-2019 13:35:00 8.4 C 92 % 7.18 C
3045 01-03-2019 13:40:00 8.3 C 92 % 7.08 C
3046 01-03-2019 13:45:00 8.4 C 92 % 7.18 C
3047 01-03-2019 13:50:00 8.4 C 92 % 7.18 C
3048 01-03-2019 13:55:00 8.4 C 92 % 7.18 C
3049 01-03-2019 14:00:00 8.4 C 92 % 7.18 C
3050 01-03-2019 14:05:00 8.4 C 92 % 7.18 C
Sensor: Nr:Datum:Temp:Feuchte:Taupunkt:
Aussen-T/F 3051 01-03-2019 14:10:00 8.4 C 92 % 7.18 C
3052 01-03-2019 14:15:00 8.3 C 91 % 6.92 C
3053 01-03-2019 14:20:00 8.4 C 91 % 7.02 C
3054 01-03-2019 14:25:00 8.4 C 91 % 7.02 C
3055 01-03-2019 14:30:00 8.3 C 90 % 6.76 C
3056 01-03-2019 14:35:00 8.4 C 90 % 6.86 C
3057 01-03-2019 14:40:00 8.4 C 89 % 6.7 C
3058 01-03-2019 14:45:00 8.4 C 89 % 6.7 C
3059 01-03-2019 14:50:00 8.4 C 89 % 6.7 C
3060 01-03-2019 14:55:00 8.4 C 89 % 6.7 C
3061 01-03-2019 15:00:00 8.4 C 89 % 6.7 C
3062 01-03-2019 15:05:00 8.4 C 89 % 6.7 C
3063 01-03-2019 15:10:00 8.4 C 90 % 6.86 C
3064 01-03-2019 15:15:00 8.3 C 89 % 6.6 C
3065 01-03-2019 15:20:00 8.3 C 89 % 6.6 C
3066 01-03-2019 15:25:00 8.3 C 90 % 6.76 C
3067 01-03-2019 15:30:00 8.3 C 90 % 6.76 C
3068 01-03-2019 15:35:00 8.3 C 90 % 6.76 C
3069 01-03-2019 15:40:00 8.3 C 90 % 6.76 C
3070 01-03-2019 15:45:00 8.3 C 90 % 6.76 C
3071 01-03-2019 15:50:00 8.3 C 90 % 6.76 C
3072 01-03-2019 15:55:00 8.3 C 90 % 6.76 C
3073 01-03-2019 16:00:00 8.3 C 90 % 6.76 C
3074 01-03-2019 16:05:00 8.4 C 90 % 6.86 C
3075 01-03-2019 16:10:00 8.4 C 90 % 6.86 C
Sensor: Nr:Datum:Temp:Feuchte:Taupunkt:
Aussen-T/F 3076 01-03-2019 16:15:00 8.4 C 90 % 6.86 C
3077 01-03-2019 16:20:00 8.4 C 90 % 6.86 C
3078 01-03-2019 16:25:00 8.3 C 91 % 6.92 C
3079 01-03-2019 16:30:00 8.3 C 91 % 6.92 C
3080 01-03-2019 16:35:00 8.3 C 90 % 6.76 C
3081 01-03-2019 16:40:00 8.3 C 91 % 6.92 C
3082 01-03-2019 16:45:00 8.3 C 91 % 6.92 C
3083 01-03-2019 16:50:00 8.4 C 91 % 7.02 C
3084 01-03-2019 16:55:00 8.3 C 91 % 6.92 C
3085 01-03-2019 17:00:00 8.3 C 91 % 6.92 C
3086 01-03-2019 17:05:00 8.3 C 91 % 6.92 C
3087 01-03-2019 17:10:00 8.3 C 91 % 6.92 C
3088 01-03-2019 17:15:00 8.3 C 91 % 6.92 C
3089 01-03-2019 17:20:00 8.3 C 91 % 6.92 C
3090 01-03-2019 17:25:00 8.3 C 91 % 6.92 C
3091 01-03-2019 17:30:00 8.2 C 91 % 6.82 C
3092 01-03-2019 17:35:00 8.2 C 91 % 6.82 C
3093 01-03-2019 17:40:00 8.3 C 91 % 6.92 C
3094 01-03-2019 17:45:00 8.3 C 91 % 6.92 C
3095 01-03-2019 17:50:00 8.3 C 91 % 6.92 C
3096 01-03-2019 17:55:00 8.3 C 91 % 6.92 C
3097 01-03-2019 18:00:00 8.2 C 90 % 6.66 C
3098 01-03-2019 18:05:00 8 C 90 % 6.46 C
3099 01-03-2019 18:10:00 7.8 C 90 % 6.27 C
3100 01-03-2019 18:15:00 7.8 C 90 % 6.27 C
Sensor: Nr:Datum:Temp:Feuchte:Taupunkt:
Aussen-T/F 3101 01-03-2019 18:20:00 7.7 C 89 % 6 C
3102 01-03-2019 18:25:00 7.6 C 89 % 5.91 C
3103 01-03-2019 18:30:00 7.6 C 89 % 5.91 C
3104 01-03-2019 18:35:00 7.5 C 89 % 5.81 C
3105 01-03-2019 18:40:00 7.4 C 89 % 5.71 C
3106 01-03-2019 18:45:00 7.3 C 89 % 5.61 C
3107 01-03-2019 18:50:00 7.3 C 89 % 5.61 C
3108 01-03-2019 18:55:00 7.2 C 90 % 5.67 C
3109 01-03-2019 19:00:00 7.2 C 90 % 5.67 C
3110 01-03-2019 19:05:00 7.1 C 90 % 5.57 C
3111 01-03-2019 19:10:00 7.1 C 89 % 5.41 C
3112 01-03-2019 19:15:00 7 C 90 % 5.48 C
3113 01-03-2019 19:20:00 6.9 C 90 % 5.38 C
3114 01-03-2019 19:25:00 6.9 C 90 % 5.38 C
3115 01-03-2019 19:30:00 6.8 C 90 % 5.28 C
3116 01-03-2019 19:35:00 6.8 C 90 % 5.28 C
3117 01-03-2019 19:40:00 6.8 C 90 % 5.28 C
3118 01-03-2019 19:45:00 6.8 C 90 % 5.28 C
3119 01-03-2019 19:50:00 6.7 C 90 % 5.18 C
3120 01-03-2019 19:55:00 6.7 C 90 % 5.18 C
3121 01-03-2019 20:00:00 6.7 C 91 % 5.34 C
3122 01-03-2019 20:05:00 6.7 C 91 % 5.34 C
3123 01-03-2019 20:10:00 6.7 C 91 % 5.34 C
3124 01-03-2019 20:15:00 6.7 C 91 % 5.34 C
3125 01-03-2019 20:20:00 6.6 C 91 % 5.24 C
Sensor: Nr:Datum:Temp:Feuchte:Taupunkt:
Aussen-T/F 3126 01-03-2019 20:25:00 6.6 C 91 % 5.24 C
3127 01-03-2019 20:30:00 6.6 C 91 % 5.24 C
3128 01-03-2019 20:35:00 6.6 C 91 % 5.24 C
3129 01-03-2019 20:40:00 6.6 C 91 % 5.24 C
3130 01-03-2019 20:45:00 6.6 C 91 % 5.24 C
3131 01-03-2019 20:50:00 6.6 C 91 % 5.24 C
3132 01-03-2019 20:55:00 6.5 C 91 % 5.14 C
3133 01-03-2019 21:00:00 6.5 C 91 % 5.14 C
3134 01-03-2019 21:05:00 6.5 C 91 % 5.14 C
3135 01-03-2019 21:10:00 6.4 C 91 % 5.04 C
3136 01-03-2019 21:15:00 6.4 C 91 % 5.04 C
3137 01-03-2019 21:20:00 6.4 C 91 % 5.04 C
3138 01-03-2019 21:25:00 6.4 C 91 % 5.04 C
3139 01-03-2019 21:30:00 6.5 C 90 % 4.98 C
3140 01-03-2019 21:35:00 6.5 C 91 % 5.14 C
3141 01-03-2019 21:40:00 6.5 C 91 % 5.14 C
3142 01-03-2019 21:45:00 6.5 C 90 % 4.98 C
3143 01-03-2019 21:50:00 6.4 C 90 % 4.88 C
3144 01-03-2019 21:55:00 6.4 C 90 % 4.88 C
3145 01-03-2019 22:00:00 6.4 C 90 % 4.88 C
3146 01-03-2019 22:05:00 6.4 C 91 % 5.04 C
3147 01-03-2019 22:10:00 6.3 C 91 % 4.94 C
3148 01-03-2019 22:15:00 6.3 C 91 % 4.94 C
3149 01-03-2019 22:20:00 6.3 C 91 % 4.94 C
3150 01-03-2019 22:25:00 6.3 C 91 % 4.94 C
Sensor: Nr:Datum:Temp:Feuchte:Taupunkt:
Aussen-T/F 3151 01-03-2019 22:30:00 6.3 C 91 % 4.94 C
3152 01-03-2019 22:35:00 6.3 C 90 % 4.78 C
3153 01-03-2019 22:40:00 6.4 C 90 % 4.88 C
3154 01-03-2019 22:45:00 6.4 C 89 % 4.72 C
3155 01-03-2019 22:50:00 6.5 C 89 % 4.82 C
3156 01-03-2019 22:55:00 6.6 C 88 % 4.76 C
3157 01-03-2019 23:00:00 6.6 C 88 % 4.76 C
3158 01-03-2019 23:05:00 6.7 C 88 % 4.86 C
3159 01-03-2019 23:10:00 6.7 C 88 % 4.86 C
3160 01-03-2019 23:15:00 6.6 C 88 % 4.76 C
3161 01-03-2019 23:20:00 6.6 C 88 % 4.76 C
3162 01-03-2019 23:25:00 6.6 C 88 % 4.76 C
3163 01-03-2019 23:30:00 6.6 C 88 % 4.76 C
3164 01-03-2019 23:35:00 6.5 C 89 % 4.82 C
3165 01-03-2019 23:40:00 6.4 C 89 % 4.72 C
3166 01-03-2019 23:45:00 6.4 C 89 % 4.72 C
3167 01-03-2019 23:50:00 6.4 C 90 % 4.88 C
3168 01-03-2019 23:55:00 6.3 C 90 % 4.78 C
3169 02-03-2019 00:00:00 6.3 C 90 % 4.78 C
3170 02-03-2019 00:05:00 6.3 C 89 % 4.62 C
3171 02-03-2019 00:10:00 6.2 C 90 % 4.69 C
3172 02-03-2019 00:15:00 6.2 C 90 % 4.69 C
3173 02-03-2019 00:20:00 6.2 C 90 % 4.69 C
3174 02-03-2019 00:25:00 6.2 C 90 % 4.69 C
3175 02-03-2019 00:30:00 6.2 C 90 % 4.69 C
Sensor: Nr:Datum:Temp:Feuchte:Taupunkt:
Aussen-T/F 3176 02-03-2019 00:35:00 6.2 C 89 % 4.53 C
3177 02-03-2019 00:40:00 6.2 C 88 % 4.36 C
3178 02-03-2019 00:45:00 6.1 C 88 % 4.27 C
3179 02-03-2019 00:50:00 6.1 C 88 % 4.27 C
3180 02-03-2019 00:55:00 6.1 C 88 % 4.27 C
3181 02-03-2019 01:00:00 6.1 C 88 % 4.27 C
3182 02-03-2019 01:05:00 6 C 88 % 4.17 C
3183 02-03-2019 01:10:00 5.9 C 88 % 4.07 C
3184 02-03-2019 01:15:00 5.9 C 89 % 4.23 C
3185 02-03-2019 01:20:00 5.9 C 89 % 4.23 C
3186 02-03-2019 01:25:00 5.8 C 89 % 4.13 C
3187 02-03-2019 01:30:00 5.8 C 89 % 4.13 C
3188 02-03-2019 01:35:00 5.8 C 89 % 4.13 C
3189 02-03-2019 01:40:00 5.8 C 90 % 4.29 C
3190 02-03-2019 01:45:00 5.8 C 90 % 4.29 C
3191 02-03-2019 01:50:00 5.7 C 90 % 4.19 C
3192 02-03-2019 01:55:00 5.7 C 90 % 4.19 C
3193 02-03-2019 02:00:00 5.7 C 90 % 4.19 C
3194 02-03-2019 02:05:00 5.7 C 90 % 4.19 C
3195 02-03-2019 02:10:00 5.7 C 91 % 4.35 C
3196 02-03-2019 02:15:00 5.7 C 91 % 4.35 C
3197 02-03-2019 02:20:00 5.7 C 91 % 4.35 C
3198 02-03-2019 02:25:00 5.6 C 90 % 4.09 C
3199 02-03-2019 02:30:00 5.6 C 91 % 4.25 C
3200 02-03-2019 02:35:00 5.6 C 91 % 4.25 C
Sensor: Nr:Datum:Temp:Feuchte:Taupunkt:
Aussen-T/F 3201 02-03-2019 02:40:00 5.6 C 91 % 4.25 C
3202 02-03-2019 02:45:00 5.6 C 91 % 4.25 C
3203 02-03-2019 02:50:00 5.6 C 91 % 4.25 C
3204 02-03-2019 02:55:00 5.6 C 91 % 4.25 C
3205 02-03-2019 03:00:00 5.6 C 91 % 4.25 C
3206 02-03-2019 03:05:00 5.6 C 91 % 4.25 C
3207 02-03-2019 03:10:00 5.6 C 91 % 4.25 C
3208 02-03-2019 03:15:00 5.6 C 91 % 4.25 C
3209 02-03-2019 03:20:00 5.6 C 91 % 4.25 C
3210 02-03-2019 03:25:00 5.6 C 91 % 4.25 C
3211 02-03-2019 03:30:00 5.7 C 91 % 4.35 C
3212 02-03-2019 03:35:00 5.7 C 91 % 4.35 C
3213 02-03-2019 03:40:00 5.7 C 90 % 4.19 C
3214 02-03-2019 03:45:00 5.7 C 90 % 4.19 C
3215 02-03-2019 03:50:00 5.7 C 90 % 4.19 C
3216 02-03-2019 03:55:00 5.7 C 90 % 4.19 C
3217 02-03-2019 04:00:00 5.7 C 90 % 4.19 C
3218 02-03-2019 04:05:00 5.7 C 91 % 4.35 C
3219 02-03-2019 04:10:00 5.7 C 91 % 4.35 C
3220 02-03-2019 04:15:00 5.6 C 90 % 4.09 C
3221 02-03-2019 04:20:00 5.6 C 91 % 4.25 C
3222 02-03-2019 04:25:00 5.6 C 91 % 4.25 C
3223 02-03-2019 04:30:00 5.7 C 91 % 4.35 C
3224 02-03-2019 04:35:00 5.7 C 91 % 4.35 C
3225 02-03-2019 04:40:00 5.7 C 91 % 4.35 C
Sensor: Nr:Datum:Temp:Feuchte:Taupunkt:
Aussen-T/F 3226 02-03-2019 04:45:00 5.8 C 92 % 4.6 C
3227 02-03-2019 04:50:00 5.8 C 91 % 4.45 C
3228 02-03-2019 04:55:00 5.8 C 91 % 4.45 C
3229 02-03-2019 05:00:00 5.8 C 91 % 4.45 C
3230 02-03-2019 05:05:00 5.9 C 91 % 4.55 C
3231 02-03-2019 05:10:00 5.9 C 91 % 4.55 C
3232 02-03-2019 05:15:00 5.9 C 91 % 4.55 C
3233 02-03-2019 05:20:00 6 C 91 % 4.65 C
3234 02-03-2019 05:25:00 6.1 C 91 % 4.74 C
3235 02-03-2019 05:30:00 6.2 C 91 % 4.84 C
3236 02-03-2019 05:35:00 6.3 C 91 % 4.94 C
3237 02-03-2019 05:40:00 6.3 C 91 % 4.94 C
3238 02-03-2019 05:45:00 6.3 C 91 % 4.94 C
3239 02-03-2019 05:50:00 6.3 C 91 % 4.94 C
3240 02-03-2019 05:55:00 6.3 C 91 % 4.94 C
3241 02-03-2019 06:00:00 6.3 C 91 % 4.94 C
3242 02-03-2019 06:05:00 6.3 C 91 % 4.94 C
3243 02-03-2019 06:10:00 6.3 C 91 % 4.94 C
3244 02-03-2019 06:15:00 6.3 C 91 % 4.94 C
3245 02-03-2019 06:20:00 6.3 C 91 % 4.94 C
3246 02-03-2019 06:25:00 6.3 C 91 % 4.94 C
3247 02-03-2019 06:30:00 6.3 C 91 % 4.94 C
3248 02-03-2019 06:35:00 6.3 C 91 % 4.94 C
3249 02-03-2019 06:40:00 6.3 C 91 % 4.94 C
3250 02-03-2019 06:45:00 6.3 C 91 % 4.94 C
Sensor: Nr:Datum:Temp:Feuchte:Taupunkt:
Aussen-T/F 3251 02-03-2019 06:50:00 6.3 C 91 % 4.94 C
3252 02-03-2019 06:55:00 6.4 C 91 % 5.04 C
3253 02-03-2019 07:00:00 6.4 C 91 % 5.04 C
3254 02-03-2019 07:05:00 6.6 C 91 % 5.24 C
3255 02-03-2019 07:10:00 6.6 C 91 % 5.24 C
3256 02-03-2019 07:15:00 6.6 C 91 % 5.24 C
3257 02-03-2019 07:20:00 6.7 C 91 % 5.34 C
3258 02-03-2019 07:25:00 6.7 C 91 % 5.34 C
3259 02-03-2019 07:30:00 6.7 C 91 % 5.34 C
3260 02-03-2019 07:35:00 6.7 C 91 % 5.34 C
3261 02-03-2019 07:40:00 6.7 C 91 % 5.34 C
3262 02-03-2019 07:45:00 6.7 C 91 % 5.34 C
3263 02-03-2019 07:50:00 6.7 C 91 % 5.34 C
3264 02-03-2019 07:55:00 6.7 C 91 % 5.34 C
3265 02-03-2019 08:00:00 6.8 C 91 % 5.44 C
3266 02-03-2019 08:05:00 6.8 C 91 % 5.44 C
3267 02-03-2019 08:10:00 6.8 C 91 % 5.44 C
3268 02-03-2019 08:15:00 6.9 C 90 % 5.38 C
3269 02-03-2019 08:20:00 6.9 C 91 % 5.54 C
3270 02-03-2019 08:25:00 7 C 91 % 5.63 C
3271 02-03-2019 08:30:00 7.1 C 90 % 5.57 C
3272 02-03-2019 08:35:00 7.1 C 90 % 5.57 C
3273 02-03-2019 08:40:00 7.1 C 90 % 5.57 C
3274 02-03-2019 08:45:00 7.2 C 90 % 5.67 C
3275 02-03-2019 08:50:00 7.2 C 90 % 5.67 C
Sensor: Nr:Datum:Temp:Feuchte:Taupunkt:
Aussen-T/F 3276 02-03-2019 08:55:00 7.3 C 90 % 5.77 C
3277 02-03-2019 09:00:00 7.3 C 90 % 5.77 C
3278 02-03-2019 09:05:00 7.4 C 90 % 5.87 C
3279 02-03-2019 09:10:00 7.5 C 90 % 5.97 C
3280 02-03-2019 09:15:00 7.6 C 89 % 5.91 C
3281 02-03-2019 09:20:00 7.6 C 89 % 5.91 C
3282 02-03-2019 09:25:00 7.7 C 89 % 6 C
3283 02-03-2019 09:30:00 7.7 C 89 % 6 C
3284 02-03-2019 09:35:00 7.8 C 89 % 6.1 C
3285 02-03-2019 09:40:00 7.8 C 88 % 5.94 C
3286 02-03-2019 09:45:00 7.8 C 88 % 5.94 C
3287 02-03-2019 09:50:00 7.9 C 88 % 6.04 C
3288 02-03-2019 09:55:00 7.9 C 88 % 6.04 C
3289 02-03-2019 10:00:00 7.9 C 88 % 6.04 C
3290 02-03-2019 10:05:00 7.9 C 88 % 6.04 C
3291 02-03-2019 10:10:00 7.9 C 88 % 6.04 C
3292 02-03-2019 10:15:00 7.9 C 88 % 6.04 C
3293 02-03-2019 10:20:00 7.9 C 88 % 6.04 C
3294 02-03-2019 10:25:00 8 C 88 % 6.14 C
3295 02-03-2019 10:30:00 8.1 C 88 % 6.24 C
3296 02-03-2019 10:35:00 8.1 C 87 % 6.07 C
3297 02-03-2019 10:40:00 8.1 C 88 % 6.24 C
3298 02-03-2019 10:45:00 8.2 C 88 % 6.33 C
3299 02-03-2019 10:50:00 8.3 C 87 % 6.27 C
3300 02-03-2019 10:55:00 8.3 C 87 % 6.27 C
Sensor: Nr:Datum:Temp:Feuchte:Taupunkt:
Aussen-T/F 3301 02-03-2019 11:00:00 8.4 C 87 % 6.37 C
3302 02-03-2019 11:05:00 8.6 C 87 % 6.56 C
3303 02-03-2019 11:10:00 8.7 C 86 % 6.49 C
3304 02-03-2019 11:15:00 8.7 C 86 % 6.49 C
3305 02-03-2019 11:20:00 8.8 C 86 % 6.59 C
3306 02-03-2019 11:25:00 8.9 C 86 % 6.69 C
3307 02-03-2019 11:30:00 9.1 C 86 % 6.89 C
3308 02-03-2019 11:35:00 9.2 C 85 % 6.81 C
3309 02-03-2019 11:40:00 9.3 C 84 % 6.74 C
3310 02-03-2019 11:45:00 9.3 C 85 % 6.91 C
3311 02-03-2019 11:50:00 9.4 C 84 % 6.84 C
3312 02-03-2019 11:55:00 9.5 C 83 % 6.76 C
3313 02-03-2019 12:00:00 9.6 C 84 % 7.03 C
3314 02-03-2019 12:05:00 9.7 C 84 % 7.13 C
3315 02-03-2019 12:10:00 9.8 C 84 % 7.23 C
3316 02-03-2019 12:15:00 10 C 83 % 7.25 C
3317 02-03-2019 12:20:00 10.1 C 83 % 7.35 C
3318 02-03-2019 12:25:00 10.1 C 83 % 7.35 C
3319 02-03-2019 12:30:00 10.1 C 82 % 7.17 C
3320 02-03-2019 12:35:00 10.1 C 82 % 7.17 C
3321 02-03-2019 12:40:00 10 C 82 % 7.07 C
3322 02-03-2019 12:45:00 9.9 C 82 % 6.98 C
3323 02-03-2019 12:50:00 9.9 C 83 % 7.15 C
3324 02-03-2019 12:55:00 10 C 82 % 7.07 C
3325 02-03-2019 13:00:00 10 C 82 % 7.07 C
Sensor: Nr:Datum:Temp:Feuchte:Taupunkt:
Aussen-T/F 3326 02-03-2019 13:05:00 10.2 C 83 % 7.45 C
3327 02-03-2019 13:10:00 10.4 C 82 % 7.46 C
3328 02-03-2019 13:15:00 10.6 C 81 % 7.48 C
3329 02-03-2019 13:20:00 10.7 C 80 % 7.4 C
3330 02-03-2019 13:25:00 10.7 C 79 % 7.21 C
3331 02-03-2019 13:30:00 10.7 C 79 % 7.21 C
3332 02-03-2019 13:35:00 10.7 C 79 % 7.21 C
3333 02-03-2019 13:40:00 10.7 C 79 % 7.21 C
3334 02-03-2019 13:45:00 10.8 C 79 % 7.31 C
3335 02-03-2019 13:50:00 11 C 78 % 7.32 C
3336 02-03-2019 13:55:00 11.1 C 78 % 7.41 C
3337 02-03-2019 14:00:00 11.1 C 77 % 7.23 C
3338 02-03-2019 14:05:00 11.2 C 77 % 7.32 C
3339 02-03-2019 14:10:00 11.2 C 77 % 7.32 C
3340 02-03-2019 14:15:00 11.3 C 76 % 7.23 C
3341 02-03-2019 14:20:00 11.4 C 75 % 7.13 C
3342 02-03-2019 14:25:00 11.4 C 75 % 7.13 C
3343 02-03-2019 14:30:00 11.4 C 75 % 7.13 C
3344 02-03-2019 14:35:00 11.5 C 76 % 7.42 C
3345 02-03-2019 14:40:00 11.6 C 75 % 7.33 C
3346 02-03-2019 14:45:00 11.6 C 75 % 7.33 C
3347 02-03-2019 14:50:00 11.6 C 75 % 7.33 C
3348 02-03-2019 14:55:00 11.6 C 74 % 7.13 C
3349 02-03-2019 15:00:00 11.7 C 74 % 7.23 C
3350 02-03-2019 15:05:00 11.7 C 74 % 7.23 C
Sensor: Nr:Datum:Temp:Feuchte:Taupunkt:
Aussen-T/F 3351 02-03-2019 15:10:00 11.8 C 73 % 7.12 C
3352 02-03-2019 15:15:00 11.8 C 73 % 7.12 C
3353 02-03-2019 15:20:00 11.8 C 72 % 6.92 C
3354 02-03-2019 15:25:00 11.9 C 72 % 7.02 C
3355 02-03-2019 15:30:00 11.9 C 72 % 7.02 C
3356 02-03-2019 15:35:00 12 C 72 % 7.12 C
3357 02-03-2019 15:40:00 12 C 71 % 6.91 C
3358 02-03-2019 15:45:00 12.1 C 72 % 7.21 C
3359 02-03-2019 15:50:00 12.2 C 72 % 7.31 C
3360 02-03-2019 15:55:00 12.2 C 71 % 7.1 C
3361 02-03-2019 16:00:00 12.3 C 70 % 6.99 C
3362 02-03-2019 16:05:00 12.3 C 70 % 6.99 C
3363 02-03-2019 16:10:00 12.3 C 70 % 6.99 C
3364 02-03-2019 16:15:00 12.5 C 70 % 7.18 C
3365 02-03-2019 16:20:00 12.6 C 70 % 7.28 C
3366 02-03-2019 16:25:00 12.6 C 70 % 7.28 C
3367 02-03-2019 16:30:00 12.6 C 70 % 7.28 C
3368 02-03-2019 16:35:00 12.4 C 70 % 7.09 C
3369 02-03-2019 16:40:00 12.3 C 71 % 7.2 C
3370 02-03-2019 16:45:00 12.2 C 71 % 7.1 C
3371 02-03-2019 16:50:00 12.1 C 71 % 7.01 C
3372 02-03-2019 16:55:00 12 C 72 % 7.12 C
3373 02-03-2019 17:00:00 11.9 C 73 % 7.22 C
3374 02-03-2019 17:05:00 11.8 C 73 % 7.12 C
3375 02-03-2019 17:10:00 11.7 C 74 % 7.23 C
Sensor: Nr:Datum:Temp:Feuchte:Taupunkt:
Aussen-T/F 3376 02-03-2019 17:15:00 11.5 C 74 % 7.03 C
3377 02-03-2019 17:20:00 11.4 C 75 % 7.13 C
3378 02-03-2019 17:25:00 11.3 C 75 % 7.04 C
3379 02-03-2019 17:30:00 11.3 C 76 % 7.23 C
3380 02-03-2019 17:35:00 11.2 C 76 % 7.13 C
3381 02-03-2019 17:40:00 11.2 C 77 % 7.32 C
3382 02-03-2019 17:45:00 11.1 C 77 % 7.23 C
3383 02-03-2019 17:50:00 11 C 78 % 7.32 C
3384 02-03-2019 17:55:00 10.9 C 78 % 7.22 C
3385 02-03-2019 18:00:00 10.8 C 78 % 7.12 C
3386 02-03-2019 18:05:00 10.8 C 79 % 7.31 C
3387 02-03-2019 18:10:00 10.7 C 79 % 7.21 C
3388 02-03-2019 18:15:00 10.7 C 80 % 7.4 C
3389 02-03-2019 18:20:00 10.6 C 80 % 7.3 C
3390 02-03-2019 18:25:00 10.6 C 80 % 7.3 C
3391 02-03-2019 18:30:00 10.5 C 81 % 7.38 C
3392 02-03-2019 18:35:00 10.5 C 81 % 7.38 C
3393 02-03-2019 18:40:00 10.4 C 82 % 7.46 C
3394 02-03-2019 18:45:00 10.4 C 82 % 7.46 C
3395 02-03-2019 18:50:00 10.3 C 82 % 7.37 C
3396 02-03-2019 18:55:00 10.3 C 83 % 7.54 C
3397 02-03-2019 19:00:00 10.2 C 84 % 7.62 C
3398 02-03-2019 19:05:00 10.1 C 85 % 7.7 C
3399 02-03-2019 19:10:00 10.1 C 85 % 7.7 C
3400 02-03-2019 19:15:00 10 C 86 % 7.77 C
Sensor: Nr:Datum:Temp:Feuchte:Taupunkt:
Aussen-T/F 3401 02-03-2019 19:20:00 9.9 C 86 % 7.67 C
3402 02-03-2019 19:25:00 9.8 C 86 % 7.57 C
3403 02-03-2019 19:30:00 9.8 C 86 % 7.57 C
3404 02-03-2019 19:35:00 9.7 C 86 % 7.47 C
3405 02-03-2019 19:40:00 9.7 C 87 % 7.64 C
3406 02-03-2019 19:45:00 9.6 C 87 % 7.55 C
3407 02-03-2019 19:50:00 9.6 C 87 % 7.55 C
3408 02-03-2019 19:55:00 9.6 C 87 % 7.55 C
3409 02-03-2019 20:00:00 9.4 C 87 % 7.35 C
3410 02-03-2019 20:05:00 9.5 C 87 % 7.45 C
3411 02-03-2019 20:10:00 9.5 C 87 % 7.45 C
3412 02-03-2019 20:15:00 9.5 C 87 % 7.45 C
3413 02-03-2019 20:20:00 9.5 C 87 % 7.45 C
3414 02-03-2019 20:25:00 9.6 C 87 % 7.55 C
3415 02-03-2019 20:30:00 9.6 C 87 % 7.55 C
3416 02-03-2019 20:35:00 9.5 C 87 % 7.45 C
3417 02-03-2019 20:40:00 9.6 C 88 % 7.71 C
3418 02-03-2019 20:45:00 9.6 C 88 % 7.71 C
3419 02-03-2019 20:50:00 9.6 C 87 % 7.55 C
3420 02-03-2019 20:55:00 9.5 C 88 % 7.61 C
3421 02-03-2019 21:00:00 9.5 C 88 % 7.61 C
3422 02-03-2019 21:05:00 9.4 C 88 % 7.52 C
3423 02-03-2019 21:10:00 9.4 C 88 % 7.52 C
3424 02-03-2019 21:15:00 9.6 C 89 % 7.88 C
3425 02-03-2019 21:20:00 9.7 C 88 % 7.81 C
Sensor: Nr:Datum:Temp:Feuchte:Taupunkt:
Aussen-T/F 3426 02-03-2019 21:25:00 9.8 C 88 % 7.91 C
3427 02-03-2019 21:30:00 9.9 C 87 % 7.84 C
3428 02-03-2019 21:35:00 10.1 C 87 % 8.04 C
3429 02-03-2019 21:40:00 10.1 C 87 % 8.04 C
3430 02-03-2019 21:45:00 10.1 C 87 % 8.04 C
3431 02-03-2019 21:50:00 10.2 C 86 % 7.97 C
3432 02-03-2019 21:55:00 10.2 C 86 % 7.97 C
3433 02-03-2019 22:00:00 10.2 C 86 % 7.97 C
3434 02-03-2019 22:05:00 10.2 C 86 % 7.97 C
3435 02-03-2019 22:10:00 10.2 C 86 % 7.97 C
3436 02-03-2019 22:15:00 10.2 C 85 % 7.79 C
3437 02-03-2019 22:20:00 10.2 C 85 % 7.79 C
3438 02-03-2019 22:25:00 10.2 C 85 % 7.79 C
3439 02-03-2019 22:30:00 10.3 C 85 % 7.89 C
3440 02-03-2019 22:35:00 10.3 C 85 % 7.89 C
3441 02-03-2019 22:40:00 10.3 C 85 % 7.89 C
3442 02-03-2019 22:45:00 10.3 C 84 % 7.72 C
3443 02-03-2019 22:50:00 10.3 C 84 % 7.72 C
3444 02-03-2019 22:55:00 10.3 C 84 % 7.72 C
3445 02-03-2019 23:00:00 10.3 C 84 % 7.72 C
3446 02-03-2019 23:05:00 10.2 C 84 % 7.62 C
3447 02-03-2019 23:10:00 10.2 C 84 % 7.62 C
3448 02-03-2019 23:15:00 10.1 C 84 % 7.52 C
3449 02-03-2019 23:20:00 10.1 C 83 % 7.35 C
3450 02-03-2019 23:25:00 10.1 C 83 % 7.35 C
Sensor: Nr:Datum:Temp:Feuchte:Taupunkt:
Aussen-T/F 3451 02-03-2019 23:30:00 9.9 C 83 % 7.15 C
3452 02-03-2019 23:35:00 9.8 C 83 % 7.05 C
3453 02-03-2019 23:40:00 9.8 C 83 % 7.05 C
3454 02-03-2019 23:45:00 9.8 C 82 % 6.88 C
3455 02-03-2019 23:50:00 9.7 C 83 % 6.96 C
3456 02-03-2019 23:55:00 9.6 C 82 % 6.68 C
3457 03-03-2019 00:00:00 9.6 C 82 % 6.68 C
3458 03-03-2019 00:05:00 9.5 C 82 % 6.59 C
3459 03-03-2019 00:10:00 9.5 C 82 % 6.59 C
3460 03-03-2019 00:15:00 9.5 C 82 % 6.59 C
3461 03-03-2019 00:20:00 9.4 C 82 % 6.49 C
3462 03-03-2019 00:25:00 9.3 C 82 % 6.39 C
3463 03-03-2019 00:30:00 9.2 C 82 % 6.29 C
3464 03-03-2019 00:35:00 8.9 C 82 % 6 C
3465 03-03-2019 00:40:00 8.7 C 83 % 5.98 C
3466 03-03-2019 00:45:00 8.5 C 84 % 5.96 C
3467 03-03-2019 00:50:00 8.3 C 85 % 5.93 C
3468 03-03-2019 00:55:00 8.3 C 86 % 6.1 C
3469 03-03-2019 01:00:00 8.3 C 87 % 6.27 C
3470 03-03-2019 01:05:00 8.4 C 87 % 6.37 C
3471 03-03-2019 01:10:00 8.6 C 87 % 6.56 C
3472 03-03-2019 01:15:00 8.8 C 87 % 6.76 C
3473 03-03-2019 01:20:00 8.9 C 86 % 6.69 C
3474 03-03-2019 01:25:00 9.1 C 86 % 6.89 C
3475 03-03-2019 01:30:00 9.3 C 86 % 7.08 C
Sensor: Nr:Datum:Temp:Feuchte:Taupunkt:
Aussen-T/F 3476 03-03-2019 01:35:00 9.4 C 85 % 7.01 C
3477 03-03-2019 01:40:00 9.7 C 84 % 7.13 C
3478 03-03-2019 01:45:00 9.8 C 83 % 7.05 C
3479 03-03-2019 01:50:00 9.9 C 83 % 7.15 C
3480 03-03-2019 01:55:00 9.9 C 82 % 6.98 C
3481 03-03-2019 02:00:00 10 C 82 % 7.07 C
3482 03-03-2019 02:05:00 10 C 82 % 7.07 C
3483 03-03-2019 02:10:00 10.1 C 81 % 6.99 C
3484 03-03-2019 02:15:00 10.1 C 81 % 6.99 C
3485 03-03-2019 02:20:00 10.1 C 81 % 6.99 C
3486 03-03-2019 02:25:00 10.1 C 81 % 6.99 C
3487 03-03-2019 02:30:00 10.1 C 81 % 6.99 C
3488 03-03-2019 02:35:00 9.9 C 81 % 6.8 C
3489 03-03-2019 02:40:00 9.9 C 81 % 6.8 C
3490 03-03-2019 02:45:00 9.9 C 81 % 6.8 C
3491 03-03-2019 02:50:00 9.8 C 81 % 6.7 C
3492 03-03-2019 02:55:00 9.8 C 82 % 6.88 C
3493 03-03-2019 03:00:00 9.8 C 81 % 6.7 C
3494 03-03-2019 03:05:00 9.8 C 81 % 6.7 C
3495 03-03-2019 03:10:00 9.9 C 81 % 6.8 C
3496 03-03-2019 03:15:00 9.9 C 81 % 6.8 C
3497 03-03-2019 03:20:00 9.9 C 81 % 6.8 C
3498 03-03-2019 03:25:00 10 C 81 % 6.89 C
3499 03-03-2019 03:30:00 10 C 81 % 6.89 C
3500 03-03-2019 03:35:00 10.1 C 81 % 6.99 C
Sensor: Nr:Datum:Temp:Feuchte:Taupunkt:
Aussen-T/F 3501 03-03-2019 03:40:00 10.1 C 81 % 6.99 C
3502 03-03-2019 03:45:00 10.1 C 81 % 6.99 C
3503 03-03-2019 03:50:00 10.2 C 81 % 7.09 C
3504 03-03-2019 03:55:00 10.2 C 81 % 7.09 C
3505 03-03-2019 04:00:00 10.2 C 81 % 7.09 C
3506 03-03-2019 04:05:00 10.2 C 81 % 7.09 C
3507 03-03-2019 04:10:00 10.2 C 81 % 7.09 C
3508 03-03-2019 04:15:00 10.2 C 81 % 7.09 C
3509 03-03-2019 04:20:00 10.2 C 81 % 7.09 C
3510 03-03-2019 04:25:00 10.3 C 81 % 7.19 C
3511 03-03-2019 04:30:00 10.3 C 81 % 7.19 C
3512 03-03-2019 04:35:00 10.3 C 81 % 7.19 C
3513 03-03-2019 04:40:00 10.2 C 81 % 7.09 C
3514 03-03-2019 04:45:00 10.2 C 81 % 7.09 C
3515 03-03-2019 04:50:00 10.2 C 81 % 7.09 C
3516 03-03-2019 04:55:00 10.2 C 80 % 6.91 C
3517 03-03-2019 05:00:00 10.2 C 80 % 6.91 C
3518 03-03-2019 05:05:00 10.3 C 80 % 7.01 C
3519 03-03-2019 05:10:00 10.2 C 80 % 6.91 C
3520 03-03-2019 05:15:00 10.2 C 80 % 6.91 C
3521 03-03-2019 05:20:00 10.2 C 80 % 6.91 C
3522 03-03-2019 05:25:00 10.2 C 80 % 6.91 C
3523 03-03-2019 05:30:00 10.2 C 80 % 6.91 C
3524 03-03-2019 05:35:00 10.2 C 80 % 6.91 C
3525 03-03-2019 05:40:00 10.2 C 79 % 6.73 C
Sensor: Nr:Datum:Temp:Feuchte:Taupunkt:
Aussen-T/F 3526 03-03-2019 05:45:00 10.2 C 79 % 6.73 C
3527 03-03-2019 05:50:00 10.2 C 80 % 6.91 C
3528 03-03-2019 05:55:00 10.2 C 80 % 6.91 C
3529 03-03-2019 06:00:00 10.2 C 80 % 6.91 C
3530 03-03-2019 06:05:00 10.1 C 80 % 6.81 C
3531 03-03-2019 06:10:00 10.1 C 81 % 6.99 C
3532 03-03-2019 06:15:00 10.1 C 81 % 6.99 C
3533 03-03-2019 06:20:00 10.1 C 81 % 6.99 C
3534 03-03-2019 06:25:00 10.1 C 81 % 6.99 C
3535 03-03-2019 06:30:00 10.1 C 81 % 6.99 C
3536 03-03-2019 06:35:00 10.1 C 81 % 6.99 C
3537 03-03-2019 06:40:00 10.1 C 81 % 6.99 C
3538 03-03-2019 06:45:00 10.1 C 81 % 6.99 C
3539 03-03-2019 06:50:00 10.1 C 81 % 6.99 C
3540 03-03-2019 06:55:00 10.1 C 81 % 6.99 C
3541 03-03-2019 07:00:00 10.1 C 81 % 6.99 C
3542 03-03-2019 07:05:00 10.1 C 81 % 6.99 C
3543 03-03-2019 07:10:00 10.1 C 81 % 6.99 C
3544 03-03-2019 07:15:00 10.1 C 81 % 6.99 C
3545 03-03-2019 07:20:00 10.1 C 81 % 6.99 C
3546 03-03-2019 07:25:00 10.1 C 81 % 6.99 C
3547 03-03-2019 07:30:00 10.1 C 81 % 6.99 C
3548 03-03-2019 07:35:00 10.1 C 81 % 6.99 C
3549 03-03-2019 07:40:00 10.2 C 81 % 7.09 C
3550 03-03-2019 07:45:00 10.2 C 81 % 7.09 C
Sensor: Nr:Datum:Temp:Feuchte:Taupunkt:
Aussen-T/F 3551 03-03-2019 07:50:00 10.2 C 81 % 7.09 C
3552 03-03-2019 07:55:00 10.2 C 81 % 7.09 C
3553 03-03-2019 08:00:00 10.2 C 81 % 7.09 C
3554 03-03-2019 08:05:00 10.2 C 81 % 7.09 C
3555 03-03-2019 08:10:00 10.3 C 81 % 7.19 C
3556 03-03-2019 08:15:00 10.3 C 81 % 7.19 C
3557 03-03-2019 08:20:00 10.3 C 81 % 7.19 C
3558 03-03-2019 08:25:00 10.3 C 81 % 7.19 C
3559 03-03-2019 08:30:00 10.3 C 82 % 7.37 C
3560 03-03-2019 08:35:00 10.3 C 82 % 7.37 C
3561 03-03-2019 08:40:00 10.3 C 82 % 7.37 C
3562 03-03-2019 08:45:00 10.4 C 82 % 7.46 C
3563 03-03-2019 08:50:00 10.4 C 82 % 7.46 C
3564 03-03-2019 08:55:00 10.5 C 82 % 7.56 C
3565 03-03-2019 09:00:00 10.6 C 82 % 7.66 C
3566 03-03-2019 09:05:00 10.7 C 81 % 7.58 C
3567 03-03-2019 09:10:00 10.8 C 82 % 7.85 C
3568 03-03-2019 09:15:00 10.9 C 81 % 7.77 C
3569 03-03-2019 09:20:00 10.9 C 81 % 7.77 C
3570 03-03-2019 09:25:00 11 C 81 % 7.87 C
3571 03-03-2019 09:30:00 10.9 C 81 % 7.77 C
3572 03-03-2019 09:35:00 10.9 C 81 % 7.77 C
3573 03-03-2019 09:40:00 10.9 C 81 % 7.77 C
3574 03-03-2019 09:45:00 10.9 C 81 % 7.77 C
3575 03-03-2019 09:50:00 10.9 C 81 % 7.77 C
Sensor: Nr:Datum:Temp:Feuchte:Taupunkt:
Aussen-T/F 3576 03-03-2019 09:55:00 11.1 C 81 % 7.97 C
3577 03-03-2019 10:00:00 11.1 C 81 % 7.97 C
3578 03-03-2019 10:05:00 11.1 C 81 % 7.97 C
3579 03-03-2019 10:10:00 11.2 C 81 % 8.06 C
3580 03-03-2019 10:15:00 11.2 C 81 % 8.06 C
3581 03-03-2019 10:20:00 11.1 C 81 % 7.97 C
3582 03-03-2019 10:25:00 11.1 C 81 % 7.97 C
3583 03-03-2019 10:30:00 11.1 C 81 % 7.97 C
3584 03-03-2019 10:35:00 11.2 C 81 % 8.06 C
3585 03-03-2019 10:40:00 11.2 C 81 % 8.06 C
3586 03-03-2019 10:45:00 11.2 C 81 % 8.06 C
3587 03-03-2019 10:50:00 11.2 C 81 % 8.06 C
3588 03-03-2019 10:55:00 11.2 C 81 % 8.06 C
3589 03-03-2019 11:00:00 11.1 C 81 % 7.97 C
3590 03-03-2019 11:05:00 11.1 C 82 % 8.15 C
3591 03-03-2019 11:10:00 11 C 82 % 8.05 C
3592 03-03-2019 11:15:00 10.9 C 82 % 7.95 C
3593 03-03-2019 11:20:00 10.9 C 82 % 7.95 C
3594 03-03-2019 11:25:00 10.9 C 82 % 7.95 C
3595 03-03-2019 11:30:00 11 C 82 % 8.05 C
3596 03-03-2019 11:35:00 11 C 82 % 8.05 C
3597 03-03-2019 11:40:00 11 C 82 % 8.05 C
3598 03-03-2019 11:45:00 11 C 82 % 8.05 C
3599 03-03-2019 11:50:00 11.1 C 83 % 8.33 C
3600 03-03-2019 11:55:00 11.1 C 82 % 8.15 C
Sensor: Nr:Datum:Temp:Feuchte:Taupunkt:
Aussen-T/F 3601 03-03-2019 12:00:00 11.1 C 83 % 8.33 C
3602 03-03-2019 12:05:00 11.1 C 82 % 8.15 C
3603 03-03-2019 12:10:00 11.1 C 82 % 8.15 C
3604 03-03-2019 12:15:00 11.1 C 82 % 8.15 C
3605 03-03-2019 12:20:00 11.2 C 82 % 8.25 C
3606 03-03-2019 12:25:00 11.2 C 82 % 8.25 C
3607 03-03-2019 12:30:00 11.3 C 82 % 8.34 C
3608 03-03-2019 12:35:00 11.3 C 82 % 8.34 C
3609 03-03-2019 12:40:00 11.3 C 82 % 8.34 C
3610 03-03-2019 12:45:00 11.3 C 82 % 8.34 C
3611 03-03-2019 12:50:00 11.3 C 82 % 8.34 C
3612 03-03-2019 12:55:00 11.4 C 82 % 8.44 C
3613 03-03-2019 13:00:00 11.4 C 82 % 8.44 C
3614 03-03-2019 13:05:00 11.6 C 81 % 8.45 C
3615 03-03-2019 13:10:00 11.6 C 81 % 8.45 C
3616 03-03-2019 13:15:00 11.7 C 81 % 8.55 C
3617 03-03-2019 13:20:00 11.7 C 81 % 8.55 C
3618 03-03-2019 13:25:00 11.8 C 80 % 8.47 C
3619 03-03-2019 13:30:00 11.8 C 80 % 8.47 C
3620 03-03-2019 13:35:00 11.8 C 80 % 8.47 C
3621 03-03-2019 13:40:00 11.8 C 80 % 8.47 C
3622 03-03-2019 13:45:00 11.8 C 80 % 8.47 C
3623 03-03-2019 13:50:00 11.9 C 80 % 8.56 C
3624 03-03-2019 13:55:00 11.9 C 80 % 8.56 C
3625 03-03-2019 14:00:00 11.9 C 79 % 8.38 C
Sensor: Nr:Datum:Temp:Feuchte:Taupunkt:
Aussen-T/F 3626 03-03-2019 14:05:00 11.9 C 79 % 8.38 C
3627 03-03-2019 14:10:00 11.9 C 80 % 8.56 C
3628 03-03-2019 14:15:00 11.9 C 80 % 8.56 C
3629 03-03-2019 14:20:00 11.8 C 80 % 8.47 C
3630 03-03-2019 14:25:00 11.8 C 80 % 8.47 C
3631 03-03-2019 14:30:00 11.8 C 80 % 8.47 C
3632 03-03-2019 14:35:00 11.7 C 80 % 8.37 C
3633 03-03-2019 14:40:00 11.7 C 80 % 8.37 C
3634 03-03-2019 14:45:00 11.7 C 80 % 8.37 C
3635 03-03-2019 14:50:00 11.7 C 81 % 8.55 C
3636 03-03-2019 14:55:00 11.7 C 81 % 8.55 C
3637 03-03-2019 15:00:00 11.7 C 81 % 8.55 C
3638 03-03-2019 15:05:00 11.7 C 80 % 8.37 C
3639 03-03-2019 15:10:00 11.7 C 80 % 8.37 C
3640 03-03-2019 15:15:00 11.8 C 81 % 8.65 C
3641 03-03-2019 15:20:00 11.8 C 81 % 8.65 C
3642 03-03-2019 15:25:00 11.8 C 81 % 8.65 C
3643 03-03-2019 15:30:00 11.7 C 81 % 8.55 C
3644 03-03-2019 15:35:00 11.7 C 82 % 8.73 C
3645 03-03-2019 15:40:00 11.7 C 82 % 8.73 C
3646 03-03-2019 15:45:00 11.6 C 82 % 8.64 C
3647 03-03-2019 15:50:00 11.6 C 82 % 8.64 C
3648 03-03-2019 15:55:00 11.6 C 82 % 8.64 C
3649 03-03-2019 16:00:00 11.6 C 82 % 8.64 C
3650 03-03-2019 16:05:00 11.6 C 82 % 8.64 C
Sensor: Nr:Datum:Temp:Feuchte:Taupunkt:
Aussen-T/F 3651 03-03-2019 16:10:00 11.6 C 82 % 8.64 C
3652 03-03-2019 16:15:00 11.6 C 82 % 8.64 C
3653 03-03-2019 16:20:00 11.6 C 82 % 8.64 C
3654 03-03-2019 16:25:00 11.7 C 82 % 8.73 C
3655 03-03-2019 16:30:00 11.7 C 81 % 8.55 C
3656 03-03-2019 16:35:00 11.8 C 81 % 8.65 C
3657 03-03-2019 16:40:00 11.8 C 81 % 8.65 C
3658 03-03-2019 16:45:00 11.8 C 81 % 8.65 C
3659 03-03-2019 16:50:00 11.8 C 81 % 8.65 C
3660 03-03-2019 16:55:00 11.8 C 81 % 8.65 C
3661 03-03-2019 17:00:00 11.8 C 81 % 8.65 C
3662 03-03-2019 17:05:00 11.8 C 81 % 8.65 C
3663 03-03-2019 17:10:00 11.8 C 80 % 8.47 C
3664 03-03-2019 17:15:00 11.8 C 80 % 8.47 C
3665 03-03-2019 17:20:00 11.8 C 80 % 8.47 C
3666 03-03-2019 17:25:00 11.8 C 80 % 8.47 C
3667 03-03-2019 17:30:00 11.9 C 79 % 8.38 C
3668 03-03-2019 17:35:00 11.9 C 79 % 8.38 C
3669 03-03-2019 17:40:00 11.9 C 79 % 8.38 C
3670 03-03-2019 17:45:00 12 C 78 % 8.29 C
3671 03-03-2019 17:50:00 12.1 C 78 % 8.38 C
3672 03-03-2019 17:55:00 12.2 C 78 % 8.48 C
3673 03-03-2019 18:00:00 12.2 C 78 % 8.48 C
3674 03-03-2019 18:05:00 12.2 C 78 % 8.48 C
3675 03-03-2019 18:10:00 12.2 C 78 % 8.48 C
Sensor: Nr:Datum:Temp:Feuchte:Taupunkt:
Aussen-T/F 3676 03-03-2019 18:15:00 12.2 C 78 % 8.48 C
3677 03-03-2019 18:20:00 12.2 C 78 % 8.48 C
3678 03-03-2019 18:25:00 12.2 C 78 % 8.48 C
3679 03-03-2019 18:30:00 12.2 C 77 % 8.29 C
3680 03-03-2019 18:35:00 12.2 C 77 % 8.29 C
3681 03-03-2019 18:40:00 12.2 C 77 % 8.29 C
3682 03-03-2019 18:45:00 12.2 C 77 % 8.29 C
3683 03-03-2019 18:50:00 12.1 C 77 % 8.2 C
3684 03-03-2019 18:55:00 12.1 C 77 % 8.2 C
3685 03-03-2019 19:00:00 12.1 C 77 % 8.2 C
3686 03-03-2019 19:05:00 12.2 C 77 % 8.29 C
3687 03-03-2019 19:10:00 12.2 C 77 % 8.29 C
3688 03-03-2019 19:15:00 12.2 C 76 % 8.1 C
3689 03-03-2019 19:20:00 12.3 C 76 % 8.2 C
3690 03-03-2019 19:25:00 12.3 C 76 % 8.2 C
3691 03-03-2019 19:30:00 12.3 C 76 % 8.2 C
3692 03-03-2019 19:35:00 12.3 C 76 % 8.2 C
3693 03-03-2019 19:40:00 12.3 C 75 % 8 C
3694 03-03-2019 19:45:00 12.4 C 75 % 8.1 C
3695 03-03-2019 19:50:00 12.4 C 75 % 8.1 C
3696 03-03-2019 19:55:00 12.4 C 75 % 8.1 C
3697 03-03-2019 20:00:00 12.3 C 75 % 8 C
3698 03-03-2019 20:05:00 12.3 C 75 % 8 C
3699 03-03-2019 20:10:00 12.3 C 75 % 8 C
3700 03-03-2019 20:15:00 12.3 C 76 % 8.2 C
Sensor: Nr:Datum:Temp:Feuchte:Taupunkt:
Aussen-T/F 3701 03-03-2019 20:20:00 12.3 C 76 % 8.2 C
3702 03-03-2019 20:25:00 12.4 C 76 % 8.29 C
3703 03-03-2019 20:30:00 12.4 C 76 % 8.29 C
3704 03-03-2019 20:35:00 12.4 C 76 % 8.29 C
3705 03-03-2019 20:40:00 12.4 C 76 % 8.29 C
3706 03-03-2019 20:45:00 12.3 C 77 % 8.39 C
3707 03-03-2019 20:50:00 12.3 C 77 % 8.39 C
3708 03-03-2019 20:55:00 12.3 C 77 % 8.39 C
3709 03-03-2019 21:00:00 12.3 C 77 % 8.39 C
3710 03-03-2019 21:05:00 12.3 C 77 % 8.39 C
3711 03-03-2019 21:10:00 12.3 C 77 % 8.39 C
3712 03-03-2019 21:15:00 12.3 C 77 % 8.39 C
3713 03-03-2019 21:20:00 12.3 C 77 % 8.39 C
3714 03-03-2019 21:25:00 12.3 C 77 % 8.39 C
3715 03-03-2019 21:30:00 12.3 C 77 % 8.39 C
3716 03-03-2019 21:35:00 12.3 C 77 % 8.39 C
3717 03-03-2019 21:40:00 12.4 C 77 % 8.49 C
3718 03-03-2019 21:45:00 12.4 C 77 % 8.49 C
3719 03-03-2019 21:50:00 12.4 C 77 % 8.49 C
3720 03-03-2019 21:55:00 12.4 C 78 % 8.68 C
3721 03-03-2019 22:00:00 12.4 C 78 % 8.68 C
3722 03-03-2019 22:05:00 12.4 C 78 % 8.68 C
3723 03-03-2019 22:10:00 12.4 C 78 % 8.68 C
3724 03-03-2019 22:15:00 12.4 C 77 % 8.49 C
3725 03-03-2019 22:20:00 12.4 C 77 % 8.49 C
Sensor: Nr:Datum:Temp:Feuchte:Taupunkt:
Aussen-T/F 3726 03-03-2019 22:25:00 12.5 C 77 % 8.58 C
3727 03-03-2019 22:30:00 12.5 C 77 % 8.58 C
3728 03-03-2019 22:35:00 12.6 C 76 % 8.49 C
3729 03-03-2019 22:40:00 12.6 C 76 % 8.49 C
3730 03-03-2019 22:45:00 12.7 C 75 % 8.39 C
3731 03-03-2019 22:50:00 12.7 C 75 % 8.39 C
3732 03-03-2019 22:55:00 12.7 C 75 % 8.39 C
3733 03-03-2019 23:00:00 12.7 C 74 % 8.19 C
3734 03-03-2019 23:05:00 12.8 C 74 % 8.29 C
3735 03-03-2019 23:10:00 12.8 C 74 % 8.29 C
3736 03-03-2019 23:15:00 12.8 C 74 % 8.29 C
3737 03-03-2019 23:20:00 12.7 C 74 % 8.19 C
3738 03-03-2019 23:25:00 12.7 C 74 % 8.19 C
3739 03-03-2019 23:30:00 12.7 C 74 % 8.19 C
3740 03-03-2019 23:35:00 12.7 C 74 % 8.19 C
3741 03-03-2019 23:40:00 12.8 C 73 % 8.09 C
3742 03-03-2019 23:45:00 12.8 C 74 % 8.29 C
3743 03-03-2019 23:50:00 12.8 C 73 % 8.09 C
3744 03-03-2019 23:55:00 12.8 C 73 % 8.09 C
3745 04-03-2019 00:00:00 12.9 C 73 % 8.18 C
3746 04-03-2019 00:05:00 12.9 C 73 % 8.18 C
3747 04-03-2019 00:10:00 12.9 C 72 % 7.98 C
3748 04-03-2019 00:15:00 13 C 72 % 8.08 C
3749 04-03-2019 00:20:00 13.1 C 72 % 8.17 C
3750 04-03-2019 00:25:00 13.1 C 71 % 7.97 C
Sensor: Nr:Datum:Temp:Feuchte:Taupunkt:
Aussen-T/F 3751 04-03-2019 00:30:00 13.2 C 71 % 8.06 C
3752 04-03-2019 00:35:00 13.2 C 70 % 7.86 C
3753 04-03-2019 00:40:00 13.2 C 71 % 8.06 C
3754 04-03-2019 00:45:00 13.2 C 70 % 7.86 C
3755 04-03-2019 00:50:00 13.3 C 70 % 7.95 C
3756 04-03-2019 00:55:00 13.3 C 70 % 7.95 C
3757 04-03-2019 01:00:00 13.3 C 69 % 7.74 C
3758 04-03-2019 01:05:00 13.3 C 70 % 7.95 C
3759 04-03-2019 01:10:00 13.3 C 70 % 7.95 C
3760 04-03-2019 01:15:00 13.3 C 70 % 7.95 C
3761 04-03-2019 01:20:00 13.3 C 69 % 7.74 C
3762 04-03-2019 01:25:00 13.3 C 69 % 7.74 C
3763 04-03-2019 01:30:00 13.4 C 68 % 7.62 C
3764 04-03-2019 01:35:00 13.6 C 67 % 7.6 C
3765 04-03-2019 01:40:00 13.8 C 67 % 7.79 C
3766 04-03-2019 01:45:00 13.8 C 67 % 7.79 C
3767 04-03-2019 01:50:00 13.9 C 67 % 7.88 C
3768 04-03-2019 01:55:00 13.8 C 69 % 8.22 C
3769 04-03-2019 02:00:00 13.6 C 70 % 8.24 C
3770 04-03-2019 02:05:00 13.3 C 71 % 8.16 C
3771 04-03-2019 02:10:00 13.2 C 72 % 8.27 C
3772 04-03-2019 02:15:00 12.9 C 74 % 8.38 C
3773 04-03-2019 02:20:00 12.8 C 75 % 8.48 C
3774 04-03-2019 02:25:00 12.6 C 76 % 8.49 C
3775 04-03-2019 02:30:00 12.5 C 77 % 8.58 C
Sensor: Nr:Datum:Temp:Feuchte:Taupunkt:
Aussen-T/F 3776 04-03-2019 02:35:00 12.3 C 77 % 8.39 C
3777 04-03-2019 02:40:00 12.3 C 78 % 8.58 C
3778 04-03-2019 02:45:00 12.2 C 78 % 8.48 C
3779 04-03-2019 02:50:00 12.2 C 78 % 8.48 C
3780 04-03-2019 02:55:00 12.1 C 79 % 8.57 C
3781 04-03-2019 03:00:00 12.1 C 79 % 8.57 C
3782 04-03-2019 03:05:00 12 C 79 % 8.48 C
3783 04-03-2019 03:10:00 11.9 C 80 % 8.56 C
3784 04-03-2019 03:15:00 11.8 C 80 % 8.47 C
3785 04-03-2019 03:20:00 11.8 C 80 % 8.47 C
3786 04-03-2019 03:25:00 11.7 C 81 % 8.55 C
3787 04-03-2019 03:30:00 11.7 C 81 % 8.55 C
3788 04-03-2019 03:35:00 11.7 C 81 % 8.55 C
3789 04-03-2019 03:40:00 11.7 C 81 % 8.55 C
3790 04-03-2019 03:45:00 11.7 C 81 % 8.55 C
3791 04-03-2019 03:50:00 11.7 C 81 % 8.55 C
3792 04-03-2019 03:55:00 11.7 C 81 % 8.55 C
3793 04-03-2019 04:00:00 11.7 C 81 % 8.55 C
3794 04-03-2019 04:05:00 11.7 C 81 % 8.55 C
3795 04-03-2019 04:10:00 11.6 C 81 % 8.45 C
3796 04-03-2019 04:15:00 11.6 C 81 % 8.45 C
3797 04-03-2019 04:20:00 11.6 C 81 % 8.45 C
3798 04-03-2019 04:25:00 11.7 C 82 % 8.73 C
3799 04-03-2019 04:30:00 11.7 C 82 % 8.73 C
3800 04-03-2019 04:35:00 11.7 C 82 % 8.73 C
Sensor: Nr:Datum:Temp:Feuchte:Taupunkt:
Aussen-T/F 3801 04-03-2019 04:40:00 11.7 C 82 % 8.73 C
3802 04-03-2019 04:45:00 11.7 C 82 % 8.73 C
3803 04-03-2019 04:50:00 11.7 C 82 % 8.73 C
3804 04-03-2019 04:55:00 11.7 C 81 % 8.55 C
3805 04-03-2019 05:00:00 11.7 C 81 % 8.55 C
3806 04-03-2019 05:05:00 11.7 C 80 % 8.37 C
3807 04-03-2019 05:10:00 11.8 C 80 % 8.47 C
3808 04-03-2019 05:15:00 11.8 C 80 % 8.47 C
3809 04-03-2019 05:20:00 11.8 C 80 % 8.47 C
3810 04-03-2019 05:25:00 11.8 C 80 % 8.47 C
3811 04-03-2019 05:30:00 11.7 C 80 % 8.37 C
3812 04-03-2019 05:35:00 11.6 C 79 % 8.09 C
3813 04-03-2019 05:40:00 11.6 C 80 % 8.27 C
3814 04-03-2019 05:45:00 11.4 C 80 % 8.08 C
3815 04-03-2019 05:50:00 11.4 C 80 % 8.08 C
3816 04-03-2019 05:55:00 11.3 C 81 % 8.16 C
3817 04-03-2019 06:00:00 11.3 C 81 % 8.16 C
3818 04-03-2019 06:05:00 11.4 C 80 % 8.08 C
3819 04-03-2019 06:10:00 11.4 C 80 % 8.08 C
3820 04-03-2019 06:15:00 11.3 C 80 % 7.98 C
3821 04-03-2019 06:20:00 11.3 C 79 % 7.8 C
3822 04-03-2019 06:25:00 11.3 C 78 % 7.61 C
3823 04-03-2019 06:30:00 11.5 C 77 % 7.61 C
3824 04-03-2019 06:35:00 11.6 C 79 % 8.09 C
3825 04-03-2019 06:40:00 11.6 C 79 % 8.09 C
Sensor: Nr:Datum:Temp:Feuchte:Taupunkt:
Aussen-T/F 3826 04-03-2019 06:45:00 11.5 C 78 % 7.8 C
3827 04-03-2019 06:50:00 11.6 C 78 % 7.9 C
3828 04-03-2019 06:55:00 11.6 C 78 % 7.9 C
3829 04-03-2019 07:00:00 11.6 C 77 % 7.71 C
3830 04-03-2019 07:05:00 11.7 C 76 % 7.62 C
3831 04-03-2019 07:10:00 11.8 C 76 % 7.71 C
3832 04-03-2019 07:15:00 11.9 C 75 % 7.62 C
3833 04-03-2019 07:20:00 12 C 74 % 7.52 C
3834 04-03-2019 07:25:00 12 C 74 % 7.52 C
3835 04-03-2019 07:30:00 12.1 C 73 % 7.41 C
3836 04-03-2019 07:35:00 12.1 C 73 % 7.41 C
3837 04-03-2019 07:40:00 12.2 C 72 % 7.31 C
3838 04-03-2019 07:45:00 12.2 C 72 % 7.31 C
3839 04-03-2019 07:50:00 12.2 C 72 % 7.31 C
3840 04-03-2019 07:55:00 12.2 C 72 % 7.31 C
3841 04-03-2019 08:00:00 12.3 C 72 % 7.4 C
3842 04-03-2019 08:05:00 12.3 C 71 % 7.2 C
3843 04-03-2019 08:10:00 12.4 C 70 % 7.09 C
3844 04-03-2019 08:15:00 12.4 C 69 % 6.88 C
3845 04-03-2019 08:20:00 12.6 C 68 % 6.86 C
3846 04-03-2019 08:25:00 12.7 C 68 % 6.95 C
3847 04-03-2019 08:30:00 12.7 C 67 % 6.74 C
3848 04-03-2019 08:35:00 12 C 75 % 7.71 C
3849 04-03-2019 08:40:00 10.7 C 77 % 6.84 C
3850 04-03-2019 08:45:00 9.7 C 80 % 6.42 C
Sensor: Nr:Datum:Temp:Feuchte:Taupunkt:
Aussen-T/F 3851 04-03-2019 08:50:00 9.2 C 80 % 5.94 C
3852 04-03-2019 08:55:00 8.9 C 81 % 5.82 C
3853 04-03-2019 09:00:00 8.9 C 79 % 5.46 C
3854 04-03-2019 09:05:00 9 C 77 % 5.19 C
3855 04-03-2019 09:10:00 9.2 C 75 % 5.01 C
3856 04-03-2019 09:15:00 9.4 C 74 % 5.01 C
3857 04-03-2019 09:20:00 9.6 C 73 % 5.01 C
3858 04-03-2019 09:25:00 9.6 C 73 % 5.01 C
3859 04-03-2019 09:30:00 9.7 C 73 % 5.1 C
3860 04-03-2019 09:35:00 9.8 C 75 % 5.59 C
3861 04-03-2019 09:40:00 9.8 C 78 % 6.15 C
3862 04-03-2019 09:45:00 9.4 C 79 % 5.95 C
3863 04-03-2019 09:50:00 9.2 C 80 % 5.94 C
3864 04-03-2019 09:55:00 9.1 C 80 % 5.84 C
3865 04-03-2019 10:00:00 9.1 C 80 % 5.84 C
3866 04-03-2019 10:05:00 9.2 C 80 % 5.94 C
3867 04-03-2019 10:10:00 9.4 C 79 % 5.95 C
3868 04-03-2019 10:15:00 9.6 C 78 % 5.96 C
3869 04-03-2019 10:20:00 9.7 C 77 % 5.87 C
3870 04-03-2019 10:25:00 9.9 C 77 % 6.06 C
3871 04-03-2019 10:30:00 10 C 76 % 5.97 C
3872 04-03-2019 10:35:00 10.1 C 76 % 6.07 C
3873 04-03-2019 10:40:00 10.2 C 76 % 6.16 C
3874 04-03-2019 10:45:00 10.3 C 75 % 6.07 C
3875 04-03-2019 10:50:00 10.6 C 74 % 6.17 C
Sensor: Nr:Datum:Temp:Feuchte:Taupunkt:
Aussen-T/F 3876 04-03-2019 10:55:00 10.8 C 71 % 5.76 C
3877 04-03-2019 11:00:00 11.1 C 70 % 5.84 C
3878 04-03-2019 11:05:00 11.3 C 68 % 5.62 C
3879 04-03-2019 11:10:00 11.6 C 67 % 5.69 C
3880 04-03-2019 11:15:00 11.7 C 66 % 5.57 C
3881 04-03-2019 11:20:00 11.7 C 65 % 5.35 C
3882 04-03-2019 11:25:00 11.6 C 68 % 5.9 C
3883 04-03-2019 11:30:00 11.2 C 70 % 5.94 C
3884 04-03-2019 11:35:00 10.9 C 71 % 5.86 C
3885 04-03-2019 11:40:00 10.8 C 71 % 5.76 C
3886 04-03-2019 11:45:00 10.9 C 72 % 6.06 C
3887 04-03-2019 11:50:00 11 C 71 % 5.95 C
3888 04-03-2019 11:55:00 11 C 71 % 5.95 C
3889 04-03-2019 12:00:00 11.2 C 69 % 5.73 C
3890 04-03-2019 12:05:00 11.3 C 68 % 5.62 C
3891 04-03-2019 12:10:00 11.4 C 68 % 5.71 C
3892 04-03-2019 12:15:00 11.6 C 68 % 5.9 C
3893 04-03-2019 12:20:00 11.8 C 67 % 5.88 C
3894 04-03-2019 12:25:00 12 C 67 % 6.07 C
3895 04-03-2019 12:30:00 11.9 C 68 % 6.19 C
3896 04-03-2019 12:35:00 11.4 C 73 % 6.74 C
3897 04-03-2019 12:40:00 10.6 C 78 % 6.93 C